[[{"header":{"parameterUnit":"m.s-1","parameterCategory":1,"la1":30.6,"la2":29.2853,"lo1":-89.7004,"lo2":-87.6739,"dx":0.0162,"dy":0.0183,"nx":112,"ny":82,"refTime":"2022-12-17T06:00:00:Z","depth":0,"parameterNumber":2,"parameterNumberName":"U-component_of_WINDS"},"data":[0.0,0.0,0.0,0.0,0.0,0.0,0.0,0.0,0.0,0.0,0.0,0.0,0.0,0.0,0.0,0.0,0.0,0.0,0.0,0.0,0.0,0.0,0.0,0.0,0.0,0.0,0.0,0.0,0.0,0.0,0.0,0.0,0.0,0.0,0.0,0.0,0.0,0.0,0.0,0.0,0.0,0.0,0.0,0.0,0.0,0.0,0.0,0.0,0.0,0.0,0.0,0.0,0.0,0.0,0.0,0.0,0.0,0.0,0.0,0.0,0.0,0.0,0.0,0.0,0.0,0.0,0.0,0.0,0.0,0.0,0.0,0.0,0.0,0.0,0.0,0.0,0.0,0.0,0.0,0.0,0.0,0.0,0.0,0.0,0.0,0.0,0.0,0.0,0.0,0.0,7.1498,7.2369,7.2979,7.4053,7.5882,7.5534,7.5301,7.5504,0.0,0.0,0.0,0.0,0.0,0.0,0.0,0.0,0.0,0.0,0.0,0.0,0.0,0.0,0.0,0.0,0.0,0.0,0.0,0.0,0.0,0.0,0.0,0.0,0.0,0.0,0.0,0.0,0.0,0.0,0.0,0.0,0.0,0.0,0.0,0.0,0.0,0.0,0.0,0.0,0.0,0.0,0.0,0.0,0.0,0.0,0.0,0.0,0.0,0.0,0.0,0.0,0.0,0.0,0.0,0.0,0.0,0.0,0.0,0.0,0.0,0.0,0.0,0.0,0.0,0.0,0.0,0.0,0.0,0.0,0.0,0.0,0.0,0.0,0.0,0.0,0.0,0.0,0.0,0.0,0.0,0.0,0.0,0.0,0.0,0.0,0.0,0.0,0.0,0.0,0.0,0.0,0.0,0.0,0.0,0.0,0.0,0.0,0.0,0.0,0.0,0.0,0.0,0.0,7.2834,7.1905,7.1905,7.2544,7.3937,7.3966,7.4372,7.5446,0.0,0.0,0.0,0.0,0.0,0.0,0.0,0.0,0.0,0.0,0.0,0.0,0.0,0.0,0.0,0.0,0.0,0.0,0.0,0.0,0.0,0.0,0.0,0.0,0.0,0.0,0.0,0.0,0.0,0.0,0.0,0.0,0.0,0.0,0.0,0.0,0.0,0.0,0.0,0.0,0.0,0.0,0.0,0.0,0.0,0.0,0.0,0.0,0.0,0.0,0.0,0.0,0.0,0.0,0.0,0.0,0.0,0.0,0.0,0.0,0.0,0.0,0.0,0.0,0.0,0.0,0.0,0.0,0.0,0.0,0.0,0.0,0.0,0.0,0.0,0.0,0.0,0.0,0.0,0.0,0.0,0.0,0.0,0.0,0.0,0.0,0.0,0.0,0.0,0.0,0.0,0.0,0.0,0.0,0.0,0.0,0.0,0.0,0.0,0.0,0.0,0.0,0.0,7.3472,7.3124,7.3211,7.2282,7.2195,7.3501,7.3618,7.4169,7.5417,7.5243,0.0,0.0,0.0,0.0,0.0,0.0,0.0,0.0,0.0,0.0,0.0,0.0,0.0,0.0,0.0,0.0,0.0,0.0,0.0,0.0,0.0,0.0,0.0,0.0,0.0,0.0,0.0,0.0,0.0,0.0,0.0,0.0,0.0,0.0,0.0,0.0,0.0,0.0,0.0,0.0,0.0,0.0,0.0,0.0,0.0,0.0,0.0,0.0,0.0,0.0,0.0,0.0,0.0,0.0,0.0,0.0,0.0,0.0,0.0,0.0,0.0,0.0,0.0,0.0,0.0,0.0,0.0,0.0,0.0,0.0,0.0,0.0,0.0,0.0,0.0,0.0,0.0,0.0,0.0,0.0,0.0,0.0,0.0,0.0,0.0,0.0,0.0,0.0,0.0,0.0,0.0,0.0,0.0,0.0,0.0,0.0,0.0,0.0,0.0,0.0,0.0,0.0,7.3298,7.2979,7.3966,7.2485,7.1847,7.2834,7.3066,7.3821,7.5417,7.5795,0.0,0.0,0.0,0.0,0.0,0.0,0.0,0.0,0.0,0.0,0.0,0.0,0.0,0.0,0.0,0.0,0.0,0.0,0.0,0.0,0.0,0.0,0.0,0.0,0.0,0.0,0.0,0.0,0.0,0.0,0.0,0.0,0.0,0.0,0.0,0.0,0.0,0.0,0.0,0.0,0.0,0.0,0.0,0.0,0.0,0.0,0.0,0.0,0.0,0.0,0.0,0.0,0.0,0.0,0.0,0.0,0.0,0.0,0.0,0.0,0.0,0.0,0.0,0.0,0.0,0.0,0.0,0.0,0.0,0.0,0.0,0.0,0.0,0.0,0.0,0.0,0.0,0.0,0.0,0.0,0.0,0.0,0.0,0.0,0.0,0.0,0.0,0.0,0.0,0.0,0.0,0.0,0.0,0.0,0.0,0.0,0.0,0.0,0.0,0.0,0.0,0.0,7.414,7.266,7.2747,7.1586,7.0831,7.0918,7.1469,7.2863,7.5359,7.6608,0.0,0.0,0.0,0.0,0.0,0.0,0.0,0.0,0.0,0.0,0.0,0.0,0.0,0.0,0.0,0.0,0.0,0.0,0.0,0.0,0.0,0.0,0.0,0.0,0.0,0.0,0.0,0.0,0.0,0.0,0.0,0.0,0.0,0.0,0.0,0.0,0.0,0.0,0.0,0.0,0.0,0.0,0.0,0.0,0.0,0.0,0.0,0.0,0.0,0.0,0.0,0.0,0.0,0.0,0.0,0.0,0.0,0.0,0.0,0.0,0.0,0.0,0.0,0.0,0.0,0.0,0.0,0.0,0.0,0.0,0.0,0.0,0.0,0.0,0.0,0.0,0.0,0.0,0.0,0.0,0.0,0.0,0.0,0.0,0.0,0.0,0.0,0.0,0.0,0.0,0.0,0.0,0.0,0.0,0.0,0.0,0.0,0.0,0.0,0.0,0.0,0.0,7.5127,7.3792,7.3821,7.2311,7.1469,7.1876,7.2137,7.3531,7.6491,0.0,0.0,0.0,0.0,0.0,0.0,0.0,0.0,0.0,0.0,0.0,0.0,0.0,0.0,0.0,0.0,0.0,0.0,0.0,0.0,0.0,0.0,0.0,0.0,0.0,0.0,0.0,0.0,0.0,0.0,0.0,0.0,0.0,0.0,0.0,0.0,0.0,0.0,0.0,0.0,0.0,0.0,0.0,0.0,0.0,0.0,0.0,0.0,0.0,0.0,0.0,0.0,0.0,0.0,0.0,0.0,0.0,0.0,0.0,0.0,0.0,0.0,0.0,0.0,0.0,0.0,0.0,0.0,0.0,0.0,0.0,0.0,0.0,0.0,0.0,0.0,0.0,0.0,0.0,0.0,0.0,0.0,0.0,0.0,0.0,0.0,0.0,0.0,0.0,0.0,0.0,0.0,0.0,0.0,0.0,0.0,0.0,0.0,0.0,0.0,0.0,0.0,7.7972,7.5969,7.4692,7.5127,7.3443,7.2544,7.3153,7.324,7.4605,7.7798,0.0,0.0,0.0,0.0,0.0,0.0,0.0,0.0,0.0,0.0,0.0,0.0,0.0,0.0,0.0,0.0,0.0,0.0,0.0,0.0,0.0,0.0,0.0,0.0,0.0,0.0,0.0,0.0,0.0,0.0,0.0,0.0,0.0,0.0,0.0,0.0,0.0,0.0,0.0,0.0,0.0,0.0,0.0,0.0,0.0,0.0,0.0,0.0,0.0,0.0,0.0,0.0,0.0,0.0,0.0,0.0,0.0,0.0,0.0,0.0,0.0,0.0,0.0,0.0,0.0,0.0,0.0,0.0,0.0,0.0,0.0,0.0,0.0,0.0,0.0,0.0,0.0,0.0,0.0,0.0,0.0,0.0,0.0,0.0,0.0,0.0,0.0,0.0,0.0,0.0,0.0,0.0,0.0,0.0,0.0,0.0,0.0,0.0,0.0,0.0,0.0,0.0,7.922,7.6521,7.504,7.6346,7.4779,7.3908,7.4488,7.4576,7.594,0.0,0.0,0.0,0.0,0.0,0.0,0.0,0.0,0.0,0.0,0.0,0.0,0.0,0.0,0.0,0.0,0.0,0.0,0.0,0.0,0.0,0.0,0.0,0.0,0.0,0.0,0.0,0.0,0.0,0.0,0.0,0.0,0.0,0.0,0.0,0.0,0.0,0.0,0.0,0.0,0.0,0.0,0.0,0.0,0.0,0.0,0.0,0.0,0.0,0.0,0.0,0.0,0.0,0.0,0.0,0.0,0.0,0.0,0.0,0.0,0.0,0.0,0.0,0.0,0.0,0.0,0.0,0.0,0.0,0.0,0.0,0.0,0.0,0.0,0.0,0.0,0.0,0.0,0.0,0.0,0.0,0.0,0.0,0.0,0.0,0.0,0.0,0.0,0.0,0.0,0.0,0.0,0.0,0.0,0.0,0.0,0.0,0.0,0.0,0.0,0.0,0.0,0.0,7.9917,7.7595,7.6201,7.7043,7.623,7.5882,7.6491,7.6143,7.7653,8.1775,0.0,0.0,0.0,0.0,0.0,0.0,0.0,0.0,0.0,0.0,0.0,0.0,0.0,0.0,0.0,0.0,0.0,0.0,0.0,0.0,0.0,0.0,0.0,0.0,0.0,0.0,0.0,0.0,0.0,0.0,0.0,0.0,0.0,0.0,0.0,0.0,0.0,0.0,0.0,0.0,0.0,0.0,0.0,0.0,0.0,0.0,0.0,0.0,0.0,0.0,0.0,0.0,0.0,0.0,0.0,0.0,0.0,0.0,0.0,0.0,0.0,0.0,0.0,0.0,0.0,0.0,0.0,0.0,0.0,0.0,0.0,0.0,0.0,0.0,0.0,0.0,0.0,0.0,0.0,0.0,0.0,0.0,0.0,0.0,0.0,0.0,0.0,0.0,0.0,0.0,0.0,0.0,0.0,0.0,0.0,0.0,0.0,0.0,0.0,0.0,0.0,0.0,8.0962,7.8582,7.7188,7.8059,7.7595,7.7478,7.8117,7.7333,7.8436,8.2152,0.0,0.0,0.0,0.0,0.0,0.0,0.0,0.0,0.0,0.0,0.0,0.0,0.0,0.0,0.0,0.0,0.0,0.0,0.0,0.0,0.0,0.0,0.0,0.0,0.0,0.0,0.0,0.0,0.0,0.0,0.0,0.0,0.0,0.0,0.0,0.0,0.0,0.0,0.0,0.0,0.0,0.0,0.0,0.0,0.0,0.0,0.0,0.0,0.0,0.0,0.0,0.0,0.0,0.0,0.0,0.0,0.0,0.0,0.0,0.0,0.0,0.0,0.0,0.0,0.0,0.0,0.0,0.0,0.0,0.0,0.0,0.0,0.0,0.0,0.0,0.0,0.0,0.0,0.0,0.0,0.0,0.0,0.0,0.0,0.0,0.0,0.0,0.0,0.0,0.0,0.0,0.0,0.0,0.0,0.0,0.0,0.0,0.0,0.0,0.0,0.0,0.0,8.2384,7.9714,7.8233,7.9423,7.9075,7.8959,7.9511,7.8407,7.8785,8.1397,0.0,0.0,0.0,0.0,0.0,0.0,0.0,0.0,0.0,0.0,0.0,0.0,0.0,0.0,0.0,0.0,0.0,0.0,0.0,0.0,0.0,0.0,0.0,0.0,0.0,0.0,0.0,0.0,0.0,0.0,0.0,0.0,0.0,0.0,0.0,0.0,0.0,0.0,0.0,0.0,0.0,0.0,0.0,0.0,0.0,0.0,0.0,0.0,0.0,0.0,0.0,0.0,0.0,0.0,0.0,0.0,0.0,0.0,0.0,0.0,7.5466,7.4941,0.0,0.0,0.0,0.0,0.0,0.0,0.0,0.0,0.0,0.0,0.0,0.0,0.0,0.0,0.0,0.0,0.0,0.0,0.0,0.0,0.0,0.0,0.0,0.0,0.0,0.0,0.0,0.0,0.0,0.0,0.0,0.0,0.0,0.0,0.0,0.0,0.0,0.0,0.0,0.0,8.4329,8.2094,8.0701,8.1484,8.1455,8.1426,8.1572,8.041,8.0991,8.4068,8.2588,0.0,0.0,0.0,0.0,0.0,0.0,0.0,0.0,0.0,0.0,0.0,0.0,0.0,0.0,0.0,0.0,0.0,0.0,0.0,0.0,0.0,0.0,0.0,0.0,0.0,0.0,0.0,0.0,0.0,0.0,0.0,0.0,0.0,0.0,0.0,0.0,0.0,0.0,0.0,0.0,0.0,0.0,0.0,0.0,0.0,0.0,0.0,0.0,0.0,0.0,0.0,0.0,0.0,0.0,0.0,0.0,0.0,0.0,0.0,7.665,7.6057,0.0,0.0,0.0,0.0,0.0,0.0,0.0,0.0,0.0,0.0,0.0,0.0,0.0,0.0,0.0,0.0,0.0,0.0,0.0,0.0,0.0,0.0,0.0,0.0,0.0,0.0,0.0,0.0,0.0,0.0,0.0,0.0,0.0,0.0,0.0,0.0,0.0,0.0,0.0,0.0,8.5839,8.3197,8.1455,8.2123,8.2181,8.2181,8.2181,8.1281,8.1572,8.3575,8.2994,0.0,0.0,0.0,0.0,0.0,0.0,0.0,0.0,0.0,0.0,0.0,0.0,0.0,0.0,0.0,0.0,0.0,0.0,0.0,0.0,0.0,0.0,0.0,0.0,0.0,0.0,0.0,0.0,0.0,0.0,0.0,0.0,0.0,0.0,0.0,0.0,0.0,0.0,0.0,0.0,0.0,0.0,0.0,0.0,0.0,0.0,0.0,0.0,0.0,0.0,0.0,0.0,0.0,7.9182,7.9182,7.9069,7.8685,7.7561,7.6298,7.7386,7.6946,7.5539,7.7445,0.0,0.0,0.0,0.0,0.0,0.0,0.0,0.0,0.0,0.0,0.0,0.0,0.0,0.0,0.0,0.0,0.0,0.0,0.0,0.0,0.0,0.0,8.1116,7.9841,7.9017,7.8262,7.7188,0.0,0.0,0.0,0.0,0.0,0.0,0.0,0.0,0.0,0.0,0.0,8.671,8.372,8.1804,8.2442,8.253,8.253,8.253,8.192,8.1833,8.2471,8.34,8.4329,0.0,0.0,0.0,0.0,0.0,0.0,0.0,0.0,0.0,0.0,0.0,0.0,0.0,0.0,0.0,0.0,0.0,0.0,0.0,0.0,0.0,0.0,0.0,0.0,0.0,0.0,0.0,0.0,0.0,0.0,0.0,0.0,6.8405,6.7897,0.0,0.0,0.0,0.0,0.0,0.0,0.0,0.0,0.0,0.0,0.0,0.0,0.0,7.7299,7.7151,7.7181,7.7328,7.7446,7.715,7.6882,7.6882,7.7403,7.7456,7.734,7.8009,0.0,7.6856,7.7707,0.0,0.0,0.0,0.0,0.0,0.0,0.0,0.0,0.0,0.0,0.0,0.0,0.0,0.0,0.0,0.0,0.0,0.0,0.0,0.0,0.0,0.0,7.9656,8.0062,7.9656,7.9133,7.8959,7.9452,8.0207,8.1136,8.2762,8.4794,0.0,0.0,0.0,0.0,0.0,0.0,8.6216,8.4271,8.3168,8.3778,8.3836,8.3836,8.3836,8.3284,8.3197,8.3807,8.3517,8.4097,8.5839,8.6158,0.0,0.0,0.0,0.0,0.0,0.0,0.0,0.0,0.0,0.0,0.0,0.0,0.0,0.0,0.0,0.0,0.0,0.0,0.0,0.0,0.0,0.0,0.0,0.0,0.0,0.0,0.0,0.0,0.0,7.026,7.1787,7.1846,7.3193,7.43,0.0,0.0,0.0,0.0,0.0,0.0,0.0,0.0,0.0,7.6447,7.771,7.7912,7.706,7.7141,7.7316,7.7287,7.7514,7.7566,7.7566,7.8175,7.8465,7.8524,7.954,7.9608,7.8948,7.9489,8.0433,8.1645,0.0,0.0,0.0,0.0,8.2622,8.274,8.0977,8.0118,8.0059,8.1127,0.0,0.0,0.0,0.0,0.0,0.0,0.0,8.3627,8.2633,8.1891,8.1368,8.0904,8.0323,7.9743,7.9365,7.983,8.0585,8.1572,8.3604,8.61,8.9061,8.8597,0.0,0.0,0.0,8.6477,8.6565,8.52,8.4358,8.462,8.4968,8.5026,8.4678,8.4416,8.4213,8.4097,8.4184,8.4649,8.5461,8.6884,8.7639,0.0,0.0,0.0,0.0,0.0,0.0,0.0,0.0,0.0,0.0,0.0,0.0,0.0,0.0,0.0,0.0,0.0,0.0,0.0,0.0,0.0,0.0,0.0,0.0,0.0,0.0,0.0,0.0,7.2565,7.439,7.5048,7.5736,7.6455,0.0,0.0,0.0,0.0,0.0,0.0,7.7034,7.8682,7.8708,7.6473,7.7992,7.8132,7.6724,7.7333,7.7653,7.7653,7.832,7.8727,7.8901,7.9511,7.9772,7.9859,8.0962,8.1194,8.0759,8.0871,8.1145,8.1554,8.282,8.3596,8.389,8.2743,8.2537,8.2595,8.0659,7.9715,7.9598,8.1034,8.1499,8.2051,8.4007,0.0,0.0,0.0,0.0,8.4649,8.336,8.2936,8.2675,8.1688,8.1107,8.0585,7.9917,8.0556,8.1397,8.1862,8.3749,8.6274,8.9322,8.8248,0.0,9.0803,8.8539,8.6506,8.6506,8.581,8.5316,8.5316,8.5752,8.5839,8.5374,8.5316,8.5113,8.462,8.52,8.549,8.5345,8.729,8.7871,8.6768,0.0,0.0,0.0,0.0,0.0,0.0,0.0,0.0,0.0,0.0,0.0,0.0,0.0,0.0,0.0,0.0,0.0,0.0,0.0,0.0,0.0,0.0,0.0,0.0,0.0,0.0,0.0,0.0,0.0,7.5766,7.6395,0.0,0.0,0.0,0.0,7.6913,7.8419,7.9035,7.7938,7.9167,7.9131,7.7362,7.803,7.8059,7.7362,7.803,7.8349,7.8349,7.8959,7.9598,8.0207,8.0817,8.1107,8.1136,8.1833,8.2123,8.2065,8.1397,8.1891,8.3157,8.2897,8.3936,8.5252,8.2765,8.1478,8.0688,7.8358,7.7537,7.7711,7.9017,8.1455,8.3923,8.4039,8.5374,0.0,0.0,8.4562,8.462,8.2733,8.2239,8.2239,8.2152,8.2123,8.192,8.1252,8.2559,8.3371,8.1601,8.2384,8.4155,8.6739,0.0,8.7058,8.7232,8.7581,8.7203,8.5403,8.5665,8.5984,8.5984,8.6013,8.6013,8.5984,8.5984,8.5955,8.5926,8.6536,8.6623,8.6013,8.6681,8.761,8.8713,8.8219,0.0,0.0,0.0,0.0,0.0,0.0,0.0,0.0,0.0,0.0,0.0,0.0,0.0,0.0,0.0,0.0,0.0,0.0,0.0,0.0,0.0,0.0,0.0,0.0,0.0,0.0,0.0,0.0,7.6425,7.677,0.0,7.8357,7.8242,7.8358,7.8826,7.8435,7.8109,7.7572,7.8569,7.8678,7.8059,7.864,7.9075,7.9249,7.9888,8.0207,8.0207,8.0846,8.1281,8.1543,8.2181,8.2471,8.25,8.3139,8.3662,8.4039,8.3807,8.3226,8.253,8.243,8.2488,8.2736,8.1425,8.0784,8.0335,7.9511,7.9511,7.9975,8.0875,8.25,8.401,8.3633,8.4271,8.491,8.3807,8.3691,8.372,8.3023,8.2849,8.2936,8.3313,8.34,8.3342,8.311,8.3952,8.4533,8.3836,8.4097,8.5084,8.7232,8.6565,8.6303,8.7958,8.7697,8.7087,8.639,8.7232,8.7871,8.7871,8.8219,8.8306,8.79,8.7493,8.7087,8.6681,8.7232,8.7116,8.6071,8.7435,8.7842,8.7058,8.7232,8.9061,0.0,0.0,0.0,0.0,0.0,0.0,0.0,0.0,0.0,0.0,0.0,0.0,0.0,0.0,0.0,0.0,0.0,0.0,0.0,0.0,0.0,0.0,0.0,0.0,0.0,7.5527,7.6544,7.724,7.7253,7.7766,7.9247,7.8385,7.8143,7.9072,7.8241,7.7827,7.803,7.8872,7.9336,7.9336,7.9946,8.0497,8.0933,8.1339,8.1659,8.1862,8.2326,8.2646,8.2849,8.3517,8.3952,8.4184,8.4794,8.5432,8.6071,8.6274,8.549,8.4097,8.3662,8.3081,8.2442,8.1804,8.131,8.0904,8.0672,8.102,8.163,8.2326,8.3226,8.401,8.3604,8.3923,8.4329,8.3952,8.3981,8.4097,8.3894,8.3836,8.3865,8.4039,8.4097,8.4097,8.4097,8.462,8.5142,8.5374,8.5578,8.6129,8.7377,8.6739,8.6913,8.9467,8.8568,8.7929,8.88,8.909,8.9206,8.9206,8.9584,8.9642,8.9235,8.9787,8.9642,8.8364,8.9467,8.9322,8.7377,8.9351,8.9787,8.8306,8.848,9.0048,9.298,0.0,0.0,0.0,0.0,0.0,0.0,0.0,0.0,0.0,0.0,0.0,0.0,0.0,0.0,0.0,0.0,0.0,0.0,0.0,0.0,0.0,0.0,0.0,7.6036,7.6485,7.7211,7.8031,7.7644,7.7502,7.8059,7.7528,7.7291,7.7478,7.8117,7.8756,7.9365,8.0556,8.1223,8.1252,8.1891,8.2239,8.2239,8.2268,8.2617,8.3255,8.3284,8.3575,8.4184,8.4823,8.5461,8.6071,8.6681,8.7319,8.7929,8.8568,8.8451,8.7813,8.6565,8.5694,8.5055,8.4387,8.3342,8.2152,8.1543,8.1746,8.2384,8.3052,8.3662,8.4155,8.4126,8.4591,8.5113,8.5084,8.5549,8.5897,8.5287,8.5142,8.4997,8.4387,8.4242,8.4271,8.43,8.4823,8.549,8.61,8.671,8.7145,8.7058,8.7581,8.8858,9.1354,9.0164,0.0,9.2399,9.1093,8.9961,9.0048,9.0077,9.0048,9.0019,9.2864,9.3532,9.0948,9.3125,9.3096,8.9961,9.2225,9.327,9.2632,9.2109,9.1209,8.9932,0.0,0.0,0.0,0.0,0.0,0.0,0.0,0.0,0.0,0.0,0.0,0.0,0.0,0.0,0.0,0.0,0.0,0.0,0.0,0.0,0.0,7.8579,7.7861,7.6724,7.7247,7.7759,7.7957,7.7917,7.8121,7.9094,7.8809,7.9143,8.0062,8.0323,8.0701,8.1368,8.1717,8.2152,8.2617,8.282,8.3139,8.3575,8.4039,8.4387,8.4562,8.5026,8.5345,8.549,8.5694,8.5868,8.6042,8.6216,8.6652,8.7261,8.7435,8.7668,8.79,8.7552,8.7029,8.6332,8.5229,8.43,8.3604,8.3923,8.4126,8.4329,8.4503,8.4997,8.5403,8.4968,8.5258,8.5665,8.52,8.5549,8.5984,8.581,8.61,8.6652,8.7377,8.79,8.8393,8.8858,8.9467,8.999,9.0164,9.0716,9.0542,8.8684,8.9293,9.028,9.0977,9.1412,9.1906,9.2632,9.2661,9.3328,9.5186,9.5389,9.5012,9.4083,9.4838,9.3851,9.0309,9.1209,9.1238,8.9874,9.0977,9.1296,9.0629,9.2283,9.298,0.0,0.0,0.0,0.0,0.0,0.0,0.0,0.0,0.0,0.0,0.0,0.0,0.0,0.0,0.0,0.0,0.0,0.0,0.0,0.0,0.0,0.0,7.9058,7.8639,7.816,7.8346,7.8325,7.8235,7.8625,7.9231,7.9906,8.0055,8.0527,8.1543,8.1862,8.221,8.2588,8.2849,8.3284,8.3952,8.3981,8.4271,8.491,8.5287,8.549,8.549,8.5868,8.6042,8.6042,8.6594,8.6971,8.7261,8.7813,8.8248,8.8597,8.8597,8.8626,8.8684,0.0,0.0,0.0,0.0,8.6042,8.5752,8.6158,8.6274,8.6274,8.6274,8.6536,8.6768,8.639,8.671,8.7145,8.6768,8.7319,8.8045,8.8045,8.8509,8.9177,8.9903,9.0367,9.0745,9.1122,9.1732,9.2167,9.2167,9.269,0.0,9.1151,9.1499,9.237,9.3473,9.3328,9.3502,9.4577,9.388,9.3851,9.5331,9.5244,9.4809,9.4054,9.5215,0.0,0.0,0.0,9.3038,9.2632,9.2748,0.0,0.0,0.0,9.3822,9.2486,9.3299,0.0,0.0,9.0454,8.9903,0.0,0.0,0.0,0.0,0.0,0.0,0.0,0.0,0.0,0.0,0.0,0.0,0.0,0.0,0.0,0.0,7.8998,7.9178,7.9926,7.9507,7.9096,7.904,7.9859,8.058,8.0714,8.1107,8.1688,8.2355,8.3023,8.34,8.34,8.3981,0.0,0.0,0.0,8.5461,8.6013,8.61,8.6187,8.6245,8.6303,8.639,8.6506,8.7639,8.8393,8.8945,9.0106,9.0571,9.0483,9.0483,9.0193,8.9671,8.9177,8.8626,8.8132,8.8132,8.8132,8.8132,8.8132,0.0,0.0,8.8132,8.819,8.8248,8.8248,8.8713,8.9206,8.9206,9.0048,9.0948,9.1006,9.1441,9.1906,9.2051,9.208,9.2109,9.2196,9.2661,9.3009,9.2951,9.3386,9.3764,9.3677,9.3735,9.4548,9.6841,9.5302,9.4722,9.6986,9.4809,9.3154,9.3444,9.298,0.0,9.2428,9.507,9.5564,9.2893,9.4896,9.6115,9.597,9.5476,9.5476,9.6057,9.5476,9.3851,9.1151,9.0454,9.0135,9.0193,9.1703,9.1151,0.0,0.0,0.0,0.0,0.0,0.0,0.0,0.0,0.0,0.0,0.0,0.0,0.0,0.0,0.0,8.1183,8.0315,8.0045,8.1242,8.1272,8.1303,8.1354,8.1166,8.1629,8.2985,8.2895,8.3052,8.3691,8.4329,8.4707,8.4707,8.5316,8.5723,8.5839,8.5868,8.5897,8.6042,8.6536,8.7058,8.7581,8.8074,0.0,8.909,8.9351,8.9235,8.8887,8.9148,8.8974,8.848,8.848,8.8713,8.909,8.9496,8.9555,8.9467,8.9467,8.9467,8.9467,8.9467,8.9467,8.9467,8.9467,8.9816,9.0251,9.0251,9.0716,0.0,9.1209,9.1383,9.1703,9.2225,9.2428,9.2777,9.3822,9.4054,9.4199,9.4751,9.4954,9.4896,9.4344,9.4344,9.4257,9.3764,9.4083,9.4606,9.5099,9.5215,9.5418,9.5912,9.5418,9.5825,9.7886,9.8002,9.7508,9.6492,9.7392,9.6522,9.2951,9.3648,9.3764,9.2719,9.2574,9.2806,9.3444,9.2835,9.2719,9.3125,9.2486,9.2167,9.2138,9.0948,9.0106,0.0,0.0,0.0,0.0,0.0,0.0,0.0,0.0,0.0,0.0,0.0,8.4418,8.271,0.0,8.2219,8.1871,8.1242,8.1272,8.2589,8.2465,8.2278,8.2296,8.2262,8.2547,8.3407,8.3913,8.4271,8.4562,8.52,8.5549,8.5549,8.5868,8.6187,8.6506,8.6506,8.6652,8.6971,8.761,8.8074,8.8422,8.9061,8.9351,8.9351,8.9671,8.9467,8.8887,8.9206,8.9177,8.8887,8.8887,8.9061,8.938,8.97,9.0019,9.0309,9.0309,9.0513,9.0832,9.1151,9.1267,9.1325,9.1645,9.1964,9.2254,9.2254,9.2457,9.2719,9.2719,9.2951,9.327,9.359,9.3909,9.4315,9.4954,9.4867,9.4693,9.5041,9.5099,9.5012,9.4693,9.4606,9.4519,9.4199,9.4402,9.4519,9.4199,9.4693,9.5099,9.5099,9.5099,9.5593,9.687,9.6725,9.6289,9.5651,9.5854,9.5215,9.3299,9.3473,9.3532,9.3212,9.3183,9.3502,9.4141,9.3532,9.3502,9.4141,9.3502,9.3183,9.3183,9.2196,9.1238,0.0,0.0,0.0,0.0,0.0,0.0,0.0,8.6938,8.5842,8.2436,8.4152,8.5245,8.1977,8.2602,8.338,8.226,8.217,8.2559,8.3756,8.3407,8.3057,8.3047,8.336,8.3628,8.3487,8.4591,8.5258,8.5258,8.5868,8.6216,8.6216,8.6448,8.6826,8.7348,8.7464,8.7784,8.8277,8.8684,8.8945,8.9061,8.9584,8.9613,8.9264,8.9903,8.9845,8.9264,8.9671,8.9816,8.9816,8.9816,8.9816,8.9816,8.9816,9.0222,9.0832,9.0832,9.1209,9.1877,9.2486,9.2719,9.2835,9.3473,9.3764,9.3851,9.3851,9.3938,9.4054,9.4054,9.4402,9.478,9.4635,9.5012,9.5389,9.5273,9.4809,9.4431,9.4431,9.4431,9.4431,9.4431,9.4431,9.4431,9.4431,9.4519,9.4431,9.3938,9.4402,9.4809,9.4809,9.4809,9.4809,9.4809,9.4344,9.4054,9.4054,9.4054,9.3996,9.3851,9.3851,9.4025,9.4402,9.4431,9.4751,9.5389,9.4896,9.4722,9.4983,9.446,9.4286,9.4402,9.4402,9.3328,8.851,8.9529,9.1598,9.5259,9.3611,9.0937,0.0,8.8529,8.6084,8.5595,8.4415,8.3468,8.3501,8.3183,8.298,8.3427,8.3517,8.3786,8.4504,8.4947,8.5229,8.5023,8.4491,8.4291,8.4823,8.552,8.5926,8.5926,8.6506,8.6884,8.6884,8.7958,8.8597,8.8655,8.9206,8.9526,8.9613,8.9119,8.9148,8.9729,8.9787,9.0106,9.0629,9.1267,9.1209,9.0571,9.0048,8.9816,8.9816,8.9816,8.9816,8.9816,8.9816,9.0222,9.0832,9.0832,9.1209,9.1877,9.2486,9.2719,9.2835,9.3473,9.4054,9.4519,9.4519,9.4925,9.5389,9.5389,9.5447,9.536,9.4751,9.4664,9.4577,9.4025,9.3822,9.3764,9.3764,9.3764,9.3764,9.3764,9.3764,9.3764,9.3764,9.4257,9.4577,9.4519,9.507,9.5505,9.5505,9.5505,9.5505,9.5505,9.5447,9.5389,9.5389,9.5389,9.5128,9.4548,9.4519,9.4286,9.3793,9.3764,9.4083,9.4722,9.4635,9.5157,9.6289,9.6231,9.6492,9.7073,9.7073,9.5738,9.191,9.2801,9.4316,9.7493,9.6463,9.4485,9.4343,9.2263,8.9956,8.7963,8.7428,8.6736,8.4833,8.4948,8.5066,8.4422,8.4624,8.5103,8.5761,8.6261,8.6437,8.6438,8.6706,8.6467,8.5694,8.6536,8.7145,8.7145,8.8074,8.8626,8.8626,8.9119,8.9409,8.9409,8.9671,8.9816,8.9816,8.9961,9.0135,9.0425,9.0774,9.0919,9.0832,9.1093,9.0861,9.0251,9.0367,9.0396,9.0425,9.0803,9.0948,9.0948,9.0948,9.1122,9.1325,9.0948,9.1209,9.1877,9.2486,9.2719,9.2835,9.3473,9.3851,9.4054,9.4054,9.4257,9.4548,9.4925,9.5302,9.5622,9.5709,9.5999,9.6231,9.597,9.5593,9.5331,9.5331,9.5331,9.5331,9.5331,9.5622,9.5912,9.5912,9.6115,9.6289,9.6289,9.6202,9.6144,9.6144,9.6463,9.6725,9.6725,9.6725,9.6725,9.6725,9.6725,9.6434,9.5767,9.5709,9.5447,9.4809,9.4809,9.4925,9.5186,9.5186,9.5447,9.597,9.597,9.6318,9.6928,9.6928,9.6551,9.5477,9.6221,9.6985,9.9816,9.8953,9.734,9.6597,9.4847,9.2668,9.0235,8.9928,8.9445,8.6963,8.6945,8.6969,8.5819,8.5834,8.621,8.6868,8.7354,8.7803,8.793,8.8833,8.8763,8.7345,8.79,8.8451,8.8451,8.9293,8.9816,8.9816,8.999,9.0106,9.0106,9.028,9.0367,9.0367,9.0658,9.0832,9.0832,9.1296,9.1267,9.0832,9.1006,9.0803,9.0396,9.1064,9.1354,9.1383,9.2022,9.2283,9.2283,9.2283,9.2283,9.2254,9.179,9.179,9.2138,9.2951,9.3357,9.3619,9.4257,9.4577,9.4693,9.4519,9.4577,9.478,9.5041,9.5622,9.6202,9.6434,9.687,9.7189,9.7015,9.6609,9.626,9.626,9.626,9.6318,9.6463,9.6899,9.7276,9.7479,9.7654,9.7741,9.7741,9.7508,9.716,9.6812,9.7218,9.7508,9.7508,9.7508,9.7508,9.7508,9.7508,9.7305,9.6812,9.6783,9.658,9.6144,9.6144,9.6144,9.6144,9.6144,9.6202,9.6376,9.6376,9.6696,9.7305,9.7305,9.7567,9.9442,9.9484,9.9311,10.2645,10.1335,9.8883,9.7459,9.4842,9.2755,9.2554,9.0949,8.9685,9.024,8.9066,8.7881,8.7943,8.7213,8.6898,8.7586,8.8783,8.9666,8.9823,9.07,9.0952,9.0401,8.9905,8.9758,8.9758,8.9787,8.9816,8.9816,9.0425,9.0803,9.0803,9.1383,9.1703,9.1703,9.1122,9.0832,9.0832,9.0832,9.0832,9.0832,9.147,9.1732,9.1732,9.2399,9.2661,9.2719,9.3357,9.3619,9.3619,9.3619,9.3619,9.3619,9.359,9.3212,9.2864,9.4112,9.4983,9.5622,9.6231,9.687,9.7276,9.6609,9.687,9.7247,9.6638,9.6928,9.7305,9.6667,9.6522,9.6376,9.5825,9.5651,9.5651,9.5651,9.5651,9.5825,9.6405,9.6522,9.6754,9.7392,9.8002,9.8379,9.8379,9.8902,9.8873,9.7625,9.7508,9.7508,9.7508,9.7508,9.7508,9.7508,9.7508,9.7508,9.7479,9.7479,9.7479,9.745,9.745,9.745,9.745,9.745,9.7741,9.8321,9.8321,9.867,9.9308,9.9308,9.9308,9.8689,9.9406,9.9836,10.1042,10.1004,10.0606,10.0109,9.8547,9.7052,9.7052,9.5164,9.3402,9.3089,9.2592,9.1571,8.9523,8.9311,8.9432,8.9065,8.9771,9.0562,9.113,9.1677,9.1862,9.1688,9.0986,9.0483,9.0483,9.1267,9.1558,9.1151,9.1732,9.1877,9.147,9.1674,9.1761,9.1761,9.1558,9.1441,9.147,9.1877,9.208,9.2109,9.2748,9.3038,9.3038,9.3241,9.3357,9.3357,9.359,9.3677,9.3677,9.3677,9.3677,9.3706,9.4141,9.4141,9.3967,9.3967,9.4141,9.4431,9.5041,9.5389,9.5622,9.5854,9.6057,9.6289,9.6463,9.6986,9.7538,9.7712,9.8089,9.8379,9.8176,9.8118,9.8118,9.8118,9.8118,9.8176,9.8379,9.8437,9.8495,9.8728,9.8931,9.9076,9.9076,9.925,9.925,9.8815,9.8757,9.8757,9.8757,9.8757,9.8757,9.8757,9.8757,9.8583,9.8118,9.8089,9.7915,9.7508,9.7508,9.7508,9.7508,9.7508,9.7596,9.7799,9.7799,9.8118,9.8728,9.8728,9.896,9.9514,10.001,10.0393,10.0588,10.1037,10.1335,10.1103,10.0308,9.9712,9.9977,9.8306,9.6545,9.6338,9.5003,9.3406,9.2164,9.1739,9.1527,9.1134,9.1835,9.2384,9.2572,9.2887,9.307,9.2894,9.2363,9.1771,9.1359,9.229,9.261,9.179,9.2167,9.2196,9.179,9.1761,9.1761,9.1761,9.1993,9.2225,9.2457,9.2864,9.3067,9.3067,9.3473,9.3677,9.3677,9.3909,9.3996,9.4025,9.4489,9.4693,9.4693,9.4693,9.4838,9.507,9.5215,9.5302,9.5215,9.4809,9.4838,9.5157,9.5767,9.6115,9.6347,9.6551,9.6783,9.6986,9.7131,9.7654,9.8263,9.867,9.9076,9.9395,9.9395,9.9395,9.9395,9.9395,9.9395,9.9395,9.9395,9.9395,9.9395,9.9395,9.9395,9.9395,9.9395,9.9395,9.9395,9.9395,9.9395,9.9395,9.9395,9.9395,9.9395,9.9395,9.9395,9.9221,9.8786,9.8757,9.8583,9.8205,9.8176,9.8176,9.8176,9.8176,9.8176,9.8176,9.8176,9.8379,9.8757,9.8757,9.8989,10.1428,10.144,10.1043,10.124,10.1296,10.1064,10.054,10.0407,10.0639,10.1263,10.0027,9.9094,9.9752,9.6272,9.3976,9.5557,9.4153,9.2963,9.3421,9.4678,9.5067,9.384,9.445,9.4695,9.4162,9.4162,9.3718,9.2715,9.3034,9.2942,9.179,9.179,9.179,9.1761,9.179,9.1819,9.1819,9.2457,9.3067,9.3677,9.3706,9.3706,9.3706,9.3793,9.3822,9.3851,9.4489,9.4751,9.4867,9.6057,9.6551,9.6551,9.6551,9.6957,9.7421,9.6783,9.6551,9.6551,9.6609,9.6986,9.7567,9.8205,9.8844,9.925,9.8641,9.8902,9.9279,9.8641,9.8902,9.9395,9.9395,9.9395,9.9395,9.9395,9.9395,9.9395,9.9395,9.9395,9.9395,9.9395,9.9395,9.9395,9.9395,9.9395,9.9395,9.9395,9.9395,9.9395,9.9395,9.9395,9.9395,9.9395,9.9395,9.9395,9.9395,9.9395,9.9395,9.9395,9.9395,9.9395,9.9395,9.9395,9.9395,9.9395,9.9395,9.9395,9.9395,9.9395,9.9395,9.9395,9.9395,9.9395,9.9602,9.9377,9.9695,10.0182,9.9968,9.9962,10.1586,10.1534,10.1248,10.1743,10.0459,9.9515,10.0484,9.9524,9.7976,9.5952,9.6059,9.5469,9.3132,9.402,9.4917,9.5067,9.5016,9.5049,9.5225,9.4872,9.4252,9.3071,9.3243,9.3151,9.2329,9.2406,9.2254,9.179,9.2225,9.2486,9.2486,9.3096,9.3502,9.3677,9.4141,9.4373,9.4402,9.536,9.5796,9.5825,9.6492,9.6754,9.6783,9.7102,9.7247,9.7247,9.7247,9.7363,9.7479,9.7305,9.7247,9.7305,9.777,9.7421,9.6928,9.8031,9.8525,9.8728,9.9047,9.925,9.9366,9.9192,9.9279,9.9395,9.9395,9.9395,9.9395,9.9395,9.9395,9.9395,9.9395,9.9395,9.9395,9.9395,9.9395,9.9395,9.9395,9.9395,9.9395,9.9395,9.9395,9.9395,9.9395,9.9395,9.9395,9.9395,9.9395,9.9395,9.9395,9.9395,9.9395,9.9395,9.9395,9.9395,9.9395,9.9395,9.9395,9.9395,9.9395,9.9395,9.9395,9.9395,9.9395,9.9395,9.9395,9.9395,9.9784,9.9874,10.0105,10.053,10.0792,10.1152,10.2082,10.1951,10.1776,10.216,10.0872,10.006,10.121,10.0594,9.951,9.8622,9.836,9.7783,9.6159,9.6159,9.6354,9.6414,9.5998,9.5762,9.606,9.5553,9.5019,9.4399,9.3924,9.3331,9.215,9.2552,9.2545,9.2196,9.2806,9.327,9.3532,9.3909,9.4228,9.4519,9.4867,9.5041,9.507,9.5796,9.626,9.6522,9.6899,9.7247,9.7538,9.8118,9.835,9.835,9.867,9.8931,9.9134,9.8873,9.8786,9.8873,9.9453,9.9018,9.8292,9.8699,9.8844,9.8902,9.9279,9.9395,9.9395,9.9395,9.9395,9.9395,9.9395,9.9395,9.9395,9.9395,9.9395,9.9395,9.9395,9.9395,9.9395,9.9395,9.9395,9.9395,9.9395,9.9395,9.9395,9.9395,9.9395,9.9395,9.9395,9.9395,9.9395,9.9395,9.9395,9.9395,9.9395,9.9395,9.9395,9.9395,9.9395,9.9395,9.9395,9.9395,9.9395,9.9395,9.9395,9.9395,9.9395,9.9395,9.9395,9.9395,9.9395,9.9395,10.0836,10.1124,10.1124,10.1322,10.2313,10.304,10.2387,10.228,10.2372,10.2512,10.129,10.0526,10.1762,10.0711,10.0286,10.159,10.0735,9.9686,9.9856,9.9238,9.8538,9.77,9.7012,9.6685,9.7043,9.6237,9.5669,9.5793,9.4962,9.3836,9.2412,9.2726,9.3046,9.3133,9.3502,9.4083,9.4722,9.4751,9.5041,9.5622,9.5622,9.5622,9.5622,9.568,9.6057,9.6638,9.6725,9.7189,9.7973,9.9076,9.957,9.9715,10.0295,10.0818,10.1195,10.0702,10.0498,10.0586,10.1108,10.0992,10.0411,9.9831,9.9657,9.9657,9.9657,9.9599,9.9541,9.9628,9.9541,9.9424,9.9512,9.9482,9.9395,9.9395,9.9395,9.9395,9.9395,9.9395,9.9395,9.9395,9.9395,9.9395,9.9395,9.9395,9.9395,9.9395,9.9395,9.9395,9.9395,9.9482,9.9541,9.9541,9.9599,9.9657,9.9657,9.9657,9.9657,9.9657,9.9657,9.9628,9.9541,9.9541,9.9482,9.9395,9.9395,9.9395,9.9395,9.9395,9.9395,9.9395,9.9395,9.9395,9.948,9.9433,9.9726,10.093,10.1418,10.192,10.3315,10.3315,10.287,10.2983,10.2195,10.1708,10.23,10.2758,10.2697,10.1437,10.2219,10.1941,9.8854,9.9238,9.9526,9.8449,9.7281,9.7042,9.8059,9.6683,9.5669,9.5763,9.5704,9.5407,9.511,9.484,9.4983,9.5542,9.4743,9.4937,9.5949,9.5606,9.5505,9.5622,9.5622,9.5622,9.5622,9.6115,9.6696,9.7363,9.7857,9.8757,9.9918,10.0121,10.0498,10.0992,10.1108,10.1195,10.1282,10.1195,10.1108,10.1166,10.1282,10.1195,10.1108,10.0992,10.0992,10.0992,10.0992,10.0615,10.0324,10.0818,10.0208,9.9541,10.0092,9.9802,9.9395,9.9395,9.9395,9.9395,9.9395,9.9395,9.9395,9.9395,9.9395,9.9395,9.9395,9.9395,9.9395,9.9395,9.9395,9.9395,9.9395,9.9889,10.0208,10.0208,10.0673,10.0992,10.0992,10.0992,10.0992,10.0992,10.0992,10.0731,10.0208,10.0208,9.9976,9.9424,9.9395,9.9395,9.9395,9.9395,9.9395,9.9395,9.9395,9.9395,9.9602,10.0182,10.0935,10.1656,10.2639,10.357,10.3768,10.3515,10.3213,10.2752,10.2183,10.2093,10.2825,10.3214,10.3403,10.3188,10.3136,10.2523,10.0395,10.0194,9.9996,9.9558,9.8059,9.7581,9.8897,9.7252,9.6354,9.6626,9.6656,9.615,9.5105,9.4855,9.517,9.5843,9.5315,9.546,9.5967,9.578,9.5622,9.5622,9.5622,9.5622,9.5622,9.6231,9.7044,9.8002,9.8641,9.9657,10.0905,10.1224,10.1573,10.1863,10.2182,10.2298,10.2298,10.2298,10.2298,10.2298,10.2298,10.2298,10.2298,10.2298,10.1805,10.1282,10.1282,10.1108,10.0905,10.1195,10.0876,10.0469,10.0789,10.0615,10.0382,10.0382,10.0121,9.9918,9.9918,9.9657,9.9395,9.9395,9.9395,9.9395,9.9395,9.9395,9.9395,9.9395,9.9395,9.9395,9.9395,9.9976,10.0411,10.0411,10.0905,10.1282,10.1282,10.1282,10.1282,10.1282,10.1282,10.1166,10.0876,10.0876,10.0702,10.0382,10.0092,9.9918,9.9918,9.957,9.9395,9.9395,9.9395,9.9395,9.9977,10.1302,10.2527,10.2527,10.4018,10.5343,10.4442,10.3946,10.3631,10.3153,10.2442,10.1979,10.3027,10.3212,10.3542,10.4545,10.4257,10.343,10.2133,10.1456,10.0975,10.0667,9.8927,9.8359,9.9975,9.8239,9.7252,9.788,9.779,9.6953,9.5366,9.5287,9.5599,9.6125,9.5967,9.5967,9.5967,9.578,9.578,9.5622,9.5622,9.5622,9.5651,9.6376,9.7334,9.8437,9.925,10.0324,10.1573,10.2095,10.2385,10.2502,10.2995,10.3198,10.3198,10.3198,10.3198,10.3198,10.3198,10.3198,10.3198,10.3198,10.2502,10.1689,10.1689,10.1602,10.1515,10.1689,10.1485,10.1311,10.1485,10.1398,10.1282,10.1282,10.0905,10.0586,10.0586,10.0179,9.9802,9.9802,9.9802,9.9802,9.9802,9.9802,9.9802,9.9802,9.9802,9.9802,9.9802,10.0382,10.0789,10.0789,10.1195,10.1573,10.1689,10.1689,10.1689,10.1689,10.1689,10.1602,10.1515,10.1485,10.1427,10.1282,10.0818,10.0586,10.0586,9.9918,9.9599,9.9599,9.9482,9.9395,9.9513,10.0904,10.2527,10.2527,10.3687,10.5042,10.5955,10.4791,10.3967,10.4836,10.3638,10.2398,10.2578,10.3545,10.4169,10.4059,10.6135,10.6258,10.2451,10.2942,10.3237,10.1536,9.9615,9.9436,10.1979,9.9855,9.8628,9.9256,9.8385,9.7846,9.8149,9.7664,9.7724,9.8147,9.7418,9.6866,9.6866,9.6496,9.5938,9.5622,9.5622,9.5622,9.5651,9.687,9.777,9.8466,9.9744,10.1021,10.2211,10.2298,10.2618,10.3111,10.3169,10.3198,10.3198,10.3198,10.3198,10.3198,10.3198,10.3198,10.3198,10.3198,10.3111,10.2995,10.2995,10.2618,10.2298,10.2879,10.2182,10.1427,10.2066,10.1776,10.1282,10.1282,10.1282,10.1195,10.1195,10.1166,10.1108,10.1108,10.1108,10.1108,10.1108,10.1108,10.1108,10.1108,10.1108,10.1108,10.1108,10.1689,10.2095,10.2095,10.2182,10.2414,10.2966,10.2995,10.2995,10.2995,10.2995,10.2792,10.2211,10.2211,10.1892,10.1311,10.1224,10.1195,10.1195,10.0586,10.0295,10.0295,9.9686,9.9395,9.948,10.0904,10.2527,10.2527,10.4316,10.577,10.4825,10.4775,10.4632,10.3852,10.2688,10.2099,10.2907,10.3176,10.3545,10.4688,10.5987,10.6111,10.385,10.4827,10.5193,10.2855,10.192,10.174,10.2398,10.0812,9.9645,9.9526,9.8716,9.8328,9.8508,9.7418,9.7051,9.7601,9.6866,9.6682,9.7051,9.6467,9.6125,9.5967,9.6158,9.6347,9.6783,9.806,9.9192,10.0208,10.1108,10.2008,10.2821,10.2821,10.2995,10.3198,10.3198,10.3198,10.3198,10.3198,10.3198,10.3198,10.3198,10.3198,10.3198,10.3198,10.3198,10.3198,10.3198,10.2995,10.2879,10.3111,10.2792,10.2502,10.2792,10.2618,10.2414,10.2414,10.2182,10.1892,10.1892,10.1602,10.1282,10.1282,10.1282,10.1282,10.1282,10.1282,10.1282,10.1282,10.1282,10.1282,10.1282,10.1515,10.1863,10.2269,10.2618,10.2908,10.3169,10.3198,10.3198,10.3198,10.3198,10.3082,10.2879,10.2821,10.2705,10.2414,10.2095,10.1892,10.1892,10.0905,10.0411,10.0382,9.9715,9.9395,10.0308,10.1202,10.2296,10.2726,10.425,10.5535,10.4569,10.5054,10.5352,10.3852,10.2756,10.233,10.3117,10.2907,10.3087,10.4822,10.5904,10.6068,10.4894,10.5964,10.6311,10.4834,10.4613,10.4313,10.3715,10.2099,10.0603,9.9586,9.9769,9.9438,9.8538,9.7906,9.7541,9.7418,9.7051,9.7051,9.7051,9.6652,9.6311,9.6154,9.6391,9.6754,9.7276,9.8931,10.0179,10.1079,10.2095,10.2792,10.3198,10.3198,10.3198,10.3198,10.3198,10.3198,10.3198,10.3198,10.3198,10.3198,10.3198,10.3198,10.3198,10.3198,10.3198,10.3198,10.3198,10.3198,10.3198,10.3198,10.3198,10.3198,10.3198,10.3198,10.3198,10.3198,10.2879,10.2589,10.2589,10.2182,10.1863,10.1863,10.1863,10.1863,10.1863,10.1863,10.1863,10.1863,10.1863,10.1863,10.1863,10.1863,10.2008,10.2502,10.2908,10.3198,10.3198,10.3198,10.3198,10.3198,10.3198,10.3198,10.3198,10.3198,10.3198,10.3198,10.2792,10.2472,10.2298,10.1195,10.0586,10.0382,9.9715,9.9395,10.2296,10.1997,10.1799,10.319,10.3458,10.3671,10.5773,10.6039,10.5851,10.6125,10.4596,10.3263,10.3403,10.2907,10.2907,10.4194,10.6079,10.6887,10.56,10.5989,10.6588,10.7276,10.7366,10.7096,10.6408,10.4014,10.168,9.9645,10.1781,10.1715,9.8598,9.9608,9.9784,9.8508,9.8508,9.7965,9.7051,9.7051,9.6496,9.5622,9.6202,9.6492,9.6609,9.9192,10.0411,10.0498,10.2385,10.3198,10.3198,10.3198,10.3198,10.3198,10.3198,10.3198,10.3198,10.3198,10.3198,10.3198,10.3198,10.3198,10.3198,10.3198,10.3198,10.3198,10.3198,10.3198,10.3198,10.3198,10.3198,10.3198,10.3198,10.3198,10.3198,10.3198,10.3198,10.3198,10.3198,10.3198,10.3169,10.3169,10.3169,10.3169,10.3169,10.3169,10.3169,10.3169,10.3169,10.3169,10.3169,10.3169,10.3169,10.3198,10.3198,10.3198,10.3198,10.3198,10.3198,10.3198,10.3198,10.3198,10.3198,10.3198,10.3198,10.3198,10.3198,10.2879,10.2298,10.1602,10.0992,10.0382,9.9715,9.9395,10.3488,10.3819,10.4614,10.5608,10.583,10.5813,10.5334,10.5885,10.5962,10.3518,10.3118,10.3171,10.2832,10.4059,10.4978,10.4444,10.6781,10.8163,10.6932,10.7306,10.7665,10.7396,10.6199,10.4912,10.3805,10.2997,10.2748,10.3454,10.2941,10.2638,10.2447,10.1668,10.0582,9.9226,9.8385,9.8199,9.8905,9.849,9.8357,9.8708,9.8944,9.9512,10.0417,10.1306,10.1892,10.2327,10.2908,10.3198,10.3198,10.3198,10.3198,10.3198,10.3198,10.3198,10.3198,10.3198,10.3198,10.3198,10.3198,10.3198,10.3198,10.3198,10.3198,10.3198,10.3198,10.3198,10.3198,10.3198,10.3198,10.3198,10.3198,10.3198,10.3198,10.3198,10.3198,10.3198,10.3198,10.3198,10.3198,10.3198,10.3198,10.3198,10.3198,10.3198,10.3198,10.3198,10.3198,10.3198,10.3198,10.3198,10.3198,10.3198,10.3198,10.3198,10.3198,10.3198,10.3198,10.3198,10.3198,10.3198,10.3198,10.3198,10.3198,10.3198,10.3198,10.3082,10.2908,10.2298,10.1631,10.0992,10.0789,10.0702,10.5509,10.531,10.5608,10.6602,10.6615,10.6423,10.5496,10.6737,10.7111,10.4325,10.4891,10.5115,10.4157,10.5769,10.6624,10.4634,10.807,11.014,10.88,10.908,10.9248,10.8371,10.6378,10.4912,10.4403,10.435,10.4674,10.5612,10.5465,10.5039,10.4627,10.3304,10.1878,10.0663,9.9369,9.9096,9.9371,9.8957,9.9007,9.9456,9.9763,10.0388,10.1401,10.1946,10.2502,10.2879,10.3082,10.3198,0.0,10.3198,10.3198,10.3198,10.3198,10.3198,10.3198,10.3198,10.3198,10.3198,10.3198,10.3198,10.3198,10.3198,10.3198,10.3198,10.3198,10.3198,10.3198,10.3198,10.3198,10.3198,10.3198,10.3198,10.3198,10.3198,10.3198,10.3198,10.3198,10.3198,10.3198,10.3198,10.3198,10.3198,10.3198,10.3198,10.3198,10.3198,10.3198,10.3198,10.3198,10.3198,10.3198,10.3198,10.3198,10.3198,10.3198,10.3198,10.3198,10.3198,10.3198,10.3198,10.3198,10.3198,10.3198,10.3198,10.3198,10.3082,10.2879,10.2211,10.1689,10.1282,10.1282,10.1282,0.0,10.6602,10.5376,10.6801,10.6124,10.5449,10.6128,10.8066,0.0,10.7977,10.8633,10.8996,10.6723,10.7919,10.8232,10.5171,10.9429,11.2564,11.0324,11.0879,11.0827,10.9728,10.7848,10.6917,10.7532,10.7513,10.7179,10.6412,10.8586,10.8545,10.5699,10.4663,10.373,10.2638,10.1381,10.0108,9.9232,9.9173,9.9044,9.8812,9.9435,9.9989,10.0524,10.1714,10.2356,10.2385,10.2966,10.3198,10.3198,10.3198,10.3198,10.3198,10.3198,10.3198,10.3198,10.3198,10.3198,10.3198,10.3198,10.3198,10.3198,10.3198,10.3198,10.3198,10.3198,10.3198,10.3198,10.3198,10.3198,10.3198,10.3198,10.3198,10.3198,10.3198,10.3198,10.3198,10.3198,10.3198,10.3198,10.3198,10.3198,10.3198,10.3198,10.3198,10.3198,10.3198,10.3198,10.3256,10.3198,10.3198,10.3256,10.3198,10.3198,10.3198,10.3198,10.3198,10.3198,10.3198,10.3198,10.3198,10.3198,10.3198,10.3198,10.3198,10.3198,10.2908,10.2385,10.1718,10.1398,10.1398,10.1398,10.1398,10.8722,0.0,10.8292,10.9186,10.8142,10.684,0.0,10.8034,10.836,10.6677,10.819,10.9229,10.7845,10.9949,11.0713,10.7029,11.1421,11.3979,10.9893,11.0877,11.1982,11.2273,11.0555,10.9237,10.976,10.9512,10.8899,10.7919,10.875,10.8965,10.7796,10.5977,10.4634,10.3984,10.3176,10.235,10.1781,10.1685,10.2221,10.31,10.3396,10.3419,10.3693,10.3537,10.3399,10.2995,10.3111,10.3198,10.3198,10.3198,10.3198,10.3198,10.3198,10.3198,10.3198,10.3198,10.3198,10.3198,10.3198,10.3198,10.3198,10.3198,10.3198,10.3198,10.3198,10.3198,10.3198,10.3198,10.3198,10.3198,10.3198,10.3198,10.3198,10.3198,10.3198,10.3198,10.3198,10.3198,10.3198,10.3198,10.3198,10.3198,10.3198,10.3198,10.3198,10.3198,10.3605,10.3779,10.3285,10.3605,10.3779,10.3256,10.3198,10.3198,10.3198,10.3198,10.3198,10.3198,10.3198,10.3198,10.3198,10.3198,10.3198,10.3198,10.3198,10.3111,10.2995,10.2792,10.2763,10.2763,10.2763,10.2763,10.8921,10.8888,10.8788,10.9484,10.8784,10.7793,10.8087,10.897,10.9566,10.8519,11.0135,11.1499,11.0473,11.2049,11.2762,11.0383,11.365,11.5691,11.36,11.4803,11.5223,11.3441,11.2302,11.1264,11.093,11.1036,11.0972,11.0031,11.0498,11.0044,10.8721,10.7574,10.6168,10.4882,10.5111,10.4561,10.316,10.2887,10.3024,10.4169,10.4106,10.4235,10.4786,10.4088,10.3574,10.3603,10.3401,10.3198,10.3198,10.3198,10.3198,10.3198,10.3198,10.3198,10.3198,10.3198,10.3198,10.3198,10.3198,10.3198,10.3198,10.3198,10.3198,10.3198,10.3198,10.3198,10.3198,10.3198,10.3198,10.3198,10.3198,10.3198,10.3198,10.3198,10.3198,10.3198,10.3198,10.3198,10.3198,10.3198,10.3198,10.3198,10.3198,10.3198,10.3198,10.3198,10.3779,10.4069,10.3692,10.3982,10.4069,10.3692,10.3372,10.3198,10.3198,10.3198,10.3198,10.3198,10.3198,10.3198,10.3198,10.3198,10.3198,10.3198,10.3198,10.3198,10.3198,10.3198,10.3198,10.3198,10.3198,10.3198,10.8921,10.849,10.8093,10.902,10.8722,10.8391,10.912,11.0379,11.1306,11.1207,11.2996,11.4148,11.2933,11.3901,11.443,11.3373,11.5009,11.6824,11.8047,11.9112,11.8461,11.4665,11.3947,11.3229,11.2115,11.2738,11.2906,11.1852,11.227,11.1589,10.9461,10.9059,10.8042,10.647,10.7058,10.6536,10.4511,10.3692,10.3308,10.3991,10.3516,10.3811,10.4598,10.3742,10.3574,10.4005,10.3574,10.3198,10.3198,10.3198,10.3198,10.3198,10.3198,10.3198,10.3198,10.3198,10.3198,10.3198,10.3198,10.3198,10.3198,10.3198,10.3198,10.3198,10.3198,10.3198,10.3198,10.3198,10.3198,10.3198,10.3198,10.3198,10.3198,10.3198,10.3198,10.3198,10.3198,10.3198,10.3198,10.3198,10.3198,10.3198,10.3198,10.3285,10.3372,10.3372,10.3982,10.4475,10.4359,10.4301,10.4301,10.4185,10.3576,10.3198,10.3198,10.3198,10.3198,10.3198,10.3198,10.3198,10.3198,10.3198,10.3198,10.3198,10.3198,10.3198,10.3198,10.3198,10.3198,10.3198,10.3198,10.3198,10.9087,10.8126,10.7496,10.9484,10.9484,10.912,10.9882,11.1107,11.2002,11.1306,11.2996,11.4032,11.2719,11.4595,11.5604,11.321,11.4154,11.5803,11.7514,11.7576,11.748,11.791,11.6364,11.5546,11.6153,11.5546,11.3775,11.0075,11.2623,11.3006,10.9492,11.0742,11.14,11.1041,10.9179,10.8166,10.8407,10.6128,10.5063,10.5298,10.5191,10.5082,10.4885,10.4546,10.4435,10.4005,10.3976,10.3574,10.3198,10.3198,10.3198,10.3198,10.3198,10.3198,10.3198,10.3198,10.3198,10.3198,10.3198,10.3198,10.3198,10.3198,10.3198,10.3198,10.3198,10.3198,10.3198,10.3198,10.3198,10.3198,10.3198,10.3198,10.3198,10.3198,10.3198,10.3198,10.3198,10.3198,10.3198,10.3198,10.3198,10.3198,10.3198,10.3663,10.4011,10.4011,10.5056,10.5608,10.5027,10.4998,10.4795,10.4272,10.3576,10.3198,10.3198,10.3198,10.3198,10.3198,10.3198,10.3198,10.3198,10.3198,10.3198,10.3198,10.3198,10.3198,10.3198,10.3198,10.3198,10.3198,10.3198,10.3198,10.912,10.8623,10.8424,10.9782,10.8689,10.7695,10.9285,11.0113,11.071,11.1107,11.2996,11.442,11.4122,11.4884,11.5065,11.3873,11.6366,11.8337,11.8862,11.9687,11.9886,11.8991,11.7998,11.7278,11.6891,11.6094,11.463,11.2528,11.3843,11.367,11.108,11.2623,11.2623,11.0654,11.1421,11.0492,10.7889,10.8962,10.8239,10.5595,10.5595,10.5428,10.5201,10.4576,10.4406,10.4406,10.3775,10.3372,10.3198,10.3198,10.3198,10.3198,10.3198,10.3198,10.3198,10.3198,10.3198,10.3198,10.3198,10.3198,10.3198,10.3198,10.3198,10.3198,10.3198,10.3198,10.3198,10.3198,10.3198,10.3198,10.3198,10.3198,10.3198,10.3198,10.3198,10.3198,10.3198,10.3198,10.3198,10.3198,10.3198,10.3198,10.3198,10.3459,10.3779,10.4098,10.4998,10.5608,10.5637,10.5637,10.5404,10.4795,10.4098,10.3576,10.3198,10.3198,10.3198,10.3198,10.3198,10.3198,10.3198,10.3198,10.3198,10.3198,10.3198,10.3198,10.3198,10.3198,10.3198,10.3198,10.3198,10.3198,10.912,10.912,10.9318,11.018,10.8689,10.7496,10.902,10.9716,11.0312,11.1008,11.283,11.4519,11.5414,11.5579,11.5613,11.5811,11.8495,12.0317,11.9588,12.0913,12.1078,11.8693,11.8196,11.7766,11.6805,11.601,11.5472,11.4938,11.5236,11.4762,11.2799,11.4592,11.4186,11.1378,11.367,11.2767,10.8337,11.1555,11.082,10.6528,10.6482,10.6571,10.6797,10.5187,10.4787,10.504,10.4009,10.3546,10.3198,10.3198,10.3198,10.3198,10.3198,10.3198,10.3198,10.3198,10.3198,10.3198,10.3198,10.3198,10.3198,10.3198,10.3198,10.3198,10.3198,10.3198,10.3198,10.3198,10.3198,10.3198,10.3198,10.3198,10.3198,10.3198,10.3198,10.3198,10.3198,10.3198,10.3198,10.3198,10.3198,10.3198,10.3401,10.3576,10.3895,10.4505,10.5201,10.5724,10.6217,10.6188,10.5811,10.523,10.4592,10.3895,10.3256,10.3198,10.3198,10.3198,10.3198,10.3198,10.3198,10.3198,10.3198,10.3198,10.3198,10.3198,10.3198,10.3198,10.3198,10.3198,10.3198,10.3198,10.912,10.912,10.9418,11.0875,11.1008,11.071,11.018,11.1704,11.2731,11.1505,11.2399,11.3923,11.5314,11.7203,11.8793,11.9488,11.929,11.8793,11.8097,11.8097,11.7865,11.6971,11.6275,11.6076,11.6606,11.601,11.5472,11.4938,11.6563,11.6694,11.473,11.6497,11.7477,11.7249,11.5636,11.473,11.4357,11.3675,11.1836,10.9191,10.9387,10.9722,10.9915,10.7088,10.5874,10.5689,10.5114,10.4156,10.3198,10.3198,10.3198,10.3198,10.3198,10.3198,10.3198,10.3198,10.3198,10.3198,10.3198,10.3198,10.3198,10.3198,10.3198,10.3198,10.3198,10.3198,10.3198,10.3198,10.3198,10.3198,10.3198,10.3198,10.3198,10.3198,10.3198,10.3198,10.3198,10.3198,10.3198,10.3198,10.3198,10.3401,10.4011,10.4621,10.5201,10.5869,10.6507,10.6914,10.6943,10.642,10.5811,10.523,10.4592,10.3895,10.3256,10.3198,10.3198,10.3198,10.3198,10.3198,10.3198,10.3198,10.3198,10.3198,10.3198,10.3198,10.3198,10.3198,10.3198,10.3198,10.3198,10.3198,10.912,10.8788,10.8888,11.0776,11.1604,11.1704,11.0975,11.1174,11.1505,11.1803,11.2333,11.3592,11.6408,11.7302,11.7898,11.9124,11.8693,11.8097,11.7799,11.7799,11.7501,11.6805,11.601,11.5679,11.5977,11.5778,11.566,11.5971,11.7146,11.7245,11.607,11.7212,11.7084,11.5348,11.6267,11.5864,11.3819,11.612,11.653,11.4941,11.1999,11.0643,11.0451,10.7666,10.64,10.6396,10.5205,10.4215,10.3779,10.3372,10.3198,10.3198,10.3198,10.3198,10.3198,10.3198,10.3198,10.3198,10.3198,10.3198,10.3198,10.3198,10.3198,10.3198,10.3198,10.3198,10.3198,10.3198,10.3198,10.3198,10.3198,10.3198,10.3198,10.3198,10.3198,10.3198,10.3198,10.3198,10.3198,10.3198,10.3518,10.3895,10.4156,10.4708,10.5346,10.5985,10.6275,10.6595,10.7001,10.6827,10.6304,10.523,10.4185,10.3488,10.3198,10.3198,10.3198,10.3198,10.3198,10.3198,10.3198,10.3198,10.3198,10.3198,10.3198,10.3198,10.3198,10.3198,10.3198,10.3198,10.3198,10.3198,10.8424,10.8523,10.8987,11.0213,11.1803,11.2697,11.1505,11.1405,11.1604,11.1902,11.3426,11.5314,11.7103,11.7998,11.8495,11.8826,11.8296,11.7799,11.7799,11.7799,11.76,11.7103,11.6176,11.5679,11.5911,11.5712,11.5878,11.6606,11.7401,11.76,11.707,11.7501,11.7051,11.5118,11.6856,11.6891,11.4902,11.8334,11.9656,11.9098,11.5513,11.3369,11.221,10.8862,10.7281,10.7045,10.5352,10.4593,10.4098,10.3488,10.3198,10.3198,10.3198,10.3198,10.3198,10.3198,10.3198,10.3198,10.3198,10.3198,10.3198,10.3198,10.3198,10.3198,10.3198,10.3198,10.3198,10.3198,10.3198,10.3198,10.3198,10.3198,10.3198,10.3198,10.3198,10.3198,10.3198,10.3372,10.3488,10.3488,10.4011,10.4592,10.4766,10.5114,10.5637,10.6304,10.6391,10.6507,10.6943,10.703,10.6624,10.5521,10.4417,10.3808,10.3808,10.3605,10.3488,10.3488,10.3285,10.3198,10.3198,10.3198,10.3198,10.3198,10.3198,10.3198,10.3198,10.3198,10.3198,10.3198,10.3198,10.3198,10.69,10.849,10.9981,10.9318,11.1836,11.3923,11.1704,11.2929,11.3923,11.1704,11.5911,11.929,11.7103,11.9687,12.1377,11.929,11.8296,11.7799,11.7799,11.7799,11.7799,11.7799,11.6474,11.5878,11.6606,11.5977,11.5878,11.6606,11.7401,11.7799,11.7799,11.7799,11.7799,11.7799,11.7799,11.8196,11.8892,11.9621,12.0416,12.1145,11.9783,11.8111,11.608,11.0951,10.8342,10.7634,10.6433,10.5381,10.4156,10.3488,10.3198,10.3198,10.3198,10.3198,10.3198,10.3198,10.3198,10.3198,10.3198,10.3198,10.3198,10.3198,10.3198,10.3198,10.3198,10.3198,10.3198,10.3198,10.3198,10.3198,10.3198,10.3198,10.3198,10.3198,10.3198,10.3198,10.3198,10.3692,10.4185,10.4185,10.4708,10.5346,10.5985,10.6101,10.6304,10.6914,10.703,10.703,10.703,10.703,10.6798,10.6159,10.5521,10.5143,10.5143,10.4592,10.4185,10.4185,10.3576,10.3198,10.3198,10.3198,10.3198,10.3198,10.3198,10.3198,10.3198,10.3198,10.3198,10.3198,10.3198,10.3198,10.9683,10.8921,10.859,11.1405,11.1405,11.0909,11.1803,11.3691,11.5215,11.5083,11.6474,11.7799,11.8196,11.8693,11.919,11.9621,11.8594,11.7799,11.7799,11.7799,11.7799,11.7799,11.6474,11.5679,11.5878,11.5679,11.5679,11.5878,11.6606,11.7004,11.7004,11.7004,11.7004,11.7004,11.7501,11.8395,11.9687,11.9919,12.0615,12.1907,12.0076,11.8111,11.6048,11.2889,11.032,10.8342,10.6639,10.5673,10.4737,10.3663,10.3198,10.3198,10.3198,10.3198,10.3198,10.3198,10.3198,10.3198,10.3198,10.3198,10.3198,10.3198,10.3198,10.3198,10.3198,10.3198,10.3198,10.3198,10.3198,10.3198,10.3198,10.3198,10.3198,10.3198,10.3198,10.3198,10.3198,10.3372,10.3605,10.4098,10.5085,10.5869,10.6072,10.6798,10.732,10.703,10.703,10.703,10.703,10.6624,10.6304,10.6101,10.5521,10.5143,10.5143,10.494,10.4824,10.4824,10.465,10.4127,10.3198,10.3198,10.3198,10.3198,10.3198,10.3198,10.3198,10.3198,10.3198,10.3198,10.3198,10.3198,10.8921,10.7993,10.7496,11.0213,11.018,11.018,11.2631,11.3791,11.4586,11.5613,11.6507,11.7302,11.7898,11.8395,11.8793,11.9091,11.8395,11.7799,11.7799,11.8097,11.8097,11.7799,11.6772,11.5878,11.5579,11.5579,11.5579,11.5579,11.6275,11.6805,11.7103,11.6871,11.6805,11.7103,11.76,11.8495,12.0018,12.0018,12.0714,12.2172,12.1063,11.8822,11.6296,11.36,11.118,10.8637,10.6492,10.5029,10.4301,10.3518,10.3198,10.3198,10.3198,10.3198,10.3198,10.3198,10.3198,10.3198,10.3198,10.3198,10.3198,10.3198,10.3198,10.3198,10.3198,10.3198,10.3198,10.3198,10.3198,10.3285,10.3518,10.3576,10.3518,10.3285,10.3401,10.3576,10.3576,10.3982,10.4505,10.5201,10.5927,10.6595,10.7175,10.7407,10.7582,10.7407,10.7204,10.703,10.703,10.6711,10.6478,10.6478,10.613,10.5927,10.5927,10.5637,10.5521,10.5521,10.5259,10.4795,10.4011,10.3982,10.3982,10.3982,10.3982,10.3982,10.3982,10.3982,10.3982,10.3982,10.3982,10.3982,10.6503,10.6602,10.7,10.7198,10.8788,11.0975,11.3625,11.3327,11.2996,11.4619,11.6408,11.7501,11.6904,11.8395,11.9389,11.7998,11.7799,11.7799,11.7898,11.8495,11.8693,11.8097,11.7203,11.6408,11.5778,11.5613,11.5579,11.5579,11.6275,11.7004,11.7766,11.7103,11.7004,11.7799,11.7799,11.8495,11.9919,11.9985,12.0714,12.2072,12.2172,12.0141,11.648,11.3791,11.112,10.8254,10.6051,10.4417,10.3198,10.3198,10.3198,10.3198,10.3198,10.3198,10.3198,10.3198,10.3198,10.3198,10.3198,10.3198,10.3198,10.3198,10.3198,10.3198,10.3198,10.3198,10.3285,10.3285,10.3314,10.3488,10.4098,10.4272,10.4098,10.3488,10.3808,10.4272,10.4272,10.5201,10.6188,10.6827,10.7001,10.7407,10.8598,10.7901,10.7291,10.7785,10.7436,10.7117,10.703,10.703,10.703,10.703,10.703,10.703,10.703,10.6507,10.6188,10.6188,10.5608,10.5317,10.5317,10.523,10.5143,10.5143,10.5143,10.5143,10.5143,10.5143,10.5143,10.5143,10.5143,10.5143,11.0511,10.8921,10.7397,10.9716,11.061,11.1107,11.1803,11.3029,11.4818,11.7401,11.7401,11.707,11.7501,11.7998,11.8196,11.7865,11.7799,11.7998,11.8594,11.8793,11.9091,11.9488,11.7865,11.6606,11.6474,11.5911,11.5579,11.5579,11.6275,11.7004,11.7766,11.7103,11.7004,11.7799,11.7799,11.8196,11.9124,11.972,12.0416,12.131,12.1873,12.086,11.8468,11.5985,11.1858,10.6551,10.5437,10.4417,10.3198,10.3198,10.3198,10.3198,10.3198,10.3198,10.3198,10.3198,10.3198,10.3198,10.3198,10.3198,10.3198,10.3198,10.3198,10.3198,10.3198,10.3576,10.3982,10.3982,10.433,10.4737,10.4911,10.494,10.4911,10.4737,10.4824,10.494,10.494,10.5143,10.5521,10.6188,10.6711,10.7117,10.7407,10.7611,10.7669,10.7291,10.7524,10.7611,10.7117,10.703,10.703,10.703,10.703,10.703,10.703,10.6914,10.6827,10.6827,10.6711,10.6624,10.6624,10.5637,10.5143,10.5143,10.5143,10.5143,10.5143,10.5143,10.5143,10.5143,10.5143,10.5143,11.061,10.912,10.7795,10.9318,11.071,11.1604,11.1306,11.3194,11.548,11.7004,11.6971,11.6904,11.77,11.7799,11.7799,11.7799,11.8097,11.8495,11.8826,11.9521,11.9985,12.0018,11.8395,11.7103,11.6706,11.601,11.5712,11.6076,11.6474,11.7169,11.8296,11.7302,11.7203,11.8296,11.8296,11.8892,11.9919,12.0317,12.0913,12.1608,12.1973,12.086,11.8468,11.5055,11.088,10.5992,10.5495,10.4737,10.4098,10.3808,10.3808,10.4098,10.3779,10.3866,10.4011,10.3401,10.3401,10.3605,10.3285,10.3198,10.3198,10.3198,10.3401,10.3692,10.3692,10.4098,10.4621,10.4621,10.4911,10.523,10.5521,10.5608,10.5695,10.5956,10.5811,10.5608,10.5608,10.5811,10.6217,10.6885,10.7001,10.732,10.8249,10.8423,10.8249,10.7582,10.7494,10.7611,10.7901,10.7698,10.7494,10.7494,10.7494,10.732,10.703,10.703,10.703,10.703,10.703,10.703,10.703,10.642,10.6043,10.6043,10.6043,10.6043,10.6043,10.6043,10.6043,10.6043,10.6043,10.6043,11.0113,10.9318,10.8689,10.8424,11.0379,11.22,11.1604,11.3592,11.5579,11.5579,11.6275,11.707,11.77,11.7799,11.7799,11.7799,11.8395,11.8925,11.9091,12.0283,12.0913,12.0416,11.9091,11.7898,11.7169,11.6507,11.6374,11.6871,11.7103,11.7799,11.9025,11.7898,11.7799,11.9091,11.9091,11.9687,12.0913,12.1012,12.141,12.1973,12.2072,12.0657,11.7509,11.427,11.0667,10.7196,10.6696,10.6403,10.6023,10.5089,10.5235,10.5439,10.4768,10.4708,10.5027,10.3808,10.3692,10.4098,10.3401,10.3285,10.3372,10.3372,10.3808,10.4388,10.4388,10.4795,10.5317,10.5317,10.5346,10.5608,10.6101,10.6275,10.6391,10.6914,10.6624,10.6275,10.6275,10.6624,10.7204,10.7698,10.7407,10.7553,10.9294,10.9265,10.8772,10.8075,10.7611,10.7727,10.8685,10.8307,10.7988,10.8162,10.8075,10.7785,10.7233,10.7117,10.703,10.703,10.703,10.703,10.703,10.703,10.703,10.703,10.703,10.703,10.703,10.703,10.703,10.703,10.703,10.703,11.2532,11.23,11.1405,11.018,11.1107,11.23,11.22,11.3923,11.5579,11.5579,11.6706,11.77,11.7799,11.7799,11.7799,11.7799,11.8395,11.9124,11.9787,12.0615,12.131,12.1807,12.0582,11.9422,11.8693,11.8495,11.8196,11.77,11.8826,11.9621,11.982,11.9687,11.9621,11.982,11.9886,11.9919,12.0118,12.0813,12.1112,12.1277,12.1873,12.0657,11.7689,11.7083,11.4866,11.1491,11.1399,11.0971,11.0198,10.8418,10.7687,10.7577,10.579,10.5056,10.5027,10.4301,10.4098,10.4098,10.3401,10.3576,10.4069,10.4069,10.4505,10.5027,10.5027,10.5433,10.5985,10.5985,10.6333,10.6827,10.6914,10.6914,10.6914,10.703,10.6943,10.6914,10.6914,10.6943,10.703,10.7117,10.7117,10.7291,10.8104,10.8656,10.8772,10.8075,10.8394,10.8569,10.8162,10.8046,10.8191,10.8772,10.8307,10.7959,10.7872,10.732,10.703,10.703,10.703,10.703,10.703,10.703,10.703,10.703,10.703,10.703,10.703,10.703,10.703,10.703,10.703,10.703,11.2234,11.2234,11.2002,11.0577,11.1571,11.283,11.2399,11.3989,11.5579,11.5579,11.6772,11.7799,11.7799,11.7799,11.7799,11.7799,11.8395,11.919,11.9919,12.0615,12.141,12.2072,12.088,11.972,11.8991,11.8892,11.8793,11.8395,11.9389,12.0184,12.0615,12.0217,12.0217,12.0615,12.0615,12.0813,12.1211,12.1575,12.1708,12.1708,12.1872,12.0926,11.9414,11.9303,11.687,11.2784,11.2353,11.226,11.213,10.9852,10.8952,10.9021,10.655,10.5898,10.6043,10.5114,10.4708,10.4708,10.4388,10.4214,10.4272,10.4592,10.5114,10.5695,10.5695,10.6101,10.6595,10.6595,10.6827,10.703,10.703,10.703,10.703,10.703,10.703,10.703,10.703,10.703,10.703,10.703,10.7611,10.8104,10.7988,10.8569,10.8975,10.9091,10.8394,10.8307,10.9468,10.8975,10.8801,10.941,10.9236,10.8772,10.8075,10.7698,10.7407,10.703,10.703,10.703,10.703,10.703,10.703,10.703,10.703,10.703,10.703,10.703,10.703,10.703,10.703,10.703,11.2101,11.2399,11.2797,11.1372,11.2399,11.3526,11.2731,11.3989,11.5381,11.5579,11.6606,11.76,11.7799,11.7799,11.7799,11.7799,11.8395,11.9091,11.9621,12.0515,12.131,12.1873,12.0913,12.0085,11.9521,11.9488,11.9488,11.9488,12.0118,12.0813,12.1377,12.088,12.0813,12.1377,12.141,12.1608,12.2172,12.2172,12.2172,12.2172,12.1636,12.1332,12.0788,12.0272,11.824,11.4772,11.4242,11.4336,11.4552,11.2082,11.1259,11.1396,10.8833,10.7901,10.7428,10.6492,10.5643,10.5143,10.5143,10.4911,10.4766,10.523,10.5811,10.6304,10.6304,10.6624,10.703,10.703,10.703,10.703,10.703,10.703,10.703,10.703,10.703,10.7059,10.7233,10.7291,10.732,10.7494,10.8307,10.8888,10.8511,10.8888,10.9294,10.9614,10.8598,10.8394,11.0165,10.9701,10.9468,11.0107,11.002,10.9527,10.8569,10.8191,10.7785,10.732,10.7117,10.703,10.703,10.703,10.703,10.703,10.703,10.703,10.703,10.703,10.703,10.703,10.703,10.703,11.3526,11.4321,11.5083,11.3625,11.3824,11.4221,11.3526,11.4022,11.4818,11.548,11.6176,11.6971,11.77,11.7799,11.7799,11.7799,11.8395,11.8892,11.8991,12.0217,12.1112,12.1211,12.1112,12.1012,12.1012,12.1012,12.1012,12.1012,12.1675,12.2072,12.2072,12.2072,12.2072,12.2072,12.2072,12.2172,12.2172,12.2172,12.2172,12.2172,12.1636,12.1332,12.0788,12.0272,11.9718,11.9016,11.8919,11.8951,11.8983,11.6846,11.5863,11.574,11.3791,11.1289,10.9051,10.8961,10.7366,10.5143,10.5143,10.5521,10.5985,10.6014,10.6478,10.7001,10.7001,10.703,10.703,10.703,10.703,10.703,10.703,10.703,10.703,10.703,10.703,10.7204,10.7785,10.7901,10.8104,10.8772,10.8946,10.9178,10.973,10.9846,10.9701,10.9091,10.9439,10.9614,10.9149,10.9527,11.0107,11.0775,11.0281,10.9904,10.9817,10.8685,10.7959,10.7959,10.7378,10.703,10.703,10.703,10.703,10.703,10.703,10.703,10.703,10.703,10.703,10.703,10.703,10.703,11.3526,11.4122,11.4917,11.4818,11.4685,11.4619,11.4784,11.4685,11.4718,11.5414,11.6176,11.6904,11.77,11.7799,11.7799,11.7799,11.7998,11.8395,11.8826,11.9389,11.9886,12.0317,12.0813,12.0913,12.0416,12.1277,12.1608,12.1112,12.1774,12.2172,12.2172,12.2172,12.2172,12.2172,12.2172,12.2172,12.2172,12.2172,12.2172,12.2172,12.1636,12.1332,12.0788,12.0272,11.9718,11.9368,11.9368,11.9368,11.916,11.7274,11.6296,11.6111,11.3982,11.1729,10.9819,11.0298,10.837,10.5898,10.6682,10.6595,10.6159,10.6595,10.6827,10.703,10.703,10.703,10.703,10.703,10.703,10.703,10.703,10.703,10.703,10.703,10.703,10.7204,10.7872,10.7988,10.8075,10.8278,10.9004,10.9643,10.9904,10.9933,10.9991,11.0165,10.9701,10.9497,11.0078,11.002,11.0194,11.0775,11.0688,11.0368,10.9933,10.9497,10.8888,10.8046,10.7785,10.7436,10.703,10.703,10.703,10.703,10.703,10.703,10.703,10.703,10.703,10.703,10.703,10.703,11.4022,11.4519,11.5016,11.5778,11.5811,11.5513,11.5281,11.5016,11.5016,11.548,11.5977,11.6606,11.76,11.7799,11.7799,11.7799,11.7799,11.7998,11.8495,11.8726,11.9091,11.9588,12.0317,12.0615,12.0416,12.1277,12.1708,12.1509,12.1873,12.2172,12.2172,12.2172,12.2172,12.2172,12.2172,12.2172,12.2172,12.2172,12.2172,12.2172,12.1669,12.1129,12.0788,12.0131,11.9751,11.9368,11.9368,11.9368,11.9368,11.7849,11.7243,11.7274,11.6178,11.3816,11.115,11.1845,10.9635,10.6507,10.7378,10.7117,10.6478,10.6914,10.703,10.703,10.703,10.703,10.703,10.703,10.703,10.703,10.703,10.703,10.703,10.703,10.7204,10.7494,10.7872,10.8162,10.8365,10.8598,10.9497,11.0223,11.0223,11.0223,11.031,11.0514,10.9991,10.9875,11.0484,11.0397,11.0397,11.0862,11.0862,11.0688,11.0281,11.002,10.9497,10.8394,10.8075,10.7698,10.703,10.6827,10.6711,10.6711,10.6507,10.6507,10.6711,10.6914,10.703,10.703,10.703,10.6914,0.0,0.0,0.0,11.6573,11.7302,11.7302,11.5215,11.5215,11.5679,11.5679,11.5679,11.6109,11.7501,11.7799,11.7799,11.7799,11.7799,11.7799,11.7799,11.8395,11.8892,11.8892,11.9521,12.0317,12.1012,12.1112,12.141,12.2072,12.2172,12.2172,12.2172,12.2172,12.2172,12.2172,12.2172,12.2172,12.2172,12.2172,12.2172,12.2172,12.1332,12.0755,12.0788,11.9893,11.9368,11.9368,11.9368,11.9401,11.9401,11.9401,11.9401,11.9498,12.021,11.7513,11.3338,11.3984,11.1293,10.703,10.703,10.703,10.703,10.703,10.703,10.703,10.7059,10.7059,10.703,10.703,10.703,10.703,10.703,10.703,10.703,10.703,10.7494,10.7988,10.7988,10.8511,10.9178,10.9817,11.0426,11.0862,11.0862,11.0862,11.0659,11.002,11.0484,11.0659,11.002,11.0484,11.0862,11.0862,11.0862,11.0862,11.0862,11.031,10.9701,10.9062,10.8365,10.7698,10.7117,10.642,10.6072,10.6072,10.5433,10.5433,10.6072,10.6711,10.703,10.703,10.703,10.6711,11.5182,0.0,0.0,0.0,0.0,0.0,11.8991,11.8594,11.7998,11.7998,11.7998,11.7898,11.7799,11.7799,11.7799,11.7799,11.7799,11.7799,11.7799,11.7998,11.8097,11.8097,11.9223,12.0085,12.0317,12.1277,12.1973,12.2172,12.2172,12.2172,12.2172,12.2172,12.2172,12.2172,12.2172,12.2172,12.2172,12.2172,12.2172,12.2172,12.1669,12.1129,12.0788,12.0272,11.9718,11.9368,11.9368,11.9692,12.0178,11.9595,11.9692,12.0178,11.9789,11.7704,11.4661,11.4323,11.1392,10.7698,10.7698,10.7407,10.7117,10.7582,10.7407,10.7204,10.8191,10.8104,10.7698,10.7698,10.7698,10.7611,10.7146,10.703,10.703,10.703,10.7494,10.7988,10.7988,10.8888,10.9701,10.9904,11.0426,11.0862,11.0862,11.0862,11.0804,11.0659,11.0775,11.0804,11.0601,11.0775,11.0862,11.0862,11.0862,11.0862,11.0862,11.0688,11.031,10.9701,10.9062,10.8394,10.7756,10.6682,10.6072,10.6072,10.5433,10.523,10.5404,10.6014,10.6595,10.703,10.703,10.6711,11.5712,11.6076,11.6606,11.8991,0.0,0.0,11.9588,11.929,11.8693,11.8097,11.7998,11.7898,11.7799,11.7799,11.7799,11.7799,11.7799,11.7799,11.7799,11.7799,11.7799,11.7799,11.9091,12.0018,12.0018,12.1078,12.1873,12.2172,12.1575,12.1377,12.1708,12.1973,12.2172,12.2172,12.2172,12.2172,12.2172,12.2172,12.2172,12.2172,12.1468,12.1162,12.0788,12.0066,11.9783,11.9401,11.9692,12.0113,12.0502,12.0372,12.0599,12.0923,12.0793,11.9274,11.685,11.5638,11.2751,10.9545,10.8469,10.7582,10.7117,10.7785,10.7524,10.7291,10.8569,10.8307,10.7611,10.7901,10.7785,10.7494,10.7117,10.703,10.703,10.703,10.7727,10.8394,10.8394,10.941,11.0223,10.9991,11.0426,11.0862,11.0862,11.0862,11.0862,11.0862,11.0862,11.0862,11.0862,11.0862,11.0862,11.0862,11.0862,11.0862,11.0862,11.0862,11.0484,10.9585,10.9178,10.8452,10.7262,10.6217,10.5579,10.5288,10.4621,10.4446,10.4737,10.5666,10.6391,10.703,10.674,10.642,11.6474,11.6706,11.707,11.8495,11.9389,0.0,11.8594,11.8892,11.9025,11.7799,11.7501,11.77,11.8196,11.8296,11.8296,11.8296,11.8196,11.7998,11.7799,11.7799,11.7799,11.7799,11.8991,11.982,11.9886,12.0515,12.1178,12.1873,12.0714,12.0317,12.0913,12.1675,12.2072,12.2072,12.2172,12.2172,12.2172,12.2172,12.2172,12.2172,12.1266,12.0788,12.0919,12.0055,11.9562,11.9692,12.0307,12.0696,12.0793,12.1408,12.17,12.1765,12.2283,12.1233,11.9361,11.6988,11.4436,11.1948,10.9008,10.7669,10.732,10.7814,10.7611,10.7407,10.8685,10.8191,10.7233,10.7814,10.7494,10.703,10.703,10.703,10.703,10.703,10.8017,10.8975,10.8975,10.9991,11.0688,11.0136,11.0484,11.0862,11.0862,11.0862,11.0862,11.0862,11.0862,11.0862,11.0862,11.0862,11.0862,11.0862,11.0862,11.0862,11.0862,11.0862,11.0368,10.9178,10.9004,10.8162,10.6275,10.5521,10.4824,10.4185,10.3518,10.3518,10.4185,10.5375,10.6275,10.6827,10.6304,10.6072,11.6308,11.6706,11.707,11.8495,11.8991,0.0,12.1708,12.2304,12.2437,12.2801,12.2801,12.2503,12.1476,12.1277,12.1277,12.1277,12.0317,11.919,11.7998,11.7799,11.7799,11.7799,11.8097,11.8495,11.9091,11.9223,11.9621,12.0383,12.0184,12.0085,12.0217,12.0913,12.131,12.131,12.1873,12.2172,12.2172,12.2172,12.2172,12.2172,12.1266,12.1083,12.1738,12.0628,12.0599,12.1182,12.1311,12.17,12.2218,12.2315,12.2412,12.238,12.1991,12.1105,11.9929,11.6647,11.4344,11.2575,10.9154,10.8278,10.8511,10.8104,10.7901,10.8017,10.9323,10.8801,10.7814,10.7959,10.7494,10.703,10.703,10.703,10.703,10.703,10.8017,10.8975,10.8975,10.9991,11.0862,11.0688,11.0775,11.0862,11.0862,11.0862,11.0862,11.0862,11.0862,11.0862,11.0862,11.0862,11.0862,11.0862,11.0862,11.0862,11.0862,11.0862,11.0572,10.9817,10.9265,10.8307,10.6914,10.5724,10.4824,10.4185,10.3518,10.3518,10.4185,10.494,10.5404,10.5521,10.5898,10.6072,11.7401,11.7501,11.7501,11.8594,11.8892,0.0,0.0,12.1608,12.1708,12.2105,12.2437,12.2503,12.1807,12.1973,12.2172,12.2172,12.0979,12.0118,12.0416,11.8925,11.7799,11.7799,11.8097,11.8495,11.8892,11.8892,11.9091,11.9422,11.982,12.0018,12.0018,12.0383,12.0714,12.1112,12.1476,12.1807,12.2172,12.2172,12.237,12.2333,12.172,12.1565,12.2045,12.1407,12.1279,12.1603,12.1991,12.2283,12.2607,12.2995,12.3092,12.3092,12.2769,12.245,12.1822,11.8883,11.7246,11.5742,11.195,11.0288,10.9931,10.9256,10.8307,10.7901,10.9817,10.9497,10.8365,10.7698,10.7291,10.7117,10.7407,10.7494,10.7582,10.7901,10.8714,10.941,10.941,11.0194,11.0862,11.0862,11.0862,11.0862,11.0862,11.0862,11.0862,11.0862,11.0862,11.0862,11.0862,11.0862,11.0862,11.0862,11.0862,11.0862,11.0862,11.0572,11.0107,10.9497,10.8511,10.7407,10.613,10.5201,10.4388,10.3692,10.3372,10.3372,10.3692,10.4011,10.4505,10.5143,10.5114,10.5288,11.8693,11.8693,11.8395,11.8991,11.9091,11.9323,0.0,0.0,0.0,12.0813,12.141,12.1907,12.1907,12.2503,12.2967,12.2801,12.1807,12.1509,12.3,12.0813,11.9091,11.9091,11.8693,11.8627,11.9091,11.9223,11.9124,11.8693,11.9886,12.0317,11.9621,11.982,12.0217,12.0714,12.0813,12.1211,12.1973,12.1973,12.2137,12.2324,12.1976,12.1915,12.2216,12.1879,12.1894,12.1991,12.2574,12.2801,12.2898,12.3481,12.3675,12.3675,12.3675,12.3675,12.3461,12.129,11.9929,11.8435,11.4547,11.2247,11.1031,11.0053,10.8743,10.793,10.9904,10.9875,10.8888,10.7611,10.732,10.7494,10.7872,10.8075,10.8307,10.8859,10.9468,10.9933,10.9933,11.0397,11.0862,11.0862,11.0862,11.0862,11.0862,11.0862,11.0862,11.0862,11.0862,11.0862,11.0862,11.0862,11.0862,11.0862,11.0862,11.0804,11.0688,11.0223,10.9614,10.8859,10.7785,10.6595,10.5201,10.4417,10.3779,10.3198,10.3198,10.3198,10.3198,10.3198,10.3721,10.4737,10.4388,10.4475,11.929,11.982,11.9787,11.9886,11.9886,12.0217,12.1575,0.0,12.2271,12.3596,0.0,12.4921,12.4921,0.0,0.0,12.512,12.4921,12.4424,12.3331,12.3397,12.3596,12.3596,11.9621,11.77,11.9687,12.0515,12.0018,11.8097,12.0979,12.141,11.8196,11.929,11.972,11.919,11.9787,12.0515,12.1211,12.1211,12.1442,12.16,12.1779,12.1915,12.2216,12.2365,12.2801,12.3481,12.3513,12.3578,12.3578,12.3675,12.3675,12.3675,12.3675,12.3675,12.3461,12.129,11.9186,11.7062,11.4086,11.2155,11.0772,10.9381,10.9294,10.9527,10.9294,10.9497,10.9527,10.822,10.8278,10.8656,10.8104,10.8394,10.8888,10.8975,10.9468,10.9933,10.9933,11.0397,11.0862,11.0862,11.0862,11.0862,11.0862,11.0862,11.0862,11.0862,11.0862,11.0862,11.0862,11.0862,11.0862,11.0862,11.0862,11.0659,11.0107,10.9933,10.941,10.8162,10.7959,10.703,10.523,10.3924,10.3285,10.3198,10.3198,10.3198,10.3198,10.3198,10.3285,10.3401,10.3982,10.4214,12.088,12.0317,11.9588,12.0416,12.0018,11.9985,12.2271,12.247,12.2569,12.4027,0.0,0.0,0.0,0.0,0.0,0.0,12.5319,12.5021,12.5683,12.4192,12.3099,12.3099,12.1907,12.1012,12.0714,12.131,12.0979,11.919,12.1277,12.1774,11.982,11.9091,11.8991,11.9521,11.982,12.0383,12.1112,12.1509,12.1738,12.1786,12.1738,12.1947,12.1959,12.2462,12.2801,12.3092,12.3481,12.3675,12.3675,12.3675,12.3675,12.3675,12.3675,12.3675,12.3675,12.2694,12.1886,12.0436,11.674,11.4797,11.3588,11.0061,10.9672,11.0281,10.9294,10.941,10.973,10.8801,10.8772,10.8975,10.9091,10.9294,10.9614,10.9991,11.0281,11.0484,11.0484,11.0688,11.0862,11.0862,11.0862,11.0862,11.0862,11.0862,11.0862,11.0862,11.0862,11.0862,11.0862,11.0862,11.0862,11.0862,11.0862,11.0601,10.9991,10.9585,10.8975,10.8046,10.6914,10.5608,10.4098,10.3488,10.3198,10.3198,10.3198,10.3198,10.3198,10.3198,10.3198,10.3198,10.3488,10.3605,12.2072,12.1178,12.0184,12.1907,12.131,12.0913,12.3,12.3099,12.3066,12.4093,12.4921,0.0,0.0,0.0,12.6445,12.6246,0.0,12.5617,12.6809,12.5286,12.396,12.396,12.4325,12.3927,12.2139,12.3199,12.3,12.078,12.2503,12.2702,12.0615,11.919,11.8693,11.9389,11.982,12.0283,12.0813,12.1509,12.1735,12.1607,12.1804,12.1675,12.1311,12.1991,12.2315,12.238,12.2898,12.3092,12.3092,12.3287,12.3384,12.3384,12.3578,12.3675,12.3675,12.3675,12.291,12.1479,11.8498,11.6138,11.426,11.0654,11.0107,11.0688,10.9788,10.9817,11.002,10.941,10.9381,10.9585,10.9817,11.002,11.031,11.0775,11.0862,11.0862,11.0862,11.0862,11.0862,11.0862,11.0862,11.0862,11.0862,11.0862,11.0862,11.0862,11.0862,11.0862,11.0862,11.0862,11.0862,11.0862,11.0688,11.0368,10.9701,10.9091,10.8365,10.7494,10.6014,10.4621,10.3488,10.3285,10.3198,10.3198,10.3198,10.3198,10.3198,10.3198,10.3198,10.3198,10.3198,10.3198,12.2205,12.2602,12.2569,12.4722,12.4722,12.4192,12.4226,12.4226,12.4226,12.4292,12.4921,12.5418,12.5418,12.6014,12.6312,12.5617,12.6611,0.0,0.0,12.7207,12.8499,12.8499,12.6611,12.512,12.4292,12.6809,12.6677,12.247,12.5385,12.4987,11.929,11.9588,11.929,11.7898,11.929,12.0018,12.0018,12.0813,12.0977,12.0788,12.1607,12.1381,12.0599,12.1311,12.1603,12.1603,12.1667,12.1667,12.17,12.238,12.2607,12.2704,12.3384,12.3675,12.3675,12.3675,12.1101,11.7478,11.7247,11.4693,11.1021,11.0804,11.0862,11.0862,11.0862,11.0862,11.0688,11.0078,11.031,11.0688,11.0107,11.0397,11.0862,11.0862,11.0862,11.0862,11.0862,11.0862,11.0862,11.0862,11.0862,11.0862,11.0862,11.0862,11.0862,11.0862,11.0862,11.0862,11.0862,11.0862,11.0862,11.0862,11.031,10.9701,10.9062,10.8394,10.7465,10.6217,10.5521,10.4824,10.4185,10.3518,10.3198,10.3198,10.3198,10.3198,10.3198,10.3198,10.3198,10.3198,10.3198,10.3198,12.1608,12.0913,12.0615,12.3298,12.3099,12.2801,12.5219,12.5418,12.5219,12.5716,12.6014,12.6114,12.6114,12.6346,12.6445,12.6213,12.6544,12.671,0.0,12.6809,12.7604,12.8598,12.671,12.5716,12.6412,12.6909,12.6014,12.3099,12.4424,12.3927,12.0515,11.9687,11.929,11.929,11.972,12.0217,12.0714,12.1476,12.1438,12.0788,12.1083,12.0663,11.9789,12.0502,12.089,12.089,12.1408,12.1603,12.1603,12.1797,12.1894,12.1991,12.2704,12.2995,12.2995,12.3481,12.1886,11.9054,11.6302,11.3288,11.0862,11.0862,11.0862,11.0862,11.0862,11.0862,11.0862,11.0601,11.0688,11.0804,11.0601,11.0688,11.0862,11.0862,11.0862,11.0862,11.0862,11.0862,11.0862,11.0862,11.0862,11.0862,11.0862,11.0862,11.0862,11.0862,11.0862,11.0862,11.0862,11.0862,11.0862,11.0862,11.031,10.9701,10.9062,10.7582,10.6391,10.5521,10.4882,10.4214,10.3576,10.3285,10.3198,10.3198,10.3198,10.3198,10.3198,10.3198,10.3198,10.3198,10.3198,10.3198,12.1012,12.0217,11.9919,12.2503,12.2304,12.2304,12.5418,12.5749,12.5517,12.6014,12.671,12.6809,12.5286,12.6213,12.6909,12.5915,12.6412,12.6809,0.0,12.671,12.7306,12.8565,12.7207,12.6677,12.7869,12.83,12.7108,12.3828,12.4789,12.4192,12.131,11.9985,11.9389,11.9621,12.0118,12.0515,12.0714,12.1675,12.1636,12.0788,12.0788,12.0239,11.9401,11.9886,12.0113,12.0113,12.0599,12.0793,12.0793,12.1085,12.1214,12.1279,12.1991,12.2218,12.238,12.3287,12.1918,11.8632,11.4515,11.21,11.0862,11.0862,11.0862,11.0862,11.0862,11.0862,11.0891,11.1181,11.1065,11.0891,11.1181,11.0891,11.0514,11.0514,11.0368,11.0194,11.0194,11.0368,11.0514,11.0514,11.0688,11.0862,11.0862,11.0862,11.0862,11.0862,11.0862,11.0862,11.0862,11.0862,11.0862,11.0862,11.0107,10.9207,10.8365,10.7117,10.6014,10.5201,10.4737,10.4098,10.3198,10.3198,10.3285,10.3576,10.3285,10.3285,10.3576,10.3285,10.3198,10.3198,10.3198,10.3198]},{"header":{"parameterUnit":"m.s-1","parameterCategory":1,"la1":30.6,"la2":29.2853,"lo1":-89.7004,"lo2":-87.6739,"dx":0.0162,"dy":0.0183,"nx":112,"ny":82,"refTime":"2022-12-17T06:00:00:Z","depth":0,"parameterNumber":3,"parameterNumberName":"V-component_of_WINDS"},"data":[0.0,0.0,0.0,0.0,0.0,0.0,0.0,0.0,0.0,0.0,0.0,0.0,0.0,0.0,0.0,0.0,0.0,0.0,0.0,0.0,0.0,0.0,0.0,0.0,0.0,0.0,0.0,0.0,0.0,0.0,0.0,0.0,0.0,0.0,0.0,0.0,0.0,0.0,0.0,0.0,0.0,0.0,0.0,0.0,0.0,0.0,0.0,0.0,0.0,0.0,0.0,0.0,0.0,0.0,0.0,0.0,0.0,0.0,0.0,0.0,0.0,0.0,0.0,0.0,0.0,0.0,0.0,0.0,0.0,0.0,0.0,0.0,0.0,0.0,0.0,0.0,0.0,0.0,0.0,0.0,0.0,0.0,0.0,0.0,0.0,0.0,0.0,0.0,0.0,0.0,-6.4378,-6.5162,-6.5711,-6.6678,-6.8324,-6.8011,-6.7802,-6.7985,0.0,0.0,0.0,0.0,0.0,0.0,0.0,0.0,0.0,0.0,0.0,0.0,0.0,0.0,0.0,0.0,0.0,0.0,0.0,0.0,0.0,0.0,0.0,0.0,0.0,0.0,0.0,0.0,0.0,0.0,0.0,0.0,0.0,0.0,0.0,0.0,0.0,0.0,0.0,0.0,0.0,0.0,0.0,0.0,0.0,0.0,0.0,0.0,0.0,0.0,0.0,0.0,0.0,0.0,0.0,0.0,0.0,0.0,0.0,0.0,0.0,0.0,0.0,0.0,0.0,0.0,0.0,0.0,0.0,0.0,0.0,0.0,0.0,0.0,0.0,0.0,0.0,0.0,0.0,0.0,0.0,0.0,0.0,0.0,0.0,0.0,0.0,0.0,0.0,0.0,0.0,0.0,0.0,0.0,0.0,0.0,0.0,0.0,0.0,0.0,0.0,0.0,0.0,0.0,-6.558,-6.4743,-6.4743,-6.5318,-6.6573,-6.6599,-6.6965,-6.7932,0.0,0.0,0.0,0.0,0.0,0.0,0.0,0.0,0.0,0.0,0.0,0.0,0.0,0.0,0.0,0.0,0.0,0.0,0.0,0.0,0.0,0.0,0.0,0.0,0.0,0.0,0.0,0.0,0.0,0.0,0.0,0.0,0.0,0.0,0.0,0.0,0.0,0.0,0.0,0.0,0.0,0.0,0.0,0.0,0.0,0.0,0.0,0.0,0.0,0.0,0.0,0.0,0.0,0.0,0.0,0.0,0.0,0.0,0.0,0.0,0.0,0.0,0.0,0.0,0.0,0.0,0.0,0.0,0.0,0.0,0.0,0.0,0.0,0.0,0.0,0.0,0.0,0.0,0.0,0.0,0.0,0.0,0.0,0.0,0.0,0.0,0.0,0.0,0.0,0.0,0.0,0.0,0.0,0.0,0.0,0.0,0.0,0.0,0.0,0.0,0.0,0.0,0.0,-6.6155,-6.5841,-6.592,-6.5083,-6.5005,-6.6181,-6.6286,-6.6782,-6.7906,-6.7749,0.0,0.0,0.0,0.0,0.0,0.0,0.0,0.0,0.0,0.0,0.0,0.0,0.0,0.0,0.0,0.0,0.0,0.0,0.0,0.0,0.0,0.0,0.0,0.0,0.0,0.0,0.0,0.0,0.0,0.0,0.0,0.0,0.0,0.0,0.0,0.0,0.0,0.0,0.0,0.0,0.0,0.0,0.0,0.0,0.0,0.0,0.0,0.0,0.0,0.0,0.0,0.0,0.0,0.0,0.0,0.0,0.0,0.0,0.0,0.0,0.0,0.0,0.0,0.0,0.0,0.0,0.0,0.0,0.0,0.0,0.0,0.0,0.0,0.0,0.0,0.0,0.0,0.0,0.0,0.0,0.0,0.0,0.0,0.0,0.0,0.0,0.0,0.0,0.0,0.0,0.0,0.0,0.0,0.0,0.0,0.0,0.0,0.0,0.0,0.0,0.0,0.0,-6.5998,-6.5711,-6.6599,-6.5266,-6.4691,-6.558,-6.5789,-6.6469,-6.7906,-6.8246,0.0,0.0,0.0,0.0,0.0,0.0,0.0,0.0,0.0,0.0,0.0,0.0,0.0,0.0,0.0,0.0,0.0,0.0,0.0,0.0,0.0,0.0,0.0,0.0,0.0,0.0,0.0,0.0,0.0,0.0,0.0,0.0,0.0,0.0,0.0,0.0,0.0,0.0,0.0,0.0,0.0,0.0,0.0,0.0,0.0,0.0,0.0,0.0,0.0,0.0,0.0,0.0,0.0,0.0,0.0,0.0,0.0,0.0,0.0,0.0,0.0,0.0,0.0,0.0,0.0,0.0,0.0,0.0,0.0,0.0,0.0,0.0,0.0,0.0,0.0,0.0,0.0,0.0,0.0,0.0,0.0,0.0,0.0,0.0,0.0,0.0,0.0,0.0,0.0,0.0,0.0,0.0,0.0,0.0,0.0,0.0,0.0,0.0,0.0,0.0,0.0,0.0,-6.6756,-6.5423,-6.5501,-6.4456,-6.3776,-6.3855,-6.4351,-6.5606,-6.7854,-6.8978,0.0,0.0,0.0,0.0,0.0,0.0,0.0,0.0,0.0,0.0,0.0,0.0,0.0,0.0,0.0,0.0,0.0,0.0,0.0,0.0,0.0,0.0,0.0,0.0,0.0,0.0,0.0,0.0,0.0,0.0,0.0,0.0,0.0,0.0,0.0,0.0,0.0,0.0,0.0,0.0,0.0,0.0,0.0,0.0,0.0,0.0,0.0,0.0,0.0,0.0,0.0,0.0,0.0,0.0,0.0,0.0,0.0,0.0,0.0,0.0,0.0,0.0,0.0,0.0,0.0,0.0,0.0,0.0,0.0,0.0,0.0,0.0,0.0,0.0,0.0,0.0,0.0,0.0,0.0,0.0,0.0,0.0,0.0,0.0,0.0,0.0,0.0,0.0,0.0,0.0,0.0,0.0,0.0,0.0,0.0,0.0,0.0,0.0,0.0,0.0,0.0,0.0,-6.7645,-6.6442,-6.6469,-6.5109,-6.4351,-6.4717,-6.4953,-6.6207,-6.8873,0.0,0.0,0.0,0.0,0.0,0.0,0.0,0.0,0.0,0.0,0.0,0.0,0.0,0.0,0.0,0.0,0.0,0.0,0.0,0.0,0.0,0.0,0.0,0.0,0.0,0.0,0.0,0.0,0.0,0.0,0.0,0.0,0.0,0.0,0.0,0.0,0.0,0.0,0.0,0.0,0.0,0.0,0.0,0.0,0.0,0.0,0.0,0.0,0.0,0.0,0.0,0.0,0.0,0.0,0.0,0.0,0.0,0.0,0.0,0.0,0.0,0.0,0.0,0.0,0.0,0.0,0.0,0.0,0.0,0.0,0.0,0.0,0.0,0.0,0.0,0.0,0.0,0.0,0.0,0.0,0.0,0.0,0.0,0.0,0.0,0.0,0.0,0.0,0.0,0.0,0.0,0.0,0.0,0.0,0.0,0.0,0.0,0.0,0.0,0.0,0.0,0.0,-7.0206,-6.8403,-6.7253,-6.7645,-6.6129,-6.5318,-6.5867,-6.5946,-6.7174,-7.0049,0.0,0.0,0.0,0.0,0.0,0.0,0.0,0.0,0.0,0.0,0.0,0.0,0.0,0.0,0.0,0.0,0.0,0.0,0.0,0.0,0.0,0.0,0.0,0.0,0.0,0.0,0.0,0.0,0.0,0.0,0.0,0.0,0.0,0.0,0.0,0.0,0.0,0.0,0.0,0.0,0.0,0.0,0.0,0.0,0.0,0.0,0.0,0.0,0.0,0.0,0.0,0.0,0.0,0.0,0.0,0.0,0.0,0.0,0.0,0.0,0.0,0.0,0.0,0.0,0.0,0.0,0.0,0.0,0.0,0.0,0.0,0.0,0.0,0.0,0.0,0.0,0.0,0.0,0.0,0.0,0.0,0.0,0.0,0.0,0.0,0.0,0.0,0.0,0.0,0.0,0.0,0.0,0.0,0.0,0.0,0.0,0.0,0.0,0.0,0.0,0.0,0.0,-7.133,-6.8899,-6.7566,-6.8743,-6.7331,-6.6547,-6.707,-6.7148,-6.8377,0.0,0.0,0.0,0.0,0.0,0.0,0.0,0.0,0.0,0.0,0.0,0.0,0.0,0.0,0.0,0.0,0.0,0.0,0.0,0.0,0.0,0.0,0.0,0.0,0.0,0.0,0.0,0.0,0.0,0.0,0.0,0.0,0.0,0.0,0.0,0.0,0.0,0.0,0.0,0.0,0.0,0.0,0.0,0.0,0.0,0.0,0.0,0.0,0.0,0.0,0.0,0.0,0.0,0.0,0.0,0.0,0.0,0.0,0.0,0.0,0.0,0.0,0.0,0.0,0.0,0.0,0.0,0.0,0.0,0.0,0.0,0.0,0.0,0.0,0.0,0.0,0.0,0.0,0.0,0.0,0.0,0.0,0.0,0.0,0.0,0.0,0.0,0.0,0.0,0.0,0.0,0.0,0.0,0.0,0.0,0.0,0.0,0.0,0.0,0.0,0.0,0.0,0.0,-7.1958,-6.9866,-6.8612,-6.937,-6.8638,-6.8324,-6.8873,-6.856,-6.9919,-7.363,0.0,0.0,0.0,0.0,0.0,0.0,0.0,0.0,0.0,0.0,0.0,0.0,0.0,0.0,0.0,0.0,0.0,0.0,0.0,0.0,0.0,0.0,0.0,0.0,0.0,0.0,0.0,0.0,0.0,0.0,0.0,0.0,0.0,0.0,0.0,0.0,0.0,0.0,0.0,0.0,0.0,0.0,0.0,0.0,0.0,0.0,0.0,0.0,0.0,0.0,0.0,0.0,0.0,0.0,0.0,0.0,0.0,0.0,0.0,0.0,0.0,0.0,0.0,0.0,0.0,0.0,0.0,0.0,0.0,0.0,0.0,0.0,0.0,0.0,0.0,0.0,0.0,0.0,0.0,0.0,0.0,0.0,0.0,0.0,0.0,0.0,0.0,0.0,0.0,0.0,0.0,0.0,0.0,0.0,0.0,0.0,0.0,0.0,0.0,0.0,0.0,0.0,-7.2898,-7.0755,-6.9501,-7.0285,-6.9866,-6.9762,-7.0337,-6.9631,-7.0624,-7.397,0.0,0.0,0.0,0.0,0.0,0.0,0.0,0.0,0.0,0.0,0.0,0.0,0.0,0.0,0.0,0.0,0.0,0.0,0.0,0.0,0.0,0.0,0.0,0.0,0.0,0.0,0.0,0.0,0.0,0.0,0.0,0.0,0.0,0.0,0.0,0.0,0.0,0.0,0.0,0.0,0.0,0.0,0.0,0.0,0.0,0.0,0.0,0.0,0.0,0.0,0.0,0.0,0.0,0.0,0.0,0.0,0.0,0.0,0.0,0.0,0.0,0.0,0.0,0.0,0.0,0.0,0.0,0.0,0.0,0.0,0.0,0.0,0.0,0.0,0.0,0.0,0.0,0.0,0.0,0.0,0.0,0.0,0.0,0.0,0.0,0.0,0.0,0.0,0.0,0.0,0.0,0.0,0.0,0.0,0.0,0.0,0.0,0.0,0.0,0.0,0.0,0.0,-7.4179,-7.1775,-7.0442,-7.1513,-7.12,-7.1095,-7.1592,-7.0598,-7.0938,-7.3291,0.0,0.0,0.0,0.0,0.0,0.0,0.0,0.0,0.0,0.0,0.0,0.0,0.0,0.0,0.0,0.0,0.0,0.0,0.0,0.0,0.0,0.0,0.0,0.0,0.0,0.0,0.0,0.0,0.0,0.0,0.0,0.0,0.0,0.0,0.0,0.0,0.0,0.0,0.0,0.0,0.0,0.0,0.0,0.0,0.0,0.0,0.0,0.0,0.0,0.0,0.0,0.0,0.0,0.0,0.0,0.0,0.0,0.0,0.0,0.0,-6.5313,-6.4006,0.0,0.0,0.0,0.0,0.0,0.0,0.0,0.0,0.0,0.0,0.0,0.0,0.0,0.0,0.0,0.0,0.0,0.0,0.0,0.0,0.0,0.0,0.0,0.0,0.0,0.0,0.0,0.0,0.0,0.0,0.0,0.0,0.0,0.0,0.0,0.0,0.0,0.0,0.0,0.0,-7.593,-7.3918,-7.2663,-7.3369,-7.3343,-7.3317,-7.3447,-7.2402,-7.2925,-7.5695,-7.4362,0.0,0.0,0.0,0.0,0.0,0.0,0.0,0.0,0.0,0.0,0.0,0.0,0.0,0.0,0.0,0.0,0.0,0.0,0.0,0.0,0.0,0.0,0.0,0.0,0.0,0.0,0.0,0.0,0.0,0.0,0.0,0.0,0.0,0.0,0.0,0.0,0.0,0.0,0.0,0.0,0.0,0.0,0.0,0.0,0.0,0.0,0.0,0.0,0.0,0.0,0.0,0.0,0.0,0.0,0.0,0.0,0.0,0.0,0.0,-6.6631,-6.5824,0.0,0.0,0.0,0.0,0.0,0.0,0.0,0.0,0.0,0.0,0.0,0.0,0.0,0.0,0.0,0.0,0.0,0.0,0.0,0.0,0.0,0.0,0.0,0.0,0.0,0.0,0.0,0.0,0.0,0.0,0.0,0.0,0.0,0.0,0.0,0.0,0.0,0.0,0.0,0.0,-7.729,-7.4911,-7.3343,-7.3944,-7.3996,-7.3996,-7.3996,-7.3186,-7.3447,-7.5251,-7.4728,0.0,0.0,0.0,0.0,0.0,0.0,0.0,0.0,0.0,0.0,0.0,0.0,0.0,0.0,0.0,0.0,0.0,0.0,0.0,0.0,0.0,0.0,0.0,0.0,0.0,0.0,0.0,0.0,0.0,0.0,0.0,0.0,0.0,0.0,0.0,0.0,0.0,0.0,0.0,0.0,0.0,0.0,0.0,0.0,0.0,0.0,0.0,0.0,0.0,0.0,0.0,0.0,0.0,-6.5272,-6.5272,-6.547,-6.7501,-6.8319,-6.78,-6.7866,-6.748,-6.6831,-6.7026,0.0,0.0,0.0,0.0,0.0,0.0,0.0,0.0,0.0,0.0,0.0,0.0,0.0,0.0,0.0,0.0,0.0,0.0,0.0,0.0,0.0,0.0,-7.2082,-7.1574,-7.1147,-7.0468,-6.9501,0.0,0.0,0.0,0.0,0.0,0.0,0.0,0.0,0.0,0.0,0.0,-7.8074,-7.5382,-7.3656,-7.4232,-7.431,-7.431,-7.431,-7.3761,-7.3683,-7.4258,-7.5094,-7.593,0.0,0.0,0.0,0.0,0.0,0.0,0.0,0.0,0.0,0.0,0.0,0.0,0.0,0.0,0.0,0.0,0.0,0.0,0.0,0.0,0.0,0.0,0.0,0.0,0.0,0.0,0.0,0.0,0.0,0.0,0.0,0.0,-5.7399,-5.6972,0.0,0.0,0.0,0.0,0.0,0.0,0.0,0.0,0.0,0.0,0.0,0.0,0.0,-6.7195,-6.7067,-6.7389,-6.7517,-6.762,-6.7957,-6.8319,-6.8319,-6.9085,-6.9436,-6.9332,-6.9932,0.0,-6.7996,-6.8448,0.0,0.0,0.0,0.0,0.0,0.0,0.0,0.0,0.0,0.0,0.0,0.0,0.0,0.0,0.0,0.0,0.0,0.0,0.0,0.0,0.0,0.0,-7.1722,-7.2088,-7.1722,-7.1252,-7.1095,-7.1539,-7.2219,-7.3055,-7.4519,-7.6349,0.0,0.0,0.0,0.0,0.0,0.0,-7.7629,-7.5878,-7.4885,-7.5434,-7.5486,-7.5486,-7.5486,-7.499,-7.4911,-7.546,-7.5199,-7.5721,-7.729,-7.7577,0.0,0.0,0.0,0.0,0.0,0.0,0.0,0.0,0.0,0.0,0.0,0.0,0.0,0.0,0.0,0.0,0.0,0.0,0.0,0.0,0.0,0.0,0.0,0.0,0.0,0.0,0.0,0.0,0.0,-5.8956,-6.0236,-6.0286,-6.1416,-6.2345,0.0,0.0,0.0,0.0,0.0,0.0,0.0,0.0,0.0,-6.7042,-6.8149,-6.8629,-6.8177,-6.8851,-6.9007,-6.8981,-6.9488,-6.984,-6.984,-7.0389,-7.0651,-7.0703,-7.1618,-7.1366,-7.0464,-7.0326,-7.0849,-7.1601,0.0,0.0,0.0,0.0,-7.1191,-7.1293,-7.0703,-7.0261,-7.021,-7.1775,0.0,0.0,0.0,0.0,0.0,0.0,0.0,-7.4313,-7.4078,-7.3735,-7.3264,-7.2846,-7.2323,-7.1801,-7.1461,-7.1879,-7.2559,-7.3447,-7.5277,-7.7525,-8.0191,-7.9773,0.0,0.0,0.0,-7.7865,-7.7943,-7.6715,-7.5957,-7.6192,-7.6505,-7.6558,-7.6244,-7.6009,-7.5826,-7.5721,-7.58,-7.6218,-7.695,-7.8231,-7.891,0.0,0.0,0.0,0.0,0.0,0.0,0.0,0.0,0.0,0.0,0.0,0.0,0.0,0.0,0.0,0.0,0.0,0.0,0.0,0.0,0.0,0.0,0.0,0.0,0.0,0.0,0.0,0.0,-6.0889,-6.2421,-6.2973,-6.355,-6.4153,0.0,0.0,0.0,0.0,0.0,0.0,-6.726,-6.8699,-6.9025,-6.7956,-6.9305,-6.9735,-6.9082,-6.9631,-6.9919,-6.9919,-7.052,-7.0886,-7.1043,-7.1592,-7.1827,-7.1905,-7.2898,-7.3108,-7.2716,-7.218,-7.2108,-7.2471,-7.2631,-7.299,-7.3246,-7.2245,-7.2065,-7.2116,-7.1361,-7.0836,-7.0732,-7.2643,-7.3061,-7.2912,-7.465,0.0,0.0,0.0,0.0,-7.5221,-7.4729,-7.4676,-7.4441,-7.3552,-7.3029,-7.2559,-7.1958,-7.2533,-7.3291,-7.3709,-7.5408,-7.7682,-8.0426,-7.9459,0.0,-8.1759,-7.972,-7.7891,-7.7891,-7.7263,-7.6819,-7.6819,-7.7211,-7.729,-7.6871,-7.6819,-7.6636,-7.6192,-7.6715,-7.6976,-7.6845,-7.8597,-7.9119,-7.8126,0.0,0.0,0.0,0.0,0.0,0.0,0.0,0.0,0.0,0.0,0.0,0.0,0.0,0.0,0.0,0.0,0.0,0.0,0.0,0.0,0.0,0.0,0.0,0.0,0.0,0.0,0.0,0.0,0.0,-6.3576,-6.4103,0.0,0.0,0.0,0.0,-6.6566,-6.8168,-6.9007,-6.8954,-7.0041,-7.0317,-6.9657,-7.0259,-7.0285,-6.9657,-7.0259,-7.0546,-7.0546,-7.1095,-7.167,-7.2219,-7.2768,-7.3029,-7.3055,-7.3683,-7.3944,-7.3892,-7.3291,-7.3735,-7.4547,-7.3664,-7.426,-7.5425,-7.3225,-7.2086,-7.1387,-7.0245,-6.9814,-6.9971,-7.1147,-7.3343,-7.5565,-7.5669,-7.6871,0.0,0.0,-7.614,-7.6192,-7.4493,-7.4049,-7.4049,-7.397,-7.3944,-7.3761,-7.316,-7.4336,-7.5068,-7.3474,-7.4179,-7.5774,-7.81,0.0,-7.8387,-7.8544,-7.8858,-7.8518,-7.6898,-7.7133,-7.742,-7.742,-7.7446,-7.7446,-7.742,-7.742,-7.7394,-7.7368,-7.7917,-7.7995,-7.7446,-7.8048,-7.8884,-7.9877,-7.9433,0.0,0.0,0.0,0.0,0.0,0.0,0.0,0.0,0.0,0.0,0.0,0.0,0.0,0.0,0.0,0.0,0.0,0.0,0.0,0.0,0.0,0.0,0.0,0.0,0.0,0.0,0.0,0.0,-6.4128,-6.4991,0.0,-6.6923,-6.7716,-6.8416,-6.9128,-6.9394,-6.9409,-6.9541,-7.0126,-7.0531,-7.0285,-7.0807,-7.12,-7.1356,-7.1931,-7.2219,-7.2219,-7.2794,-7.3186,-7.3421,-7.3996,-7.4258,-7.4284,-7.4859,-7.5329,-7.5669,-7.546,-7.4937,-7.431,-7.3895,-7.3947,-7.3845,-7.2675,-7.2102,-7.2018,-7.1592,-7.1592,-7.201,-7.282,-7.4284,-7.5643,-7.5303,-7.5878,-7.6453,-7.546,-7.5355,-7.5382,-7.4754,-7.4597,-7.4676,-7.5016,-7.5094,-7.5042,-7.4833,-7.5591,-7.6113,-7.5486,-7.5721,-7.661,-7.8544,-7.7943,-7.7708,-7.9198,-7.8962,-7.8414,-7.7786,-7.8544,-7.9119,-7.9119,-7.9433,-7.9511,-7.9145,-7.8779,-7.8414,-7.8048,-7.8544,-7.844,-7.7499,-7.8727,-7.9093,-7.8387,-7.8544,-8.0191,0.0,0.0,0.0,0.0,0.0,0.0,0.0,0.0,0.0,0.0,0.0,0.0,0.0,0.0,0.0,0.0,0.0,0.0,0.0,0.0,0.0,0.0,0.0,0.0,0.0,-6.3375,-6.4228,-6.51,-6.569,-6.6713,-6.8585,-6.8742,-6.9135,-7.0265,-7.014,-7.0076,-7.0259,-7.1017,-7.1435,-7.1435,-7.1984,-7.248,-7.2872,-7.3238,-7.3526,-7.3709,-7.4127,-7.4414,-7.4597,-7.5199,-7.5591,-7.58,-7.6349,-7.6924,-7.7499,-7.7682,-7.6976,-7.5721,-7.5329,-7.4807,-7.4232,-7.3656,-7.3212,-7.2846,-7.2637,-7.2951,-7.35,-7.4127,-7.4937,-7.5643,-7.5277,-7.5565,-7.593,-7.5591,-7.5617,-7.5721,-7.5538,-7.5486,-7.5512,-7.5669,-7.5721,-7.5721,-7.5721,-7.6192,-7.6662,-7.6871,-7.7054,-7.7551,-7.8675,-7.81,-7.8257,-8.0557,-7.9747,-7.9172,-7.9956,-8.0217,-8.0322,-8.0322,-8.0661,-8.0714,-8.0348,-8.0844,-8.0714,-7.9564,-8.0557,-8.0426,-7.8675,-8.0452,-8.0844,-7.9511,-7.9668,-8.108,-8.372,0.0,0.0,0.0,0.0,0.0,0.0,0.0,0.0,0.0,0.0,0.0,0.0,0.0,0.0,0.0,0.0,0.0,0.0,0.0,0.0,0.0,0.0,0.0,-6.3802,-6.4178,-6.5075,-6.6644,-6.6315,-6.678,-6.8758,-6.8591,-6.8683,-6.9762,-7.0337,-7.0912,-7.1461,-7.2533,-7.3134,-7.316,-7.3735,-7.4049,-7.4049,-7.4075,-7.4388,-7.4963,-7.499,-7.5251,-7.58,-7.6375,-7.695,-7.7499,-7.8048,-7.8623,-7.9172,-7.9747,-7.9642,-7.9067,-7.7943,-7.7159,-7.6584,-7.5983,-7.5042,-7.397,-7.3421,-7.3604,-7.4179,-7.478,-7.5329,-7.5774,-7.5748,-7.6166,-7.6636,-7.661,-7.7028,-7.7342,-7.6793,-7.6662,-7.6532,-7.5983,-7.5852,-7.5878,-7.5904,-7.6375,-7.6976,-7.7525,-7.8074,-7.8466,-7.8387,-7.8858,-8.0008,-8.2256,-8.1184,0.0,-8.3197,-8.2021,-8.1001,-8.108,-8.1106,-8.108,-8.1053,-8.3615,-8.4216,-8.189,-8.385,-8.3824,-8.1001,-8.304,-8.3981,-8.3406,-8.2935,-8.2125,-8.0975,0.0,0.0,0.0,0.0,0.0,0.0,0.0,0.0,0.0,0.0,0.0,0.0,0.0,0.0,0.0,0.0,0.0,0.0,0.0,0.0,0.0,-6.5936,-6.5333,-6.4379,-6.5395,-6.612,-6.5704,-6.7137,-6.851,-6.9059,-7.0032,-7.0949,-7.2088,-7.2323,-7.2663,-7.3264,-7.3578,-7.397,-7.4388,-7.4571,-7.4859,-7.5251,-7.5669,-7.5983,-7.614,-7.6558,-7.6845,-7.6976,-7.7159,-7.7316,-7.7473,-7.7629,-7.8021,-7.857,-7.8727,-7.8936,-7.9145,-7.8832,-7.8361,-7.7734,-7.6741,-7.5904,-7.5277,-7.5565,-7.5748,-7.593,-7.6087,-7.6532,-7.6898,-7.6505,-7.6767,-7.7133,-7.6715,-7.7028,-7.742,-7.7263,-7.7525,-7.8021,-7.8675,-7.9145,-7.959,-8.0008,-8.0557,-8.1027,-8.1184,-8.1681,-8.1524,-7.9851,-8.04,-8.1289,-8.1916,-8.2308,-8.2752,-8.3406,-8.3432,-8.4033,-8.5706,-8.5889,-8.5549,-8.4713,-8.5392,-8.4504,-8.1315,-8.2125,-8.2151,-8.0923,-8.1916,-8.2204,-8.1602,-8.3092,-8.372,0.0,0.0,0.0,0.0,0.0,0.0,0.0,0.0,0.0,0.0,0.0,0.0,0.0,0.0,0.0,0.0,0.0,0.0,0.0,0.0,0.0,0.0,-6.6338,-6.5986,-6.5584,-6.6032,-6.6601,-6.6525,-6.8348,-6.9791,-7.0384,-7.1452,-7.2506,-7.3421,-7.3709,-7.4022,-7.4362,-7.4597,-7.499,-7.5591,-7.5617,-7.5878,-7.6453,-7.6793,-7.6976,-7.6976,-7.7316,-7.7473,-7.7473,-7.7969,-7.8309,-7.857,-7.9067,-7.9459,-7.9773,-7.9773,-7.9799,-7.9851,0.0,0.0,0.0,0.0,-7.7473,-7.7211,-7.7577,-7.7682,-7.7682,-7.7682,-7.7917,-7.8126,-7.7786,-7.8074,-7.8466,-7.8126,-7.8623,-7.9276,-7.9276,-7.9694,-8.0295,-8.0949,-8.1367,-8.1707,-8.2047,-8.2596,-8.2988,-8.2988,-8.3458,0.0,-8.2073,-8.2387,-8.3171,-8.4164,-8.4033,-8.419,-8.5157,-8.453,-8.4504,-8.5837,-8.5758,-8.5366,-8.4687,-8.5732,0.0,0.0,0.0,-8.3772,-8.3406,-8.351,0.0,0.0,0.0,-8.4478,-8.3275,-8.4007,0.0,0.0,-8.1446,-8.0949,0.0,0.0,0.0,0.0,0.0,0.0,0.0,0.0,0.0,0.0,0.0,0.0,0.0,0.0,0.0,0.0,-6.6287,-6.6438,-6.7066,-6.6714,-6.6959,-6.8406,-6.9727,-7.0978,-7.2357,-7.3029,-7.3552,-7.4153,-7.4754,-7.5094,-7.5094,-7.5617,0.0,0.0,0.0,-7.695,-7.7446,-7.7525,-7.7603,-7.7656,-7.7708,-7.7786,-7.7891,-7.891,-7.959,-8.0086,-8.1132,-8.155,-8.1472,-8.1472,-8.121,-8.074,-8.0295,-7.9799,-7.9355,-7.9355,-7.9355,-7.9355,-7.9355,0.0,0.0,-7.9355,-7.9407,-7.9459,-7.9459,-7.9877,-8.0322,-8.0322,-8.108,-8.189,-8.1942,-8.2334,-8.2752,-8.2883,-8.2909,-8.2935,-8.3014,-8.3432,-8.3746,-8.3693,-8.4085,-8.4425,-8.4347,-8.4399,-8.5131,-8.7196,-8.5811,-8.5288,-8.7327,-8.5366,-8.3876,-8.4138,-8.372,0.0,-8.3223,-8.5601,-8.6046,-8.3641,-8.5445,-8.6542,-8.6412,-8.5967,-8.5967,-8.649,-8.5967,-8.4504,-8.2073,-8.1446,-8.1158,-8.121,-8.2569,-8.2073,0.0,0.0,0.0,0.0,0.0,0.0,0.0,0.0,0.0,0.0,0.0,0.0,0.0,0.0,0.0,-6.812,-6.7392,-6.7166,-6.817,-6.8196,-6.8524,-6.979,-7.1495,-7.2857,-7.3742,-7.4312,-7.478,-7.5355,-7.593,-7.627,-7.627,-7.6819,-7.7185,-7.729,-7.7316,-7.7342,-7.7473,-7.7917,-7.8387,-7.8858,-7.9302,0.0,-8.0217,-8.0452,-8.0348,-8.0034,-8.0269,-8.0113,-7.9668,-7.9668,-7.9877,-8.0217,-8.0583,-8.0635,-8.0557,-8.0557,-8.0557,-8.0557,-8.0557,-8.0557,-8.0557,-8.0557,-8.0871,-8.1263,-8.1263,-8.1681,0.0,-8.2125,-8.2282,-8.2569,-8.304,-8.3223,-8.3537,-8.4478,-8.4687,-8.4817,-8.5314,-8.5497,-8.5445,-8.4948,-8.4948,-8.487,-8.4425,-8.4713,-8.5183,-8.5628,-8.5732,-8.5915,-8.6359,-8.5915,-8.6281,-8.8137,-8.8241,-8.7797,-8.6882,-8.7693,-8.6908,-8.3693,-8.4321,-8.4425,-8.3484,-8.3354,-8.3563,-8.4138,-8.3589,-8.3484,-8.385,-8.3275,-8.2988,-8.2962,-8.189,-8.1132,0.0,0.0,0.0,0.0,0.0,0.0,0.0,0.0,0.0,0.0,0.0,-6.4776,-6.6382,0.0,-6.7175,-6.8394,-6.817,-6.8196,-6.93,-6.9812,-7.0272,-7.0911,-7.2142,-7.3353,-7.4443,-7.5225,-7.5878,-7.614,-7.6715,-7.7028,-7.7028,-7.7316,-7.7603,-7.7891,-7.7891,-7.8021,-7.8309,-7.8884,-7.9302,-7.9616,-8.0191,-8.0452,-8.0452,-8.074,-8.0557,-8.0034,-8.0322,-8.0295,-8.0034,-8.0034,-8.0191,-8.0478,-8.0766,-8.1053,-8.1315,-8.1315,-8.1498,-8.1785,-8.2073,-8.2177,-8.223,-8.2517,-8.2805,-8.3066,-8.3066,-8.3249,-8.3484,-8.3484,-8.3693,-8.3981,-8.4268,-8.4556,-8.4922,-8.5497,-8.5419,-8.5262,-8.5575,-8.5628,-8.5549,-8.5262,-8.5183,-8.5105,-8.4817,-8.5,-8.5105,-8.4817,-8.5262,-8.5628,-8.5628,-8.5628,-8.6072,-8.7222,-8.7091,-8.6699,-8.6124,-8.6307,-8.5732,-8.4007,-8.4164,-8.4216,-8.3929,-8.3903,-8.419,-8.4765,-8.4216,-8.419,-8.4765,-8.419,-8.3903,-8.3903,-8.3014,-8.2151,0.0,0.0,0.0,0.0,0.0,0.0,0.0,-6.6109,-6.6766,-6.6162,-6.4864,-6.4528,-6.6978,-6.689,-6.692,-6.8719,-6.8949,-6.9275,-7.028,-7.1236,-7.1883,-7.2192,-7.2784,-7.3663,-7.5172,-7.6166,-7.6767,-7.6767,-7.7316,-7.7629,-7.7629,-7.7839,-7.8178,-7.8649,-7.8753,-7.9041,-7.9485,-7.9851,-8.0086,-8.0191,-8.0661,-8.0688,-8.0374,-8.0949,-8.0897,-8.0374,-8.074,-8.0871,-8.0871,-8.0871,-8.0871,-8.0871,-8.0871,-8.1236,-8.1785,-8.1785,-8.2125,-8.2726,-8.3275,-8.3484,-8.3589,-8.4164,-8.4425,-8.4504,-8.4504,-8.4582,-8.4687,-8.4687,-8.5,-8.534,-8.5209,-8.5549,-8.5889,-8.5784,-8.5366,-8.5026,-8.5026,-8.5026,-8.5026,-8.5026,-8.5026,-8.5026,-8.5026,-8.5105,-8.5026,-8.4582,-8.5,-8.5366,-8.5366,-8.5366,-8.5366,-8.5366,-8.4948,-8.4687,-8.4687,-8.4687,-8.4634,-8.4504,-8.4504,-8.4661,-8.5,-8.5026,-8.5314,-8.5889,-8.5445,-8.5288,-8.5523,-8.5053,-8.4896,-8.5,-8.5,-8.4033,-7.2316,-7.2177,-6.9338,-6.6084,-6.5852,-6.5165,0.0,-6.0844,-6.2544,-5.9934,-6.2179,-6.4919,-6.5827,-6.7661,-6.932,-7.0003,-7.0079,-7.0305,-7.0907,-7.1595,-7.2471,-7.3909,-7.4752,-7.5564,-7.6375,-7.7002,-7.7368,-7.7368,-7.7891,-7.8231,-7.8231,-7.9198,-7.9773,-7.9825,-8.0322,-8.0609,-8.0688,-8.0243,-8.0269,-8.0792,-8.0844,-8.1132,-8.1602,-8.2177,-8.2125,-8.155,-8.108,-8.0871,-8.0871,-8.0871,-8.0871,-8.0871,-8.0871,-8.1236,-8.1785,-8.1785,-8.2125,-8.2726,-8.3275,-8.3484,-8.3589,-8.4164,-8.4687,-8.5105,-8.5105,-8.5471,-8.5889,-8.5889,-8.5941,-8.5863,-8.5314,-8.5236,-8.5157,-8.4661,-8.4478,-8.4425,-8.4425,-8.4425,-8.4425,-8.4425,-8.4425,-8.4425,-8.4425,-8.487,-8.5157,-8.5105,-8.5601,-8.5994,-8.5994,-8.5994,-8.5994,-8.5994,-8.5941,-8.5889,-8.5889,-8.5889,-8.5654,-8.5131,-8.5105,-8.4896,-8.4451,-8.4425,-8.4713,-8.5288,-8.5209,-8.568,-8.6699,-8.6647,-8.6882,-8.7405,-8.7405,-8.6203,-6.8009,-6.9298,-6.9155,-6.4529,-6.4455,-6.4937,-6.1854,-6.2232,-6.2696,-6.1592,-6.0651,-6.1299,-6.5389,-6.607,-6.706,-7.0213,-7.1008,-7.141,-7.1962,-7.2703,-7.3824,-7.5139,-7.6375,-7.7174,-7.7159,-7.7917,-7.8466,-7.8466,-7.9302,-7.9799,-7.9799,-8.0243,-8.0505,-8.0505,-8.074,-8.0871,-8.0871,-8.1001,-8.1158,-8.1419,-8.1733,-8.1864,-8.1785,-8.2021,-8.1811,-8.1263,-8.1367,-8.1393,-8.1419,-8.1759,-8.189,-8.189,-8.189,-8.2047,-8.223,-8.189,-8.2125,-8.2726,-8.3275,-8.3484,-8.3589,-8.4164,-8.4504,-8.4687,-8.4687,-8.487,-8.5131,-8.5471,-8.5811,-8.6098,-8.6177,-8.6438,-8.6647,-8.6412,-8.6072,-8.5837,-8.5837,-8.5837,-8.5837,-8.5837,-8.6098,-8.6359,-8.6359,-8.6542,-8.6699,-8.6699,-8.6621,-8.6569,-8.6569,-8.6856,-8.7091,-8.7091,-8.7091,-8.7091,-8.7091,-8.7091,-8.683,-8.6229,-8.6177,-8.5941,-8.5366,-8.5366,-8.5471,-8.5706,-8.5706,-8.5941,-8.6412,-8.6412,-8.6725,-8.7274,-8.7274,-8.6935,-6.7476,-6.8318,-6.886,-6.3896,-6.3649,-6.4123,-6.3332,-6.3076,-6.3096,-6.3183,-6.0943,-6.0332,-6.5234,-6.5518,-6.6133,-6.9806,-7.1387,-7.2339,-7.2891,-7.3951,-7.4991,-7.6101,-7.7563,-7.8531,-7.8302,-7.9145,-7.9642,-7.9642,-8.04,-8.0871,-8.0871,-8.1027,-8.1132,-8.1132,-8.1289,-8.1367,-8.1367,-8.1629,-8.1785,-8.1785,-8.2204,-8.2177,-8.1785,-8.1942,-8.1759,-8.1393,-8.1994,-8.2256,-8.2282,-8.2857,-8.3092,-8.3092,-8.3092,-8.3092,-8.3066,-8.2648,-8.2648,-8.2962,-8.3693,-8.4059,-8.4295,-8.487,-8.5157,-8.5262,-8.5105,-8.5157,-8.534,-8.5575,-8.6098,-8.6621,-8.683,-8.7222,-8.751,-8.7353,-8.6987,-8.6673,-8.6673,-8.6673,-8.6725,-8.6856,-8.7248,-8.7588,-8.7771,-8.7928,-8.8006,-8.8006,-8.7797,-8.7483,-8.717,-8.7536,-8.7797,-8.7797,-8.7797,-8.7797,-8.7797,-8.7797,-8.7614,-8.717,-8.7144,-8.6961,-8.6569,-8.6569,-8.6569,-8.6569,-8.6569,-8.6621,-8.6778,-8.6778,-8.7065,-8.7614,-8.7614,-8.7849,-7.3919,-7.2279,-7.0511,-6.5707,-6.3321,-6.1789,-6.0899,-6.1591,-6.227,-6.2428,-6.3388,-6.4564,-6.5263,-6.7116,-6.8661,-6.8709,-7.094,-7.2916,-7.3494,-7.4498,-7.5573,-7.6716,-7.8152,-7.9412,-7.998,-8.0596,-8.0818,-8.0818,-8.0844,-8.0871,-8.0871,-8.1419,-8.1759,-8.1759,-8.2282,-8.2569,-8.2569,-8.2047,-8.1785,-8.1785,-8.1785,-8.1785,-8.1785,-8.236,-8.2596,-8.2596,-8.3197,-8.3432,-8.3484,-8.4059,-8.4295,-8.4295,-8.4295,-8.4295,-8.4295,-8.4268,-8.3929,-8.3615,-8.4739,-8.5523,-8.6098,-8.6647,-8.7222,-8.7588,-8.6987,-8.7222,-8.7562,-8.7013,-8.7274,-8.7614,-8.7039,-8.6908,-8.6778,-8.6281,-8.6124,-8.6124,-8.6124,-8.6124,-8.6281,-8.6804,-8.6908,-8.7117,-8.7693,-8.8241,-8.8581,-8.8581,-8.9052,-8.9026,-8.7902,-8.7797,-8.7797,-8.7797,-8.7797,-8.7797,-8.7797,-8.7797,-8.7797,-8.7771,-8.7771,-8.7771,-8.7745,-8.7745,-8.7745,-8.7745,-8.7745,-8.8006,-8.8529,-8.8529,-8.8843,-8.9418,-8.9418,-8.9418,-7.336,-7.0579,-6.7976,-6.4371,-6.3114,-6.2866,-6.2555,-6.2178,-6.2127,-6.2127,-6.3587,-6.5401,-6.7323,-6.8203,-6.9632,-7.2495,-7.2323,-7.2421,-7.4404,-7.5327,-7.6328,-7.7832,-7.8994,-7.9854,-8.0055,-8.0852,-8.1472,-8.1472,-8.2177,-8.2439,-8.2073,-8.2596,-8.2726,-8.236,-8.2543,-8.2622,-8.2622,-8.2439,-8.2334,-8.236,-8.2726,-8.2909,-8.2935,-8.351,-8.3772,-8.3772,-8.3955,-8.4059,-8.4059,-8.4268,-8.4347,-8.4347,-8.4347,-8.4347,-8.4373,-8.4765,-8.4765,-8.4608,-8.4608,-8.4765,-8.5026,-8.5575,-8.5889,-8.6098,-8.6307,-8.649,-8.6699,-8.6856,-8.7327,-8.7823,-8.798,-8.832,-8.8581,-8.8398,-8.8346,-8.8346,-8.8346,-8.8346,-8.8398,-8.8581,-8.8633,-8.8686,-8.8895,-8.9078,-8.9208,-8.9208,-8.9365,-8.9365,-8.8973,-8.8921,-8.8921,-8.8921,-8.8921,-8.8921,-8.8921,-8.8921,-8.8764,-8.8346,-8.832,-8.8163,-8.7797,-8.7797,-8.7797,-8.7797,-8.7797,-8.7875,-8.8058,-8.8058,-8.8346,-8.8895,-8.8895,-8.9104,-7.197,-6.9379,-6.7081,-6.3774,-6.3135,-6.3321,-6.3176,-6.2679,-6.2307,-6.2472,-6.4146,-6.6353,-6.8085,-6.9341,-7.1349,-7.4633,-7.4289,-7.4117,-7.6132,-7.7059,-7.7863,-7.8368,-7.9684,-8.0549,-8.0751,-8.1358,-8.1908,-8.19,-8.2734,-8.3021,-8.2648,-8.2988,-8.3014,-8.2648,-8.2622,-8.2622,-8.2622,-8.2831,-8.304,-8.3249,-8.3615,-8.3798,-8.3798,-8.4164,-8.4347,-8.4347,-8.4556,-8.4634,-8.4661,-8.5079,-8.5262,-8.5262,-8.5262,-8.5392,-8.5601,-8.5732,-8.5811,-8.5732,-8.5366,-8.5392,-8.568,-8.6229,-8.6542,-8.6752,-8.6935,-8.7144,-8.7327,-8.7457,-8.7928,-8.8477,-8.8843,-8.9208,-8.9496,-8.9496,-8.9496,-8.9496,-8.9496,-8.9496,-8.9496,-8.9496,-8.9496,-8.9496,-8.9496,-8.9496,-8.9496,-8.9496,-8.9496,-8.9496,-8.9496,-8.9496,-8.9496,-8.9496,-8.9496,-8.9496,-8.9496,-8.9496,-8.9339,-8.8947,-8.8921,-8.8764,-8.8424,-8.8398,-8.8398,-8.8398,-8.8398,-8.8398,-8.8398,-8.8398,-8.8581,-8.8921,-8.8921,-8.913,-7.0692,-6.8744,-6.7515,-6.4497,-6.3604,-6.3459,-6.2824,-6.2741,-6.2886,-6.3584,-6.5581,-6.747,-6.8238,-7.0913,-7.3422,-7.5331,-7.6584,-7.766,-7.839,-7.9444,-7.9771,-7.8741,-7.9958,-8.1235,-8.1853,-8.1853,-8.1827,-8.1668,-8.231,-8.259,-8.2648,-8.2648,-8.2648,-8.2622,-8.2648,-8.2674,-8.2674,-8.3249,-8.3798,-8.4347,-8.4373,-8.4373,-8.4373,-8.4451,-8.4478,-8.4504,-8.5079,-8.5314,-8.5419,-8.649,-8.6935,-8.6935,-8.6935,-8.73,-8.7719,-8.7144,-8.6935,-8.6935,-8.6987,-8.7327,-8.7849,-8.8424,-8.8999,-8.9365,-8.8816,-8.9052,-8.9391,-8.8816,-8.9052,-8.9496,-8.9496,-8.9496,-8.9496,-8.9496,-8.9496,-8.9496,-8.9496,-8.9496,-8.9496,-8.9496,-8.9496,-8.9496,-8.9496,-8.9496,-8.9496,-8.9496,-8.9496,-8.9496,-8.9496,-8.9496,-8.9496,-8.9496,-8.9496,-8.9496,-8.9496,-8.9496,-8.9496,-8.9496,-8.9496,-8.9496,-8.9496,-8.9496,-8.9496,-8.9496,-8.9496,-8.9496,-8.9496,-8.9496,-8.9496,-8.9496,-8.9496,-8.9496,-7.1045,-6.9262,-6.6929,-6.6623,-6.6168,-6.5538,-6.4096,-6.3445,-6.4192,-6.7024,-6.9691,-7.2302,-7.572,-7.4657,-7.4503,-7.8396,-7.5388,-7.392,-7.7457,-7.8892,-7.9645,-7.9771,-8.0437,-8.0821,-8.0614,-8.1029,-8.1212,-8.1262,-8.2132,-8.2413,-8.2045,-8.2839,-8.3066,-8.2648,-8.304,-8.3275,-8.3275,-8.3824,-8.419,-8.4347,-8.4765,-8.4974,-8.5,-8.5863,-8.6255,-8.6281,-8.6882,-8.7117,-8.7144,-8.7431,-8.7562,-8.7562,-8.7562,-8.7666,-8.7771,-8.7614,-8.7562,-8.7614,-8.8032,-8.7719,-8.7274,-8.8268,-8.8712,-8.8895,-8.9182,-8.9365,-8.947,-8.9313,-8.9391,-8.9496,-8.9496,-8.9496,-8.9496,-8.9496,-8.9496,-8.9496,-8.9496,-8.9496,-8.9496,-8.9496,-8.9496,-8.9496,-8.9496,-8.9496,-8.9496,-8.9496,-8.9496,-8.9496,-8.9496,-8.9496,-8.9496,-8.9496,-8.9496,-8.9496,-8.9496,-8.9496,-8.9496,-8.9496,-8.9496,-8.9496,-8.9496,-8.9496,-8.9496,-8.9496,-8.9496,-8.9496,-8.9496,-8.9496,-8.9496,-8.9496,-8.9496,-8.9496,-6.826,-6.6733,-6.532,-6.5597,-6.5768,-6.6003,-6.6293,-6.6208,-6.7045,-7.0871,-7.3624,-7.6087,-7.9074,-7.7189,-7.6357,-7.9507,-7.6503,-7.4693,-7.7521,-7.962,-8.085,-8.0901,-8.0909,-8.1068,-8.1321,-8.0892,-8.0796,-8.134,-8.2007,-8.221,-8.2247,-8.2969,-8.3327,-8.3014,-8.3563,-8.3981,-8.4216,-8.4556,-8.4843,-8.5105,-8.5419,-8.5575,-8.5601,-8.6255,-8.6673,-8.6908,-8.7248,-8.7562,-8.7823,-8.8346,-8.8555,-8.8555,-8.8843,-8.9078,-8.9261,-8.9026,-8.8947,-8.9026,-8.9548,-8.9156,-8.8503,-8.8869,-8.8999,-8.9052,-8.9391,-8.9496,-8.9496,-8.9496,-8.9496,-8.9496,-8.9496,-8.9496,-8.9496,-8.9496,-8.9496,-8.9496,-8.9496,-8.9496,-8.9496,-8.9496,-8.9496,-8.9496,-8.9496,-8.9496,-8.9496,-8.9496,-8.9496,-8.9496,-8.9496,-8.9496,-8.9496,-8.9496,-8.9496,-8.9496,-8.9496,-8.9496,-8.9496,-8.9496,-8.9496,-8.9496,-8.9496,-8.9496,-8.9496,-8.9496,-8.9496,-8.9496,-8.9496,-8.9496,-8.9496,-8.9496,-8.9496,-8.9496,-6.4549,-6.3804,-6.3804,-6.3929,-6.4555,-6.596,-6.8736,-6.9314,-7.0358,-7.4822,-7.7372,-7.9249,-8.0583,-7.9394,-7.8352,-7.9729,-7.8349,-7.7534,-7.8016,-8.0361,-8.1953,-8.198,-8.1403,-8.1488,-8.2517,-8.1111,-8.0633,-8.1815,-8.1824,-8.193,-8.2481,-8.3125,-8.3412,-8.349,-8.419,-8.4713,-8.5288,-8.5314,-8.5575,-8.6098,-8.6098,-8.6098,-8.6098,-8.615,-8.649,-8.7013,-8.7091,-8.751,-8.8215,-8.9208,-8.9653,-8.9784,-9.0306,-9.0777,-9.1117,-9.0672,-9.0489,-9.0568,-9.1038,-9.0934,-9.0411,-8.9888,-8.9731,-8.9731,-8.9731,-8.9679,-8.9627,-8.9705,-8.9627,-8.9522,-8.9601,-8.9574,-8.9496,-8.9496,-8.9496,-8.9496,-8.9496,-8.9496,-8.9496,-8.9496,-8.9496,-8.9496,-8.9496,-8.9496,-8.9496,-8.9496,-8.9496,-8.9496,-8.9496,-8.9574,-8.9627,-8.9627,-8.9679,-8.9731,-8.9731,-8.9731,-8.9731,-8.9731,-8.9731,-8.9705,-8.9627,-8.9627,-8.9574,-8.9496,-8.9496,-8.9496,-8.9496,-8.9496,-8.9496,-8.9496,-8.9496,-8.9496,-6.5844,-6.6126,-6.6321,-6.7121,-6.7445,-6.8101,-7.0015,-7.0015,-7.1697,-7.831,-7.9843,-8.0902,-8.433,-8.2841,-8.0597,-7.9608,-7.7378,-7.6123,-7.6886,-7.8233,-7.9878,-8.2243,-8.1629,-8.1428,-8.2646,-8.1127,-8.0633,-8.179,-8.1739,-8.1846,-8.1952,-8.2443,-8.2932,-8.342,-8.4562,-8.5107,-8.5263,-8.5707,-8.5994,-8.6098,-8.6098,-8.6098,-8.6098,-8.6542,-8.7065,-8.7666,-8.8111,-8.8921,-8.9966,-9.0149,-9.0489,-9.0934,-9.1038,-9.1117,-9.1195,-9.1117,-9.1038,-9.109,-9.1195,-9.1117,-9.1038,-9.0934,-9.0934,-9.0934,-9.0934,-9.0594,-9.0332,-9.0777,-9.0228,-8.9627,-9.0123,-8.9862,-8.9496,-8.9496,-8.9496,-8.9496,-8.9496,-8.9496,-8.9496,-8.9496,-8.9496,-8.9496,-8.9496,-8.9496,-8.9496,-8.9496,-8.9496,-8.9496,-8.9496,-8.994,-9.0228,-9.0228,-9.0646,-9.0934,-9.0934,-9.0934,-9.0934,-9.0934,-9.0934,-9.0698,-9.0228,-9.0228,-9.0019,-8.9522,-8.9496,-8.9496,-8.9496,-8.9496,-8.9496,-8.9496,-8.9496,-8.9496,-6.4373,-6.5059,-6.5548,-6.6016,-6.6654,-6.8227,-7.2322,-7.3157,-7.4988,-8.2099,-8.3116,-8.3413,-8.5899,-8.3581,-8.1151,-8.0983,-7.7719,-7.5863,-7.8085,-7.828,-7.9541,-8.3169,-8.2282,-8.188,-8.2985,-8.1604,-8.085,-8.18,-8.1825,-8.2119,-8.2673,-8.3552,-8.4199,-8.4794,-8.5446,-8.5576,-8.5654,-8.5863,-8.6098,-8.6098,-8.6098,-8.6098,-8.6098,-8.6647,-8.7379,-8.8241,-8.8816,-8.9731,-9.0855,-9.1143,-9.1456,-9.1718,-9.2005,-9.211,-9.211,-9.211,-9.211,-9.211,-9.211,-9.211,-9.211,-9.211,-9.1665,-9.1195,-9.1195,-9.1038,-9.0855,-9.1117,-9.0829,-9.0463,-9.0751,-9.0594,-9.0385,-9.0385,-9.0149,-8.9966,-8.9966,-8.9731,-8.9496,-8.9496,-8.9496,-8.9496,-8.9496,-8.9496,-8.9496,-8.9496,-8.9496,-8.9496,-8.9496,-9.0019,-9.0411,-9.0411,-9.0855,-9.1195,-9.1195,-9.1195,-9.1195,-9.1195,-9.1195,-9.109,-9.0829,-9.0829,-9.0672,-9.0385,-9.0123,-8.9966,-8.9966,-8.9653,-8.9496,-8.9496,-8.9496,-8.9496,-6.2472,-6.33,-6.4066,-6.4066,-6.4998,-6.7434,-7.3471,-7.5175,-7.7385,-8.3905,-8.52,-8.5571,-8.645,-8.4328,-8.2361,-8.2417,-7.9279,-7.7587,-7.9795,-7.9266,-8.0319,-8.4096,-8.301,-8.2533,-8.3889,-8.2432,-8.1604,-8.2131,-8.2056,-8.2441,-8.3266,-8.4303,-8.4951,-8.5419,-8.5654,-8.5654,-8.5654,-8.5863,-8.5863,-8.6098,-8.6098,-8.6098,-8.6124,-8.6778,-8.764,-8.8633,-8.9365,-9.0332,-9.1456,-9.1927,-9.2188,-9.2293,-9.2737,-9.292,-9.292,-9.292,-9.292,-9.292,-9.292,-9.292,-9.292,-9.292,-9.2293,-9.1561,-9.1561,-9.1482,-9.1404,-9.1561,-9.1378,-9.1221,-9.1378,-9.13,-9.1195,-9.1195,-9.0855,-9.0568,-9.0568,-9.0202,-8.9862,-8.9862,-8.9862,-8.9862,-8.9862,-8.9862,-8.9862,-8.9862,-8.9862,-8.9862,-8.9862,-9.0385,-9.0751,-9.0751,-9.1117,-9.1456,-9.1561,-9.1561,-9.1561,-9.1561,-9.1561,-9.1482,-9.1404,-9.1378,-9.1326,-9.1195,-9.0777,-9.0568,-9.0568,-8.9966,-8.9679,-8.9679,-8.9574,-8.9496,-6.2183,-6.3052,-6.4066,-6.4066,-6.4791,-6.6597,-7.1131,-7.4059,-7.6932,-8.1539,-8.4299,-8.5922,-8.6073,-8.65,-8.587,-8.2402,-8.2922,-8.3018,-8.0404,-8.079,-8.2118,-8.4822,-8.3587,-8.3437,-8.5571,-8.3788,-8.2759,-8.3286,-8.3289,-8.32,-8.2722,-8.3413,-8.3464,-8.3087,-8.3941,-8.4576,-8.4576,-8.4998,-8.5628,-8.6098,-8.6098,-8.6098,-8.6124,-8.7222,-8.8032,-8.866,-8.981,-9.096,-9.2031,-9.211,-9.2397,-9.2842,-9.2894,-9.292,-9.292,-9.292,-9.292,-9.292,-9.292,-9.292,-9.292,-9.292,-9.2842,-9.2737,-9.2737,-9.2397,-9.211,-9.2633,-9.2005,-9.1326,-9.1901,-9.1639,-9.1195,-9.1195,-9.1195,-9.1117,-9.1117,-9.109,-9.1038,-9.1038,-9.1038,-9.1038,-9.1038,-9.1038,-9.1038,-9.1038,-9.1038,-9.1038,-9.1038,-9.1561,-9.1927,-9.1927,-9.2005,-9.2214,-9.2711,-9.2737,-9.2737,-9.2737,-9.2737,-9.2554,-9.2031,-9.2031,-9.1744,-9.1221,-9.1143,-9.1117,-9.1117,-9.0568,-9.0306,-9.0306,-8.9757,-8.9496,-6.2162,-6.3052,-6.4066,-6.4066,-6.5184,-6.7708,-7.3059,-7.5427,-7.8133,-8.335,-8.5026,-8.5671,-8.6349,-8.6575,-8.65,-8.5915,-8.4684,-8.4027,-8.4472,-8.3758,-8.3675,-8.5924,-8.5521,-8.537,-8.5922,-8.4592,-8.3612,-8.3512,-8.32,-8.2873,-8.2658,-8.3941,-8.4365,-8.3728,-8.4576,-8.4788,-8.4365,-8.4972,-8.5419,-8.5654,-8.6202,-8.6752,-8.7144,-8.8294,-8.9313,-9.0228,-9.1038,-9.1848,-9.258,-9.258,-9.2737,-9.292,-9.292,-9.292,-9.292,-9.292,-9.292,-9.292,-9.292,-9.292,-9.292,-9.292,-9.292,-9.292,-9.292,-9.2737,-9.2633,-9.2842,-9.2554,-9.2293,-9.2554,-9.2397,-9.2214,-9.2214,-9.2005,-9.1744,-9.1744,-9.1482,-9.1195,-9.1195,-9.1195,-9.1195,-9.1195,-9.1195,-9.1195,-9.1195,-9.1195,-9.1195,-9.1195,-9.1404,-9.1718,-9.2084,-9.2397,-9.2659,-9.2894,-9.292,-9.292,-9.292,-9.292,-9.2816,-9.2633,-9.258,-9.2476,-9.2214,-9.1927,-9.1744,-9.1744,-9.0855,-9.0411,-9.0385,-8.9784,-8.9496,-6.2679,-6.3238,-6.3921,-6.419,-6.6095,-6.8863,-7.3561,-7.5976,-7.867,-8.4098,-8.433,-8.4355,-8.6525,-8.6349,-8.65,-8.7956,-8.6527,-8.5892,-8.7627,-8.6577,-8.6089,-8.7577,-8.778,-8.7529,-8.7027,-8.5671,-8.4416,-8.3562,-8.261,-8.2336,-8.2683,-8.3251,-8.3677,-8.3941,-8.4365,-8.4365,-8.4365,-8.4762,-8.5209,-8.5444,-8.6411,-8.7117,-8.7588,-8.9078,-9.0202,-9.1012,-9.1927,-9.2554,-9.292,-9.292,-9.292,-9.292,-9.292,-9.292,-9.292,-9.292,-9.292,-9.292,-9.292,-9.292,-9.292,-9.292,-9.292,-9.292,-9.292,-9.292,-9.292,-9.292,-9.292,-9.292,-9.292,-9.292,-9.292,-9.292,-9.2633,-9.2371,-9.2371,-9.2005,-9.1718,-9.1718,-9.1718,-9.1718,-9.1718,-9.1718,-9.1718,-9.1718,-9.1718,-9.1718,-9.1718,-9.1718,-9.1848,-9.2293,-9.2659,-9.292,-9.292,-9.292,-9.292,-9.292,-9.292,-9.292,-9.292,-9.292,-9.292,-9.292,-9.2554,-9.2267,-9.211,-9.1117,-9.0568,-9.0385,-8.9784,-8.9496,-6.3921,-6.3735,-6.3611,-6.448,-6.7186,-7.0256,-7.1681,-7.4595,-7.8326,-8.2171,-8.1719,-8.1772,-8.5999,-8.6349,-8.6349,-8.7429,-8.9011,-8.9689,-8.8609,-8.8935,-8.9438,-9.0015,-9.009,-8.9865,-8.9287,-8.7278,-8.532,-8.3612,-8.1688,-8.127,-8.2734,-8.1021,-8.0804,-8.2658,-8.2658,-8.3301,-8.4365,-8.4365,-8.4998,-8.6098,-8.6621,-8.6882,-8.6987,-8.9313,-9.0411,-9.0489,-9.2188,-9.292,-9.292,-9.292,-9.292,-9.292,-9.292,-9.292,-9.292,-9.292,-9.292,-9.292,-9.292,-9.292,-9.292,-9.292,-9.292,-9.292,-9.292,-9.292,-9.292,-9.292,-9.292,-9.292,-9.292,-9.292,-9.292,-9.292,-9.292,-9.292,-9.292,-9.292,-9.2894,-9.2894,-9.2894,-9.2894,-9.2894,-9.2894,-9.2894,-9.2894,-9.2894,-9.2894,-9.2894,-9.2894,-9.2894,-9.292,-9.292,-9.292,-9.292,-9.292,-9.292,-9.292,-9.292,-9.292,-9.292,-9.292,-9.292,-9.292,-9.292,-9.2633,-9.211,-9.1482,-9.0934,-9.0385,-8.9784,-8.9496,-6.4667,-6.4874,-6.537,-6.5991,-6.9055,-7.2384,-7.4443,-7.6226,-7.8766,-8.3454,-8.2392,-8.1699,-8.5525,-8.502,-8.4631,-8.7252,-8.7244,-8.7588,-8.933,-9.004,-9.0342,-9.0116,-8.9111,-8.8032,-8.7103,-8.6425,-8.5076,-8.266,-8.3732,-8.3486,-8.1856,-8.2697,-8.3282,-8.3261,-8.3289,-8.387,-8.4847,-8.4491,-8.5124,-8.6565,-8.7538,-8.8428,-8.9233,-9.0817,-9.1744,-9.2136,-9.2659,-9.292,-9.292,-9.292,-9.292,-9.292,-9.292,-9.292,-9.292,-9.292,-9.292,-9.292,-9.292,-9.292,-9.292,-9.292,-9.292,-9.292,-9.292,-9.292,-9.292,-9.292,-9.292,-9.292,-9.292,-9.292,-9.292,-9.292,-9.292,-9.292,-9.292,-9.292,-9.292,-9.292,-9.292,-9.292,-9.292,-9.292,-9.292,-9.292,-9.292,-9.292,-9.292,-9.292,-9.292,-9.292,-9.292,-9.292,-9.292,-9.292,-9.292,-9.292,-9.292,-9.292,-9.292,-9.292,-9.292,-9.292,-9.292,-9.2816,-9.2659,-9.211,-9.1509,-9.0934,-9.0751,-9.0672,-6.5929,-6.5805,-6.5991,-6.6612,-6.9568,-7.2461,-7.4213,-7.5435,-7.7464,-8.1875,-8.0123,-7.957,-8.3969,-8.3008,-8.293,-8.7023,-8.5579,-8.528,-8.8105,-8.9122,-8.9657,-9.0532,-8.9262,-8.8032,-8.7605,-8.6019,-8.4386,-8.2513,-8.3142,-8.3178,-8.1743,-8.291,-8.3982,-8.4466,-8.4122,-8.4263,-8.5624,-8.5267,-8.5687,-8.6837,-8.8263,-8.9207,-8.9712,-9.1391,-9.2293,-9.2633,-9.2816,-9.292,0.0,-9.292,-9.292,-9.292,-9.292,-9.292,-9.292,-9.292,-9.292,-9.292,-9.292,-9.292,-9.292,-9.292,-9.292,-9.292,-9.292,-9.292,-9.292,-9.292,-9.292,-9.292,-9.292,-9.292,-9.292,-9.292,-9.292,-9.292,-9.292,-9.292,-9.292,-9.292,-9.292,-9.292,-9.292,-9.292,-9.292,-9.292,-9.292,-9.292,-9.292,-9.292,-9.292,-9.292,-9.292,-9.292,-9.292,-9.292,-9.292,-9.292,-9.292,-9.292,-9.292,-9.292,-9.292,-9.292,-9.292,-9.2816,-9.2633,-9.2031,-9.1561,-9.1195,-9.1195,-9.1195,0.0,-6.6612,-6.5846,-6.6737,-6.9248,-7.1462,-7.1922,-7.2891,0.0,-7.7732,-7.6066,-7.5613,-8.1522,-8.0587,-8.082,-8.6312,-8.4348,-8.2913,-8.5808,-8.6239,-8.7761,-9.0856,-8.9696,-8.8922,-8.9831,-8.5903,-8.3361,-8.3138,-8.1455,-8.1054,-8.221,-8.214,-8.3253,-8.6123,-8.5069,-8.5123,-8.6261,-8.621,-8.6478,-8.7038,-8.8749,-8.9244,-8.8936,-9.1182,-9.2162,-9.2188,-9.2711,-9.292,-9.292,-9.292,-9.292,-9.292,-9.292,-9.292,-9.292,-9.292,-9.292,-9.292,-9.292,-9.292,-9.292,-9.292,-9.292,-9.292,-9.292,-9.292,-9.292,-9.292,-9.292,-9.292,-9.292,-9.292,-9.292,-9.292,-9.292,-9.292,-9.292,-9.292,-9.292,-9.292,-9.292,-9.292,-9.292,-9.292,-9.292,-9.292,-9.292,-9.2972,-9.292,-9.292,-9.2972,-9.292,-9.292,-9.292,-9.292,-9.292,-9.292,-9.292,-9.292,-9.292,-9.292,-9.292,-9.292,-9.292,-9.292,-9.2659,-9.2188,-9.1587,-9.13,-9.13,-9.13,-9.13,-6.7937,0.0,-6.7668,-6.8227,-7.0228,-7.2404,0.0,-7.287,-7.4127,-7.6797,-7.5404,-7.5071,-7.8714,-7.8064,-7.8607,-8.3997,-8.1698,-8.0552,-8.5088,-8.3932,-8.3241,-8.4221,-8.2932,-8.3443,-8.6528,-8.3275,-8.1689,-8.3937,-8.4204,-8.399,-8.3841,-8.5818,-8.7023,-8.7253,-8.6575,-8.6646,-8.7314,-8.6464,-8.692,-8.8836,-8.9091,-8.99,-9.0537,-9.1602,-9.2287,-9.2737,-9.2842,-9.292,-9.292,-9.292,-9.292,-9.292,-9.292,-9.292,-9.292,-9.292,-9.292,-9.292,-9.292,-9.292,-9.292,-9.292,-9.292,-9.292,-9.292,-9.292,-9.292,-9.292,-9.292,-9.292,-9.292,-9.292,-9.292,-9.292,-9.292,-9.292,-9.292,-9.292,-9.292,-9.292,-9.292,-9.292,-9.292,-9.292,-9.292,-9.292,-9.3286,-9.3443,-9.2998,-9.3286,-9.3443,-9.2972,-9.292,-9.292,-9.292,-9.292,-9.292,-9.292,-9.292,-9.292,-9.292,-9.292,-9.292,-9.292,-9.292,-9.2842,-9.2737,-9.2554,-9.2528,-9.2528,-9.2528,-9.2528,-6.8061,-6.8041,-6.7979,-6.8413,-6.9303,-7.0336,-7.0528,-7.1105,-7.1835,-7.3197,-7.3243,-7.38,-7.6638,-7.5578,-7.6059,-8.2052,-7.8842,-7.7302,-8.2157,-8.1888,-8.1431,-8.2042,-8.1218,-8.1582,-8.3213,-8.0303,-7.9522,-8.2914,-8.3267,-8.4059,-8.4942,-8.5952,-8.713,-8.8006,-8.6262,-8.6193,-8.8107,-8.71,-8.7603,-8.8969,-8.9703,-9.0211,-9.029,-9.1686,-9.2443,-9.2469,-9.2695,-9.292,-9.292,-9.292,-9.292,-9.292,-9.292,-9.292,-9.292,-9.292,-9.292,-9.292,-9.292,-9.292,-9.292,-9.292,-9.292,-9.292,-9.292,-9.292,-9.292,-9.292,-9.292,-9.292,-9.292,-9.292,-9.292,-9.292,-9.292,-9.292,-9.292,-9.292,-9.292,-9.292,-9.292,-9.292,-9.292,-9.292,-9.292,-9.292,-9.3443,-9.3704,-9.3364,-9.3626,-9.3704,-9.3364,-9.3077,-9.292,-9.292,-9.292,-9.292,-9.292,-9.292,-9.292,-9.292,-9.292,-9.292,-9.292,-9.292,-9.292,-9.292,-9.292,-9.292,-9.292,-9.292,-9.292,-6.8061,-6.7792,-6.7544,-6.8123,-6.7937,-6.773,-6.8186,-6.8972,-6.9552,-6.949,-7.0607,-7.237,-7.4748,-7.3264,-7.3957,-8.0124,-7.6846,-7.4784,-7.8133,-7.9213,-7.9903,-8.0663,-8.053,-8.0394,-8.0341,-7.7482,-7.7236,-8.1639,-8.1195,-8.2195,-8.5136,-8.4443,-8.5174,-8.7378,-8.5158,-8.5123,-8.8084,-8.7782,-8.8233,-8.8817,-9.0383,-9.064,-8.973,-9.1783,-9.2443,-9.2016,-9.2443,-9.292,-9.292,-9.292,-9.292,-9.292,-9.292,-9.292,-9.292,-9.292,-9.292,-9.292,-9.292,-9.292,-9.292,-9.292,-9.292,-9.292,-9.292,-9.292,-9.292,-9.292,-9.292,-9.292,-9.292,-9.292,-9.292,-9.292,-9.292,-9.292,-9.292,-9.292,-9.292,-9.292,-9.292,-9.292,-9.292,-9.2998,-9.3077,-9.3077,-9.3626,-9.407,-9.3966,-9.3913,-9.3913,-9.3809,-9.326,-9.292,-9.292,-9.292,-9.292,-9.292,-9.292,-9.292,-9.292,-9.292,-9.292,-9.292,-9.292,-9.292,-9.292,-9.292,-9.292,-9.292,-9.292,-9.292,-6.8165,-6.7565,-6.7171,-6.8413,-6.8413,-6.8186,-6.8662,-6.9428,-6.9986,-6.9552,-7.0607,-7.1602,-7.1121,-7.1955,-7.3648,-7.6721,-7.6998,-7.6285,-7.4865,-7.4185,-7.4483,-7.5479,-7.4489,-7.5037,-7.8715,-7.5395,-7.6022,-8.4083,-8.0705,-8.0235,-8.516,-8.3072,-8.2056,-8.2542,-8.3776,-8.4889,-8.5846,-8.7485,-8.8943,-8.9933,-9.0239,-9.0545,-9.0774,-9.1282,-9.1587,-9.2016,-9.199,-9.2443,-9.292,-9.292,-9.292,-9.292,-9.292,-9.292,-9.292,-9.292,-9.292,-9.292,-9.292,-9.292,-9.292,-9.292,-9.292,-9.292,-9.292,-9.292,-9.292,-9.292,-9.292,-9.292,-9.292,-9.292,-9.292,-9.292,-9.292,-9.292,-9.292,-9.292,-9.292,-9.292,-9.292,-9.292,-9.292,-9.3338,-9.3652,-9.3652,-9.4593,-9.509,-9.4567,-9.4541,-9.4358,-9.3887,-9.326,-9.292,-9.292,-9.292,-9.292,-9.292,-9.292,-9.292,-9.292,-9.292,-9.292,-9.292,-9.292,-9.292,-9.292,-9.292,-9.292,-9.292,-9.292,-9.292,-6.8186,-6.7875,-6.7751,-6.86,-6.7916,-6.7295,-6.8289,-6.8807,-6.9179,-6.9428,-7.0607,-7.1498,-7.1311,-7.1787,-7.2601,-7.3597,-7.5208,-7.6117,-7.4634,-7.4789,-7.4913,-7.4354,-7.3733,-7.3997,-7.5548,-7.3604,-7.4798,-8.0637,-7.8976,-7.9224,-8.2947,-8.0705,-8.0705,-8.3384,-8.1698,-8.2885,-8.7367,-8.5899,-8.6871,-9.0187,-9.0187,-9.0442,-9.0647,-9.1308,-9.1561,-9.1561,-9.2217,-9.2669,-9.292,-9.292,-9.292,-9.292,-9.292,-9.292,-9.292,-9.292,-9.292,-9.292,-9.292,-9.292,-9.292,-9.292,-9.292,-9.292,-9.292,-9.292,-9.292,-9.292,-9.292,-9.292,-9.292,-9.292,-9.292,-9.292,-9.292,-9.292,-9.292,-9.292,-9.292,-9.292,-9.292,-9.292,-9.292,-9.3155,-9.3443,-9.373,-9.4541,-9.509,-9.5116,-9.5116,-9.4907,-9.4358,-9.373,-9.326,-9.292,-9.292,-9.292,-9.292,-9.292,-9.292,-9.292,-9.292,-9.292,-9.292,-9.292,-9.292,-9.292,-9.292,-9.292,-9.292,-9.292,-9.292,-6.8186,-6.8186,-6.831,-6.8848,-6.7916,-6.7171,-6.8123,-6.8558,-6.8931,-6.9365,-7.0504,-7.156,-7.2119,-7.2222,-7.2243,-7.2367,-7.4044,-7.5182,-7.4727,-7.5555,-7.5658,-7.4168,-7.3857,-7.3588,-7.2988,-7.2491,-7.3564,-7.7163,-7.6998,-7.7773,-8.0459,-7.8023,-7.8478,-8.2415,-7.9224,-8.0436,-8.6562,-8.3682,-8.4652,-8.9387,-8.9746,-8.9821,-8.9613,-9.1438,-9.1896,-9.131,-9.2424,-9.2825,-9.292,-9.292,-9.292,-9.292,-9.292,-9.292,-9.292,-9.292,-9.292,-9.292,-9.292,-9.292,-9.292,-9.292,-9.292,-9.292,-9.292,-9.292,-9.292,-9.292,-9.292,-9.292,-9.292,-9.292,-9.292,-9.292,-9.292,-9.292,-9.292,-9.292,-9.292,-9.292,-9.292,-9.292,-9.3103,-9.326,-9.3547,-9.4096,-9.4724,-9.5194,-9.5638,-9.5612,-9.5272,-9.475,-9.4175,-9.3547,-9.2972,-9.292,-9.292,-9.292,-9.292,-9.292,-9.292,-9.292,-9.292,-9.292,-9.292,-9.292,-9.292,-9.292,-9.292,-9.292,-9.292,-9.292,-6.8186,-6.8186,-6.8372,-6.9283,-6.9365,-6.9179,-6.8848,-6.98,-7.0442,-6.9676,-7.0235,-7.1187,-7.2056,-7.3236,-7.423,-7.4665,-7.454,-7.423,-7.3795,-7.3795,-7.365,-7.3091,-7.2657,-7.2533,-7.2864,-7.2491,-7.3564,-7.7163,-7.5336,-7.506,-7.7751,-7.5293,-7.4122,-7.4336,-7.6538,-7.7751,-7.8229,-8.071,-8.3893,-8.7244,-8.8186,-8.8455,-8.8216,-9.1867,-9.2849,-9.1874,-9.2589,-9.2963,-9.292,-9.292,-9.292,-9.292,-9.292,-9.292,-9.292,-9.292,-9.292,-9.292,-9.292,-9.292,-9.292,-9.292,-9.292,-9.292,-9.292,-9.292,-9.292,-9.292,-9.292,-9.292,-9.292,-9.292,-9.292,-9.292,-9.292,-9.292,-9.292,-9.292,-9.292,-9.292,-9.292,-9.3103,-9.3652,-9.4201,-9.4724,-9.5325,-9.59,-9.6266,-9.6292,-9.5821,-9.5272,-9.475,-9.4175,-9.3547,-9.2972,-9.292,-9.292,-9.292,-9.292,-9.292,-9.292,-9.292,-9.292,-9.292,-9.292,-9.292,-9.292,-9.292,-9.292,-9.292,-9.292,-9.292,-6.8186,-6.7979,-6.8041,-6.9221,-6.9738,-6.98,-6.9345,-6.9469,-6.9676,-6.9862,-7.0193,-7.098,-7.274,-7.3298,-7.3671,-7.4437,-7.4168,-7.3795,-7.3609,-7.3609,-7.3423,-7.2988,-7.2491,-7.2284,-7.247,-7.2346,-7.2976,-7.4595,-7.3914,-7.3976,-7.4659,-7.3955,-7.4232,-7.5626,-7.5145,-7.6689,-8.0439,-7.8693,-7.9342,-8.2366,-8.594,-8.7616,-8.7857,-9.155,-9.29,-9.2489,-9.3077,-9.3425,-9.3443,-9.3077,-9.292,-9.292,-9.292,-9.292,-9.292,-9.292,-9.292,-9.292,-9.292,-9.292,-9.292,-9.292,-9.292,-9.292,-9.292,-9.292,-9.292,-9.292,-9.292,-9.292,-9.292,-9.292,-9.292,-9.292,-9.292,-9.292,-9.292,-9.292,-9.292,-9.292,-9.3208,-9.3547,-9.3783,-9.4279,-9.4854,-9.5429,-9.5691,-9.5978,-9.6344,-9.6187,-9.5717,-9.475,-9.3809,-9.3181,-9.292,-9.292,-9.292,-9.292,-9.292,-9.292,-9.292,-9.292,-9.292,-9.292,-9.292,-9.292,-9.292,-9.292,-9.292,-9.292,-9.292,-9.292,-6.7751,-6.7813,-6.8103,-6.8869,-6.9862,-7.0421,-6.9676,-6.9614,-6.9738,-6.9924,-7.0877,-7.2056,-7.3174,-7.3733,-7.4044,-7.4251,-7.3919,-7.3609,-7.3609,-7.3609,-7.3485,-7.3174,-7.2595,-7.2284,-7.2429,-7.2305,-7.2408,-7.2864,-7.3361,-7.3485,-7.3154,-7.3423,-7.4211,-7.5834,-7.4445,-7.5548,-7.971,-7.6481,-7.6229,-7.8456,-8.2775,-8.5429,-8.6882,-9.1346,-9.3258,-9.3053,-9.3618,-9.3764,-9.373,-9.3181,-9.292,-9.292,-9.292,-9.292,-9.292,-9.292,-9.292,-9.292,-9.292,-9.292,-9.292,-9.292,-9.292,-9.292,-9.292,-9.292,-9.292,-9.292,-9.292,-9.292,-9.292,-9.292,-9.292,-9.292,-9.292,-9.292,-9.292,-9.3077,-9.3181,-9.3181,-9.3652,-9.4175,-9.4332,-9.4645,-9.5116,-9.5717,-9.5795,-9.59,-9.6292,-9.637,-9.6004,-9.5011,-9.4018,-9.3469,-9.3469,-9.3286,-9.3181,-9.3181,-9.2998,-9.292,-9.292,-9.292,-9.292,-9.292,-9.292,-9.292,-9.292,-9.292,-9.292,-9.292,-9.292,-9.292,-6.6799,-6.7792,-6.8724,-6.831,-6.9883,-7.1187,-6.98,-7.0566,-7.1187,-6.98,-7.2429,-7.454,-7.3174,-7.4789,-7.5845,-7.454,-7.3919,-7.3609,-7.3609,-7.3609,-7.3609,-7.3609,-7.2781,-7.2408,-7.2864,-7.247,-7.2408,-7.2864,-7.3361,-7.3609,-7.3609,-7.3609,-7.3609,-7.3609,-7.3609,-7.3857,-7.4292,-7.4747,-7.5244,-7.57,-7.8907,-8.1937,-8.4724,-9.1461,-9.418,-9.3565,-9.3751,-9.3644,-9.3783,-9.3181,-9.292,-9.292,-9.292,-9.292,-9.292,-9.292,-9.292,-9.292,-9.292,-9.292,-9.292,-9.292,-9.292,-9.292,-9.292,-9.292,-9.292,-9.292,-9.292,-9.292,-9.292,-9.292,-9.292,-9.292,-9.292,-9.292,-9.292,-9.3364,-9.3809,-9.3809,-9.4279,-9.4854,-9.5429,-9.5534,-9.5717,-9.6266,-9.637,-9.637,-9.637,-9.637,-9.6161,-9.5586,-9.5011,-9.4671,-9.4671,-9.4175,-9.3809,-9.3809,-9.326,-9.292,-9.292,-9.292,-9.292,-9.292,-9.292,-9.292,-9.292,-9.292,-9.292,-9.292,-9.292,-9.292,-6.8537,-6.8061,-6.7854,-6.9614,-6.9614,-6.9303,-6.9862,-7.1042,-7.1994,-7.1912,-7.2781,-7.3609,-7.3857,-7.4168,-7.4478,-7.4747,-7.4106,-7.3609,-7.3609,-7.3609,-7.3609,-7.3609,-7.2781,-7.2284,-7.2408,-7.2284,-7.2284,-7.2408,-7.2864,-7.3112,-7.3112,-7.3112,-7.3112,-7.3112,-7.3423,-7.3982,-7.4789,-7.4934,-7.5368,-7.6176,-7.9101,-8.1937,-8.4701,-8.8995,-9.216,-9.418,-9.3932,-9.3903,-9.4305,-9.3338,-9.292,-9.292,-9.292,-9.292,-9.292,-9.292,-9.292,-9.292,-9.292,-9.292,-9.292,-9.292,-9.292,-9.292,-9.292,-9.292,-9.292,-9.292,-9.292,-9.292,-9.292,-9.292,-9.292,-9.292,-9.292,-9.292,-9.292,-9.3077,-9.3286,-9.373,-9.4619,-9.5325,-9.5508,-9.6161,-9.6632,-9.637,-9.637,-9.637,-9.637,-9.6004,-9.5717,-9.5534,-9.5011,-9.4671,-9.4671,-9.4488,-9.4384,-9.4384,-9.4227,-9.3756,-9.292,-9.292,-9.292,-9.292,-9.292,-9.292,-9.292,-9.292,-9.292,-9.292,-9.292,-9.292,-6.8061,-6.7482,-6.7171,-6.8869,-6.8848,-6.8848,-7.038,-7.1104,-7.1601,-7.2243,-7.2802,-7.3298,-7.3671,-7.3982,-7.423,-7.4416,-7.3982,-7.3609,-7.3609,-7.3795,-7.3795,-7.3609,-7.2967,-7.2408,-7.2222,-7.2222,-7.2222,-7.2222,-7.2657,-7.2988,-7.3174,-7.3029,-7.2988,-7.3174,-7.3485,-7.4044,-7.4996,-7.4996,-7.5431,-7.6341,-7.7871,-8.0903,-8.4494,-8.7958,-9.1243,-9.4436,-9.4216,-9.4155,-9.3913,-9.3208,-9.292,-9.292,-9.292,-9.292,-9.292,-9.292,-9.292,-9.292,-9.292,-9.292,-9.292,-9.292,-9.292,-9.292,-9.292,-9.292,-9.292,-9.292,-9.292,-9.2998,-9.3208,-9.326,-9.3208,-9.2998,-9.3103,-9.326,-9.326,-9.3626,-9.4096,-9.4724,-9.5377,-9.5978,-9.6501,-9.671,-9.6867,-9.671,-9.6527,-9.637,-9.637,-9.6083,-9.5874,-9.5874,-9.556,-9.5377,-9.5377,-9.5116,-9.5011,-9.5011,-9.4776,-9.4358,-9.3652,-9.3626,-9.3626,-9.3626,-9.3626,-9.3626,-9.3626,-9.3626,-9.3626,-9.3626,-9.3626,-9.3626,-6.655,-6.6612,-6.6861,-6.6985,-6.7979,-6.9345,-7.1001,-7.0814,-7.0607,-7.1622,-7.274,-7.3423,-7.305,-7.3982,-7.4603,-7.3733,-7.3609,-7.3609,-7.3671,-7.4044,-7.4168,-7.3795,-7.3236,-7.274,-7.2346,-7.2243,-7.2222,-7.2222,-7.2657,-7.3112,-7.3588,-7.3174,-7.3112,-7.3609,-7.3609,-7.4044,-7.4934,-7.4975,-7.5431,-7.6279,-7.6341,-7.9144,-8.424,-8.771,-9.1194,-9.4519,-9.4654,-9.4018,-9.292,-9.292,-9.292,-9.292,-9.292,-9.292,-9.292,-9.292,-9.292,-9.292,-9.292,-9.292,-9.292,-9.292,-9.292,-9.292,-9.292,-9.292,-9.2998,-9.2998,-9.3025,-9.3181,-9.373,-9.3887,-9.373,-9.3181,-9.3469,-9.3887,-9.3887,-9.4724,-9.5612,-9.6187,-9.6344,-9.671,-9.7782,-9.7154,-9.6606,-9.705,-9.6736,-9.6449,-9.637,-9.637,-9.637,-9.637,-9.637,-9.637,-9.637,-9.59,-9.5612,-9.5612,-9.509,-9.4828,-9.4828,-9.475,-9.4671,-9.4671,-9.4671,-9.4671,-9.4671,-9.4671,-9.4671,-9.4671,-9.4671,-9.4671,-6.9055,-6.8061,-6.7109,-6.8558,-6.9117,-6.9428,-6.9862,-7.0628,-7.1746,-7.3361,-7.3361,-7.3154,-7.3423,-7.3733,-7.3857,-7.365,-7.3609,-7.3733,-7.4106,-7.423,-7.4416,-7.4665,-7.365,-7.2864,-7.2781,-7.2429,-7.2222,-7.2222,-7.2657,-7.3112,-7.3588,-7.3174,-7.3112,-7.3609,-7.3609,-7.3857,-7.4437,-7.481,-7.5244,-7.5803,-7.6155,-7.8113,-8.1421,-8.4655,-8.8976,-9.3854,-9.452,-9.4018,-9.292,-9.292,-9.292,-9.292,-9.292,-9.292,-9.292,-9.292,-9.292,-9.292,-9.292,-9.292,-9.292,-9.292,-9.292,-9.292,-9.292,-9.326,-9.3626,-9.3626,-9.3939,-9.4305,-9.4462,-9.4488,-9.4462,-9.4305,-9.4384,-9.4488,-9.4488,-9.4671,-9.5011,-9.5612,-9.6083,-9.6449,-9.671,-9.6893,-9.6945,-9.6606,-9.6815,-9.6893,-9.6449,-9.637,-9.637,-9.637,-9.637,-9.637,-9.637,-9.6266,-9.6187,-9.6187,-9.6083,-9.6004,-9.6004,-9.5116,-9.4671,-9.4671,-9.4671,-9.4671,-9.4671,-9.4671,-9.4671,-9.4671,-9.4671,-9.4671,-6.9117,-6.8186,-6.7358,-6.831,-6.9179,-6.9738,-6.9552,-7.0732,-7.216,-7.3112,-7.3091,-7.305,-7.3547,-7.3609,-7.3609,-7.3609,-7.3795,-7.4044,-7.4251,-7.4685,-7.4975,-7.4996,-7.3982,-7.3174,-7.2926,-7.2491,-7.2305,-7.2533,-7.2781,-7.3216,-7.3919,-7.3298,-7.3236,-7.3919,-7.3919,-7.4292,-7.4934,-7.5182,-7.5555,-7.5989,-7.6217,-7.8113,-8.1421,-8.5915,-9.019,-9.4602,-9.4572,-9.4305,-9.373,-9.3469,-9.3469,-9.373,-9.3443,-9.3521,-9.3652,-9.3103,-9.3103,-9.3286,-9.2998,-9.292,-9.292,-9.292,-9.3103,-9.3364,-9.3364,-9.373,-9.4201,-9.4201,-9.4462,-9.475,-9.5011,-9.509,-9.5168,-9.5403,-9.5272,-9.509,-9.509,-9.5272,-9.5638,-9.624,-9.6344,-9.6632,-9.7468,-9.7625,-9.7468,-9.6867,-9.6788,-9.6893,-9.7154,-9.6971,-9.6788,-9.6788,-9.6788,-9.6632,-9.637,-9.637,-9.637,-9.637,-9.637,-9.637,-9.637,-9.5821,-9.5482,-9.5482,-9.5482,-9.5482,-9.5482,-9.5482,-9.5482,-9.5482,-9.5482,-9.5482,-6.8807,-6.831,-6.7916,-6.7751,-6.8972,-7.0111,-6.9738,-7.098,-7.2222,-7.2222,-7.2657,-7.3154,-7.3547,-7.3609,-7.3609,-7.3609,-7.3982,-7.4313,-7.4416,-7.5161,-7.5555,-7.5244,-7.4416,-7.3671,-7.3216,-7.2802,-7.2719,-7.3029,-7.3174,-7.3609,-7.4375,-7.3671,-7.3609,-7.4416,-7.4416,-7.4789,-7.5555,-7.5617,-7.5865,-7.6217,-7.6279,-7.8356,-8.2663,-8.6893,-9.0822,-9.4008,-9.357,-9.3313,-9.339,-9.3384,-9.3514,-9.4108,-9.392,-9.4279,-9.4567,-9.3469,-9.3364,-9.373,-9.3103,-9.2998,-9.3077,-9.3077,-9.3469,-9.3992,-9.3992,-9.4358,-9.4828,-9.4828,-9.4854,-9.509,-9.5534,-9.5691,-9.5795,-9.6266,-9.6004,-9.5691,-9.5691,-9.6004,-9.6527,-9.6971,-9.671,-9.6841,-9.8409,-9.8383,-9.7939,-9.7311,-9.6893,-9.6998,-9.786,-9.752,-9.7233,-9.739,-9.7311,-9.705,-9.6553,-9.6449,-9.637,-9.637,-9.637,-9.637,-9.637,-9.637,-9.637,-9.637,-9.637,-9.637,-9.637,-9.637,-9.637,-9.637,-9.637,-9.637,-7.0318,-7.0173,-6.9614,-6.8848,-6.9428,-7.0173,-7.0111,-7.1187,-7.2222,-7.2222,-7.2926,-7.3547,-7.3609,-7.3609,-7.3609,-7.3609,-7.3982,-7.4437,-7.4851,-7.5368,-7.5803,-7.6114,-7.5348,-7.4623,-7.4168,-7.4044,-7.3857,-7.3547,-7.4251,-7.4747,-7.4872,-7.4789,-7.4747,-7.4872,-7.4913,-7.4934,-7.5058,-7.5493,-7.5679,-7.5782,-7.6155,-7.8356,-8.2407,-8.313,-8.5385,-8.8684,-8.8611,-8.827,-8.8049,-9.0171,-9.1164,-9.1474,-9.3595,-9.4593,-9.4567,-9.3913,-9.373,-9.373,-9.3103,-9.326,-9.3704,-9.3704,-9.4096,-9.4567,-9.4567,-9.4933,-9.5429,-9.5429,-9.5743,-9.6187,-9.6266,-9.6266,-9.6266,-9.637,-9.6292,-9.6266,-9.6266,-9.6292,-9.637,-9.6449,-9.6449,-9.6606,-9.7337,-9.7834,-9.7939,-9.7311,-9.7599,-9.7756,-9.739,-9.7285,-9.7416,-9.7939,-9.752,-9.7207,-9.7128,-9.6632,-9.637,-9.637,-9.637,-9.637,-9.637,-9.637,-9.637,-9.637,-9.637,-9.637,-9.637,-9.637,-9.637,-9.637,-9.637,-9.637,-7.0131,-7.0131,-6.9986,-6.9096,-6.9717,-7.0504,-7.0235,-7.1228,-7.2222,-7.2222,-7.2967,-7.3609,-7.3609,-7.3609,-7.3609,-7.3609,-7.3982,-7.4478,-7.4934,-7.5368,-7.5865,-7.6279,-7.5534,-7.481,-7.4354,-7.4292,-7.423,-7.3982,-7.4603,-7.5099,-7.5368,-7.512,-7.512,-7.5368,-7.5368,-7.5493,-7.5741,-7.5969,-7.6052,-7.6052,-7.6525,-7.8156,-8.0167,-8.0471,-8.3362,-8.8116,-8.778,-8.7708,-8.8,-9.0153,-9.1421,-9.1885,-9.4268,-9.5351,-9.5482,-9.4645,-9.4279,-9.4279,-9.3992,-9.3835,-9.3887,-9.4175,-9.4645,-9.5168,-9.5168,-9.5534,-9.5978,-9.5978,-9.6187,-9.637,-9.637,-9.637,-9.637,-9.637,-9.637,-9.637,-9.637,-9.637,-9.637,-9.637,-9.6893,-9.7337,-9.7233,-9.7756,-9.8122,-9.8226,-9.7599,-9.752,-9.8566,-9.8122,-9.7965,-9.8514,-9.8357,-9.7939,-9.7311,-9.6971,-9.671,-9.637,-9.637,-9.637,-9.637,-9.637,-9.637,-9.637,-9.637,-9.637,-9.637,-9.637,-9.637,-9.637,-9.637,-9.637,-7.0049,-7.0235,-7.0483,-6.9593,-7.0235,-7.0939,-7.0442,-7.1228,-7.2098,-7.2222,-7.2864,-7.3485,-7.3609,-7.3609,-7.3609,-7.3609,-7.3982,-7.4416,-7.4747,-7.5306,-7.5803,-7.6155,-7.5555,-7.5037,-7.4685,-7.4665,-7.4665,-7.4665,-7.5058,-7.5493,-7.5845,-7.5534,-7.5493,-7.5845,-7.5865,-7.5989,-7.6341,-7.6341,-7.6341,-7.6341,-7.7118,-7.7669,-7.8441,-7.9229,-8.2026,-8.6487,-8.6088,-8.6158,-8.6714,-8.8756,-9.0096,-9.061,-9.2952,-9.4211,-9.5044,-9.4216,-9.429,-9.4671,-9.4671,-9.4462,-9.4332,-9.475,-9.5272,-9.5717,-9.5717,-9.6004,-9.637,-9.637,-9.637,-9.637,-9.637,-9.637,-9.637,-9.637,-9.637,-9.6396,-9.6553,-9.6606,-9.6632,-9.6788,-9.752,-9.8043,-9.7703,-9.8043,-9.8409,-9.8697,-9.7782,-9.7599,-9.9193,-9.8775,-9.8566,-9.9141,-9.9062,-9.8618,-9.7756,-9.7416,-9.705,-9.6632,-9.6449,-9.637,-9.637,-9.637,-9.637,-9.637,-9.637,-9.637,-9.637,-9.637,-9.637,-9.637,-9.637,-9.637,-7.0939,-7.1435,-7.1912,-7.1001,-7.1125,-7.1373,-7.0939,-7.1249,-7.1746,-7.216,-7.2595,-7.3091,-7.3547,-7.3609,-7.3609,-7.3609,-7.3982,-7.4292,-7.4354,-7.512,-7.5679,-7.5741,-7.5679,-7.5617,-7.5617,-7.5617,-7.5617,-7.5617,-7.6031,-7.6279,-7.6279,-7.6279,-7.6279,-7.6279,-7.6279,-7.6341,-7.6341,-7.6341,-7.6341,-7.6341,-7.7118,-7.7669,-7.8441,-7.9229,-7.9993,-8.1035,-8.0969,-8.0991,-8.1013,-8.3731,-8.4954,-8.5253,-8.771,-9.012,-9.191,-9.1835,-9.2921,-9.4671,-9.4671,-9.5011,-9.5429,-9.5455,-9.5874,-9.6344,-9.6344,-9.637,-9.637,-9.637,-9.637,-9.637,-9.637,-9.637,-9.637,-9.637,-9.637,-9.6527,-9.705,-9.7154,-9.7337,-9.7939,-9.8095,-9.8304,-9.8801,-9.8906,-9.8775,-9.8226,-9.854,-9.8697,-9.8278,-9.8618,-9.9141,-9.9742,-9.9298,-9.8958,-9.888,-9.786,-9.7207,-9.7207,-9.6684,-9.637,-9.637,-9.637,-9.637,-9.637,-9.637,-9.637,-9.637,-9.637,-9.637,-9.637,-9.637,-9.637,-7.0939,-7.1311,-7.1808,-7.1746,-7.1663,-7.1622,-7.1725,-7.1663,-7.1684,-7.2119,-7.2595,-7.305,-7.3547,-7.3609,-7.3609,-7.3609,-7.3733,-7.3982,-7.4251,-7.4603,-7.4913,-7.5182,-7.5493,-7.5555,-7.5244,-7.5782,-7.5989,-7.5679,-7.6093,-7.6341,-7.6341,-7.6341,-7.6341,-7.6341,-7.6341,-7.6341,-7.6341,-7.6341,-7.6341,-7.6341,-7.7118,-7.7669,-7.8441,-7.9229,-7.9993,-8.0515,-8.0515,-8.0515,-8.0753,-8.3266,-8.4494,-8.4747,-8.7462,-9.0074,-9.2149,-9.2551,-9.379,-9.5351,-9.6057,-9.5978,-9.5586,-9.5978,-9.6187,-9.637,-9.637,-9.637,-9.637,-9.637,-9.637,-9.637,-9.637,-9.637,-9.637,-9.637,-9.637,-9.6527,-9.7128,-9.7233,-9.7311,-9.7494,-9.8148,-9.8723,-9.8958,-9.8984,-9.9036,-9.9193,-9.8775,-9.8592,-9.9115,-9.9062,-9.9219,-9.9742,-9.9664,-9.9376,-9.8984,-9.8592,-9.8043,-9.7285,-9.705,-9.6736,-9.637,-9.637,-9.637,-9.637,-9.637,-9.637,-9.637,-9.637,-9.637,-9.637,-9.637,-9.637,-7.1249,-7.156,-7.187,-7.2346,-7.2367,-7.2181,-7.2036,-7.187,-7.187,-7.216,-7.247,-7.2864,-7.3485,-7.3609,-7.3609,-7.3609,-7.3609,-7.3733,-7.4044,-7.4189,-7.4416,-7.4727,-7.5182,-7.5368,-7.5244,-7.5782,-7.6052,-7.5927,-7.6155,-7.6341,-7.6341,-7.6341,-7.6341,-7.6341,-7.6341,-7.6341,-7.6341,-7.6341,-7.6341,-7.6341,-7.7139,-7.7913,-7.8441,-7.9513,-8.0015,-8.0515,-8.0515,-8.0515,-8.0515,-8.2519,-8.3243,-8.3266,-8.5185,-8.8126,-9.1219,-9.1789,-9.3637,-9.59,-9.6684,-9.6449,-9.5874,-9.6266,-9.637,-9.637,-9.637,-9.637,-9.637,-9.637,-9.637,-9.637,-9.637,-9.637,-9.637,-9.637,-9.6527,-9.6788,-9.7128,-9.739,-9.7573,-9.7782,-9.8592,-9.9245,-9.9245,-9.9245,-9.9324,-9.9507,-9.9036,-9.8932,-9.9481,-9.9402,-9.9402,-9.982,-9.982,-9.9664,-9.9298,-9.9062,-9.8592,-9.7599,-9.7311,-9.6971,-9.637,-9.6187,-9.6083,-9.6083,-9.59,-9.59,-9.6083,-9.6266,-9.637,-9.637,-9.637,-9.6266,0.0,0.0,0.0,-7.2843,-7.3298,-7.3298,-7.1994,-7.1994,-7.2284,-7.2284,-7.2284,-7.2553,-7.3423,-7.3609,-7.3609,-7.3609,-7.3609,-7.3609,-7.3609,-7.3982,-7.4292,-7.4292,-7.4685,-7.5182,-7.5617,-7.5679,-7.5865,-7.6279,-7.6341,-7.6341,-7.6341,-7.6341,-7.6341,-7.6341,-7.6341,-7.6341,-7.6341,-7.6341,-7.6341,-7.6341,-7.7669,-7.8419,-7.8441,-7.9732,-8.0515,-8.0515,-8.0515,-8.0537,-8.0537,-8.0537,-8.0537,-8.0602,-8.1083,-8.4209,-8.8549,-8.9054,-9.2151,-9.637,-9.637,-9.637,-9.637,-9.637,-9.637,-9.637,-9.6396,-9.6396,-9.637,-9.637,-9.637,-9.637,-9.637,-9.637,-9.637,-9.637,-9.6788,-9.7233,-9.7233,-9.7703,-9.8304,-9.888,-9.9428,-9.982,-9.982,-9.982,-9.9638,-9.9062,-9.9481,-9.9638,-9.9062,-9.9481,-9.982,-9.982,-9.982,-9.982,-9.982,-9.9324,-9.8775,-9.82,-9.7573,-9.6971,-9.6449,-9.5821,-9.5508,-9.5508,-9.4933,-9.4933,-9.5508,-9.6083,-9.637,-9.637,-9.637,-9.6083,-7.1974,0.0,0.0,0.0,0.0,0.0,-7.4354,-7.4106,-7.3733,-7.3733,-7.3733,-7.3671,-7.3609,-7.3609,-7.3609,-7.3609,-7.3609,-7.3609,-7.3609,-7.3733,-7.3795,-7.3795,-7.4499,-7.5037,-7.5182,-7.5782,-7.6217,-7.6341,-7.6341,-7.6341,-7.6341,-7.6341,-7.6341,-7.6341,-7.6341,-7.6341,-7.6341,-7.6341,-7.6341,-7.6341,-7.7139,-7.7913,-7.8441,-7.9229,-7.9993,-8.0515,-8.0515,-8.0733,-8.1061,-8.0668,-8.0733,-8.1061,-8.0799,-8.4345,-8.9583,-8.9319,-9.2644,-9.6971,-9.6971,-9.671,-9.6449,-9.6867,-9.671,-9.6527,-9.7416,-9.7337,-9.6971,-9.6971,-9.6971,-9.6893,-9.6475,-9.637,-9.637,-9.637,-9.6788,-9.7233,-9.7233,-9.8043,-9.8775,-9.8958,-9.9428,-9.982,-9.982,-9.982,-9.9768,-9.9638,-9.9742,-9.9768,-9.9585,-9.9742,-9.982,-9.982,-9.982,-9.982,-9.982,-9.9664,-9.9324,-9.8775,-9.82,-9.7599,-9.7024,-9.6057,-9.5508,-9.5508,-9.4933,-9.475,-9.4907,-9.5455,-9.5978,-9.637,-9.637,-9.6083,-7.2305,-7.2533,-7.2864,-7.4354,0.0,0.0,-7.4727,-7.454,-7.4168,-7.3795,-7.3733,-7.3671,-7.3609,-7.3609,-7.3609,-7.3609,-7.3609,-7.3609,-7.3609,-7.3609,-7.3609,-7.3609,-7.4416,-7.4996,-7.4996,-7.5658,-7.6155,-7.6341,-7.5969,-7.5845,-7.6052,-7.6217,-7.6341,-7.6341,-7.6341,-7.6341,-7.6341,-7.6341,-7.6341,-7.6341,-7.7384,-7.7934,-7.8441,-7.947,-8.0037,-8.0537,-8.0733,-8.1017,-8.1279,-8.1192,-8.1345,-8.1563,-8.1476,-8.4295,-8.8855,-8.9537,-9.2532,-9.6069,-9.6813,-9.6867,-9.6449,-9.705,-9.6815,-9.6606,-9.7756,-9.752,-9.6893,-9.7154,-9.705,-9.6788,-9.6449,-9.637,-9.637,-9.637,-9.6998,-9.7599,-9.7599,-9.8514,-9.9245,-9.9036,-9.9428,-9.982,-9.982,-9.982,-9.982,-9.982,-9.982,-9.982,-9.982,-9.982,-9.982,-9.982,-9.982,-9.982,-9.982,-9.982,-9.9481,-9.867,-9.8304,-9.7651,-9.6579,-9.5638,-9.5063,-9.4802,-9.4201,-9.4044,-9.4305,-9.5142,-9.5795,-9.637,-9.6109,-9.5821,-7.2781,-7.2926,-7.3154,-7.4044,-7.4603,0.0,-7.4106,-7.4292,-7.4375,-7.3609,-7.3423,-7.3547,-7.3857,-7.3919,-7.3919,-7.3919,-7.3857,-7.3733,-7.3609,-7.3609,-7.3609,-7.3609,-7.4354,-7.4872,-7.4913,-7.5306,-7.572,-7.6155,-7.5431,-7.5182,-7.5555,-7.6031,-7.6279,-7.6279,-7.6341,-7.6341,-7.6341,-7.6341,-7.6341,-7.6341,-7.7627,-7.8441,-7.8526,-7.984,-8.0646,-8.0733,-8.1148,-8.141,-8.1476,-8.1891,-8.2088,-8.2131,-8.2481,-8.4495,-8.7119,-8.9768,-9.2256,-9.4352,-9.6442,-9.6945,-9.6632,-9.7076,-9.6893,-9.671,-9.786,-9.7416,-9.6553,-9.7076,-9.6788,-9.637,-9.637,-9.637,-9.637,-9.637,-9.7259,-9.8122,-9.8122,-9.9036,-9.9664,-9.9167,-9.9481,-9.982,-9.982,-9.982,-9.982,-9.982,-9.982,-9.982,-9.982,-9.982,-9.982,-9.982,-9.982,-9.982,-9.982,-9.982,-9.9376,-9.8304,-9.8148,-9.739,-9.5691,-9.5011,-9.4384,-9.3809,-9.3208,-9.3208,-9.3809,-9.488,-9.5691,-9.6187,-9.5717,-9.5508,-7.2677,-7.2926,-7.3154,-7.4044,-7.4354,0.0,-7.6052,-7.6424,-7.6507,-7.6735,-7.6735,-7.6548,-7.5907,-7.5782,-7.5782,-7.5782,-7.5182,-7.4478,-7.3733,-7.3609,-7.3609,-7.3609,-7.3795,-7.4044,-7.4416,-7.4499,-7.4747,-7.5224,-7.5099,-7.5037,-7.512,-7.5555,-7.5803,-7.5803,-7.6155,-7.6341,-7.6341,-7.6341,-7.6341,-7.6341,-7.7627,-7.8632,-7.9058,-8.0601,-8.1345,-8.1738,-8.1825,-8.2088,-8.2437,-8.2503,-8.2568,-8.2546,-8.2284,-8.4406,-8.7534,-8.9507,-9.2182,-9.4881,-9.6571,-9.7494,-9.7703,-9.7337,-9.7154,-9.7259,-9.8435,-9.7965,-9.7076,-9.7207,-9.6788,-9.637,-9.637,-9.637,-9.637,-9.637,-9.7259,-9.8122,-9.8122,-9.9036,-9.982,-9.9664,-9.9742,-9.982,-9.982,-9.982,-9.982,-9.982,-9.982,-9.982,-9.982,-9.982,-9.982,-9.982,-9.982,-9.982,-9.982,-9.982,-9.9559,-9.888,-9.8383,-9.752,-9.6266,-9.5194,-9.4384,-9.3809,-9.3208,-9.3208,-9.3809,-9.4488,-9.4907,-9.5011,-9.5351,-9.5508,-7.3361,-7.3423,-7.3423,-7.4106,-7.4292,0.0,0.0,-7.5989,-7.6052,-7.63,-7.6507,-7.6548,-7.6114,-7.6217,-7.6341,-7.6341,-7.5596,-7.5058,-7.5244,-7.4313,-7.3609,-7.3609,-7.3795,-7.4044,-7.4292,-7.4292,-7.4416,-7.4623,-7.4872,-7.4996,-7.4996,-7.5224,-7.5431,-7.5679,-7.5907,-7.6114,-7.6341,-7.6341,-7.6466,-7.7186,-7.8293,-7.9323,-8.0016,-8.1122,-8.1804,-8.2022,-8.2284,-8.2481,-8.2699,-8.2961,-8.3027,-8.3027,-8.2808,-8.3765,-8.5697,-8.7969,-8.956,-9.1244,-9.4773,-9.5872,-9.5983,-9.7515,-9.752,-9.7154,-9.888,-9.8592,-9.7573,-9.6971,-9.6606,-9.6449,-9.671,-9.6788,-9.6867,-9.7154,-9.7886,-9.8514,-9.8514,-9.9219,-9.982,-9.982,-9.982,-9.982,-9.982,-9.982,-9.982,-9.982,-9.982,-9.982,-9.982,-9.982,-9.982,-9.982,-9.982,-9.982,-9.982,-9.9559,-9.9141,-9.8592,-9.7703,-9.671,-9.556,-9.4724,-9.3992,-9.3364,-9.3077,-9.3077,-9.3364,-9.3652,-9.4096,-9.4671,-9.4645,-9.4802,-7.4168,-7.4168,-7.3982,-7.4354,-7.4416,-7.4561,0.0,0.0,0.0,-7.5493,-7.5865,-7.6176,-7.6176,-7.6548,-7.6838,-7.6735,-7.6114,-7.5927,-7.6859,-7.5493,-7.4416,-7.4416,-7.4168,-7.4126,-7.4416,-7.4499,-7.4437,-7.4168,-7.4913,-7.5182,-7.4747,-7.4872,-7.512,-7.5431,-7.5493,-7.5741,-7.6217,-7.6217,-7.6691,-7.7929,-7.8834,-7.9931,-8.0893,-8.1822,-8.2219,-8.2284,-8.2677,-8.283,-8.2896,-8.3289,-8.342,-8.342,-8.342,-8.342,-8.3668,-8.6515,-8.7534,-8.844,-9.3173,-9.4604,-9.4829,-9.7795,-9.7912,-9.7181,-9.8958,-9.8932,-9.8043,-9.6893,-9.6632,-9.6788,-9.7128,-9.7311,-9.752,-9.8017,-9.8566,-9.8984,-9.8984,-9.9402,-9.982,-9.982,-9.982,-9.982,-9.982,-9.982,-9.982,-9.982,-9.982,-9.982,-9.982,-9.982,-9.982,-9.982,-9.982,-9.9768,-9.9664,-9.9245,-9.8697,-9.8017,-9.705,-9.5978,-9.4724,-9.4018,-9.3443,-9.292,-9.292,-9.292,-9.292,-9.292,-9.3391,-9.4305,-9.3992,-9.407,-7.454,-7.4872,-7.4851,-7.4913,-7.4913,-7.512,-7.5969,0.0,-7.6403,-7.7231,0.0,-7.8059,-7.8059,0.0,0.0,-7.8184,-7.8059,-7.7749,-7.7066,-7.7107,-7.7231,-7.7231,-7.4747,-7.3547,-7.4789,-7.5306,-7.4996,-7.3795,-7.5596,-7.5865,-7.3857,-7.454,-7.481,-7.4478,-7.4851,-7.5306,-7.5741,-7.5741,-7.6255,-7.7468,-7.8707,-7.9931,-8.0893,-8.2148,-8.283,-8.3289,-8.3311,-8.3354,-8.3354,-8.342,-8.342,-8.342,-8.342,-8.342,-8.3668,-8.6515,-8.9001,-9.1459,-9.4045,-9.6639,-9.8868,-9.8487,-9.8409,-9.8618,-9.8409,-9.8592,-9.8618,-9.7442,-9.7494,-9.7834,-9.7337,-9.7599,-9.8043,-9.8122,-9.8566,-9.8984,-9.8984,-9.9402,-9.982,-9.982,-9.982,-9.982,-9.982,-9.982,-9.982,-9.982,-9.982,-9.982,-9.982,-9.982,-9.982,-9.982,-9.982,-9.9638,-9.9141,-9.8984,-9.8514,-9.739,-9.7207,-9.637,-9.475,-9.3574,-9.2998,-9.292,-9.292,-9.292,-9.292,-9.292,-9.2998,-9.3103,-9.3626,-9.3835,-7.5534,-7.5182,-7.4727,-7.5244,-7.4996,-7.4975,-7.6403,-7.6528,-7.659,-7.7501,0.0,0.0,0.0,0.0,0.0,0.0,-7.8308,-7.8122,-7.8536,-7.7604,-7.6921,-7.6921,-7.6176,-7.5617,-7.5431,-7.5803,-7.5596,-7.4478,-7.5782,-7.6093,-7.4872,-7.4416,-7.4354,-7.4685,-7.4872,-7.5224,-7.5679,-7.5927,-7.6811,-7.8335,-7.9058,-7.9952,-8.1491,-8.2214,-8.283,-8.3027,-8.3289,-8.342,-8.342,-8.342,-8.342,-8.342,-8.342,-8.342,-8.342,-8.472,-8.5742,-8.7502,-9.1618,-9.3793,-9.489,-9.7374,-9.8749,-9.9298,-9.8409,-9.8514,-9.8801,-9.7965,-9.7939,-9.8122,-9.8226,-9.8409,-9.8697,-9.9036,-9.9298,-9.9481,-9.9481,-9.9664,-9.982,-9.982,-9.982,-9.982,-9.982,-9.982,-9.982,-9.982,-9.982,-9.982,-9.982,-9.982,-9.982,-9.982,-9.982,-9.9585,-9.9036,-9.867,-9.8122,-9.7285,-9.6266,-9.509,-9.373,-9.3181,-9.292,-9.292,-9.292,-9.292,-9.292,-9.292,-9.292,-9.292,-9.3181,-9.3286,-7.6279,-7.572,-7.5099,-7.6176,-7.5803,-7.5555,-7.6859,-7.6921,-7.69,-7.7542,-7.8059,0.0,0.0,0.0,-7.9012,-7.8887,0.0,-7.8494,-7.9239,-7.8287,-7.7459,-7.7459,-7.7687,-7.7438,-7.6321,-7.6983,-7.6859,-7.5472,-7.6548,-7.6673,-7.5368,-7.4478,-7.4168,-7.4603,-7.4872,-7.5161,-7.5493,-7.5927,-7.7181,-7.8972,-7.91,-8.0153,-8.1825,-8.2284,-8.2503,-8.2546,-8.2896,-8.3027,-8.3027,-8.3158,-8.3223,-8.3223,-8.3354,-8.342,-8.342,-8.342,-8.4474,-8.6251,-9.0108,-9.238,-9.3771,-9.7469,-9.9141,-9.9664,-9.8853,-9.888,-9.9062,-9.8514,-9.8487,-9.867,-9.888,-9.9062,-9.9324,-9.9742,-9.982,-9.982,-9.982,-9.982,-9.982,-9.982,-9.982,-9.982,-9.982,-9.982,-9.982,-9.982,-9.982,-9.982,-9.982,-9.982,-9.982,-9.982,-9.9664,-9.9376,-9.8775,-9.8226,-9.7573,-9.6788,-9.5455,-9.4201,-9.3181,-9.2998,-9.292,-9.292,-9.292,-9.292,-9.292,-9.292,-9.292,-9.292,-9.292,-9.292,-7.6362,-7.661,-7.659,-7.7935,-7.7935,-7.7604,-7.7625,-7.7625,-7.7625,-7.7666,-7.8059,-7.837,-7.837,-7.8743,-7.8929,-7.8494,-7.9115,0.0,0.0,-7.9488,-8.0295,-8.0295,-7.9115,-7.8184,-7.7666,-7.9239,-7.9157,-7.6528,-7.8349,-7.8101,-7.454,-7.4727,-7.454,-7.3671,-7.454,-7.4996,-7.4996,-7.5493,-7.67,-7.8441,-7.8972,-7.996,-8.1345,-8.1825,-8.2022,-8.2022,-8.2066,-8.2066,-8.2088,-8.2546,-8.2699,-8.2765,-8.3223,-8.342,-8.342,-8.342,-8.678,-9.1371,-9.1603,-9.4966,-9.9526,-9.9768,-9.982,-9.982,-9.982,-9.982,-9.9664,-9.9115,-9.9324,-9.9664,-9.9141,-9.9402,-9.982,-9.982,-9.982,-9.982,-9.982,-9.982,-9.982,-9.982,-9.982,-9.982,-9.982,-9.982,-9.982,-9.982,-9.982,-9.982,-9.982,-9.982,-9.982,-9.982,-9.9324,-9.8775,-9.82,-9.7599,-9.6762,-9.5638,-9.5011,-9.4384,-9.3809,-9.3208,-9.292,-9.292,-9.292,-9.292,-9.292,-9.292,-9.292,-9.292,-9.292,-9.292,-7.5989,-7.5555,-7.5368,-7.7045,-7.6921,-7.6735,-7.8246,-7.837,-7.8246,-7.8556,-7.8743,-7.8805,-7.8805,-7.895,-7.9012,-7.8867,-7.9074,-7.9177,0.0,-7.9239,-7.9736,-8.0357,-7.9177,-7.8556,-7.8991,-7.9301,-7.8743,-7.6921,-7.7749,-7.7438,-7.5306,-7.4789,-7.454,-7.454,-7.481,-7.512,-7.5431,-7.5907,-7.6993,-7.8441,-7.8632,-7.9487,-8.0799,-8.1279,-8.1541,-8.1541,-8.1891,-8.2022,-8.2022,-8.2153,-8.2219,-8.2284,-8.2765,-8.2961,-8.2961,-8.3289,-8.5742,-8.9307,-9.2926,-9.6757,-9.982,-9.982,-9.982,-9.982,-9.982,-9.982,-9.982,-9.9585,-9.9664,-9.9768,-9.9585,-9.9664,-9.982,-9.982,-9.982,-9.982,-9.982,-9.982,-9.982,-9.982,-9.982,-9.982,-9.982,-9.982,-9.982,-9.982,-9.982,-9.982,-9.982,-9.982,-9.982,-9.982,-9.9324,-9.8775,-9.82,-9.6867,-9.5795,-9.5011,-9.4436,-9.3835,-9.326,-9.2998,-9.292,-9.292,-9.292,-9.292,-9.292,-9.292,-9.292,-9.292,-9.292,-9.292,-7.5617,-7.512,-7.4934,-7.6548,-7.6424,-7.6424,-7.837,-7.8577,-7.8432,-7.8743,-7.9177,-7.9239,-7.8287,-7.8867,-7.9301,-7.868,-7.8991,-7.9239,0.0,-7.9177,-7.955,-8.0336,-7.9488,-7.9157,-7.9902,-8.0171,-7.9426,-7.7376,-7.7977,-7.7604,-7.5803,-7.4975,-7.4603,-7.4747,-7.5058,-7.5306,-7.5431,-7.6031,-7.7118,-7.8441,-7.8441,-7.9208,-8.0537,-8.0864,-8.1017,-8.1017,-8.1345,-8.1476,-8.1476,-8.1673,-8.176,-8.1804,-8.2284,-8.2437,-8.2546,-8.3158,-8.5765,-8.9802,-9.5241,-9.8309,-9.982,-9.982,-9.982,-9.982,-9.982,-9.982,-9.9847,-10.0108,-10.0003,-9.9847,-10.0108,-9.9847,-9.9507,-9.9507,-9.9376,-9.9219,-9.9219,-9.9376,-9.9507,-9.9507,-9.9664,-9.982,-9.982,-9.982,-9.982,-9.982,-9.982,-9.982,-9.982,-9.982,-9.982,-9.982,-9.9141,-9.8331,-9.7573,-9.6449,-9.5455,-9.4724,-9.4305,-9.373,-9.292,-9.292,-9.2998,-9.326,-9.2998,-9.2998,-9.326,-9.2998,-9.292,-9.292,-9.292,-9.292]}]]